     2              OBSERVATION DATA    GPS                 RINEX VERSION / TYPE
ASRINEXO V2.7.2 UX SOPAC 02-MAR- 0 15:36                    PGM / RUN BY / DATE
                                                            COMMENT
Original Marker Name: 0412                                  COMMENT
Campaign Name: HPGN 1991                                    COMMENT
4-Character Station Name: 0412                              COMMENT
6-Character Antenna Code: ASHL12                            COMMENT
Vertical Measurement Point: BAS                             COMMENT
Vertical Offset to Rinex Ref. Point: 0.0000                 COMMENT
Radial Measurement Point: RRP                               COMMENT
Radial Offset to Rinex Ref. Point: 0.0000                   COMMENT
Antenna Height from Field Measurement: 1.6540 m             COMMENT
Additional Antenna Identification Info.:                    COMMENT
Original Ashtech L1/L2                                      COMMENT
Original XYZ: -2615426.0900 -4154566.0900 4058299.3600      COMMENT
New XYZ position is based on association with SCEC monument COMMENT
E1F8S1U4+0011. Position of that monument is believed to be  COMMENT
valid to within 1 m horizontally; vertical accuracy         COMMENT
should be no worse than 3-times this value.                 COMMENT
                                                            COMMENT
Revised Rinex header created by UCSD GPS archive for        COMMENT
GSAC on 17-Mar-2000 (2000:077) 22:27:40 GMT                 COMMENT
For assistance contact dagnew@ucsd.edu or hjohnson@ucsd.edu COMMENT
                                                            COMMENT
HPGN CA 04 12                                               MARKER NAME
JDD CALIF DEPT TRANSPORTATION                               OBSERVER / AGENCY
579 ASHTECH L-XII 6A                                        REC # / TYPE / VERS
615 ASHTECH GEODETIC L                                      ANT # / TYPE
 -2680782.8923 -4223134.3598  3943922.6456                  APPROX POSITION XYZ
        1.6540        0.0000        0.0000                  ANTENNA: DELTA H/E/N
     1     2     0                                          WAVELENGTH FACT L1/2
     3    C1    L1    L2                                    # / TYPES OF OBSERV
     0                                                      INTERVAL
  1991     7     9     5    19   45.000000                  TIME OF FIRST OBS
  1991     7     9     7    46   30.000000                  TIME OF LAST OBS
                                                            END OF HEADER
 91  7  9  5 19 45.0000000  0  2 21 23
  21131963.246           0.075 4         0.271 3
  20843404.308           0.775 5         0.181 3
 91  7  9  5 20  0.0000000  0  2 21 23
  21127591.975      -22968.140 4    -17897.042 2
  20847114.547       19491.504 5     15187.757 3
 91  7  9  5 20 15.0000000  0  2 21 23
  21123230.895      -45884.766 4    -35754.132 2
  20850830.475       39022.122 5     30406.421 3
 91  7  9  5 20 30.0000000  0  2 21 23
  21118879.404      -68743.272 4    -53565.955 3
  20854556.594       58599.148 5     45661.240 3
 91  7  9  5 20 45.0000000  0  3 17 21 23
  22497696.868           0.966 3         0.295 1
  21114541.411      -91537.144 4    -71327.412 2
  20858292.005       78228.845 5     60957.100 3
 91  7  9  5 21  0.0000000  0  3 17 21 23
  22504814.541       37410.286 3     29150.424 1
  21110219.297     -114263.516 4    -89036.265 2
  20862038.811       97913.873 5     76296.061 3
 91  7  9  5 21 15.0000000  0  3 17 21 23
  22511946.602       74873.141 3     58342.235 1
  21105906.485     -136919.851 4   -106690.542 2
  20865794.307      117656.440 5     91679.842 3
 91  7  9  5 21 30.0000000  0  3 17 21 23
  22519079.562      112389.948 3     87576.104 1
  21101607.161     -159505.678 4   -124289.866 3
  20869563.004      137457.072 4    107108.882 3
 91  7  9  5 21 45.0000000  0  4 17 11 21 23
  22526236.210      149960.703 3    116852.008 1
  23148389.504           0.036 3         0.080 1
  21097323.124     -182021.221 4   -141834.431 2
  20873341.884      157315.303 4    122582.806 3
 91  7  9  5 22  0.0000000  0  4 17 11 21 23
  22533389.857      187588.303 3    146172.218 2
  23139065.661      -49013.294 3    -38192.075 2
  21093052.881     -204463.137 4   -159321.638 2
  20877133.066      177234.438 4    138104.206 3
 91  7  9  5 22 15.0000000  0  4 17 11 21 23
  22540565.989      225272.308 3    175536.347 1
  23129749.906      -97959.178 3    -76331.704 2
  21088796.730     -226832.021 4   -176751.944 2
  20880933.828      197213.658 4    153672.429 3
 91  7  9  5 22 30.0000000  0  4 17 11 21 23
  22547744.825      263012.491 3    204944.267 1
  23120445.851     -146837.390 3   -114418.614 1
  21084555.262     -249128.080 4   -194125.488 3
  20884747.189      217252.710 4    169287.292 3
 91  7  9  5 22 45.0000000  0  4 17 11 21 23
  22554938.939      300809.553 3    234396.522 1
  23111156.777     -195646.906 3   -152451.947 2
  21080322.799     -271350.674 4   -211441.796 2
  20888572.242      237352.097 4    184949.174 3
 91  7  9  5 23  0.0000000  0  4 17 11 21 23
  22562135.462      338663.118 3    263892.826 1
  23101881.803     -244387.611 3   -190431.697 1
  21076109.514     -293500.222 4   -228701.173 2
  20892409.885      257511.137 4    200657.508 3
 91  7  9  5 23 15.0000000  0  4 17 11 21 23
  22569357.461      376572.145 3    293432.301 1
  23092626.007     -293060.133 3   -228358.297 2
  21071908.522     -315577.585 4   -245904.325 3
  20896255.625      277728.723 4    216411.474 3
 91  7  9  5 23 30.0000000  0  4 17 11 21 23
  22576575.866      414535.792 3    323014.365 1
  23083373.814     -341664.600 3   -266231.898 2
  21067720.418     -337583.228 4   -263051.569 3
  20900114.549      298004.125 4    232210.474 3
 91  7  9  5 23 45.0000000  0  4 17 11 21 23
  22583816.153      452556.527 3    352640.923 1
  23074140.206     -390198.311 3   -304050.347 1
  21063548.507     -359514.890 4   -280141.168 2
  20903983.672      318339.538 4    248056.246 3
 91  7  9  5 24  0.0000000  0  4 17 11 21 23
  22591059.738      490632.216 3    382310.282 1
  23064914.992     -438662.703 3   -341814.769 1
  21059386.490     -381374.660 4   -297174.752 3
  20907865.386      338732.828 4    263947.124 3
 91  7  9  5 24 15.0000000  0  4 17 11 21 23
  22598315.914      528765.322 3    412024.377 1
  23055703.868     -487054.972 3   -379523.002 1
  21055241.261     -403160.061 4   -314150.385 3
  20911756.994      359186.556 4    279885.089 3
 91  7  9  5 24 30.0000000  0  4 17 11 21 23
  22605583.476      566954.347 3    441782.055 1
  23046510.735     -535376.027 3   -417175.734 1
  21051111.021     -424872.248 4   -331068.966 3
  20915660.590      379699.121 4    295868.902 3
 91  7  9  5 24 45.0000000  0  4 17 11 21 23
  22612860.941      605202.600 3    471585.888 2
  23037331.083     -583622.380 3   -454770.269 1
  21046994.567     -446508.174 4   -347928.123 3
  20919572.580      400273.457 4    311900.844 3
 91  7  9  5 25  0.0000000  0  4 17 11 21 23
  22620148.300      643507.055 3    501433.522 1
  23028167.328     -631796.558 3   -492308.555 2
  21042888.313     -468070.928 4   -364730.263 3
  20923501.959      420906.464 4    327978.497 3
 91  7  9  5 25 15.0000000  0  4 17 11 21 23
  22627447.046      681867.571 3    531324.832 1
  23019008.372     -679898.059 3   -529790.221 1
  21038803.636     -489560.320 4   -381475.222 3
  20927438.833      441598.044 4    344101.819 3
 91  7  9  5 25 30.0000000  0  4 17 11 21 23
  22634760.781      720285.419 3    561260.821 1
  23009869.798     -727925.309 3   -567214.006 1
  21034724.961     -510975.137 4   -398162.077 3
  20931387.398      462349.123 4    360271.514 3
 91  7  9  5 25 45.0000000  0  4 17 11 21 23
  22642083.512      758760.826 3    591241.677 2
  23000742.016     -775877.558 3   -604579.363 1
  21030665.474     -532315.086 4   -414790.599 3
  20935347.961      483159.947 4    376487.744 3
 91  7  9  5 26  0.0000000  0  4 17 11 21 23
  22649414.636      797294.009 3    621267.500 2
  22991635.821     -823754.104 3   -641885.737 2
  21026620.077     -553579.968 4   -431360.627 2
  20939319.307      504030.688 4    392750.670 3
 91  7  9  5 26 15.0000000  0  4 17 11 21 23
  22656756.554      835883.675 3    651337.414 1
  22982542.818     -871555.867 3   -679133.834 2
  21022586.363     -574770.992 4   -447873.098 3
  20943302.355      524959.778 4    409059.056 3
 91  7  9  5 26 30.0000000  0  4 17 11 21 23
  22664110.163      874529.079 3    681450.716 2
  22973454.910     -919282.953 3   -716323.724 2
  21018567.944     -595888.745 4   -464328.482 3
  20947295.889      545946.826 4    425412.627 3
 91  7  9  5 26 45.0000000  0  4 17 11 21 23
  22671478.465      913232.183 3    711608.967 2
  22964387.987     -966933.156 3   -753453.699 2
  21014562.125     -616931.438 4   -480725.385 2
  20951301.116      566993.229 4    441812.401 3
 91  7  9  5 27  0.0000000  0  4 17 11 21 23
  22678856.958      951992.461 3    741811.789 2
  22955337.553    -1014506.428 3   -790523.754 1
  21010571.879     -637899.279 4   -497063.951 3
  20955315.634      588098.662 4    458258.222 3
 91  7  9  5 27 15.0000000  0  4 17 11 21 23
  22686238.147      990809.550 3    772058.906 1
  22946299.108    -1062002.467 3   -827533.592 1
  21006597.837     -658792.316 4   -513344.233 2
  20959343.650      609262.702 4    474749.688 3
 91  7  9  5 27 30.0000000  0  4 17 11 21 23
  22693636.123     1029683.190 3    802350.042 2
  22937272.660    -1109421.284 3   -864483.310 2
  21002637.876     -679611.211 4   -529566.745 2
  20963381.849      630484.722 4    491286.343 3
 91  7  9  5 27 45.0000000  0  4 17 11 21 23
  22701040.695     1068613.751 3    832685.543 2
  22928267.790    -1156761.883 3   -901372.036 1
  20998686.013     -700355.300 4   -545730.964 3
  20967432.952      651765.161 4    507868.497 3
 91  7  9  5 28  0.0000000  0  4 17 11 21 23
  22708461.156     1107599.830 3    863064.316 1
  22919271.016    -1204025.500 3   -938200.785 2
  20994755.133     -721026.195 4   -561838.160 2
  20971493.042      673102.503 4    524494.983 3
 91  7  9  5 28 15.0000000  0  4 17 11 21 23
  22715892.113     1146643.761 3    893488.154 1
  22910291.334    -1251209.251 3   -974967.303 1
  20990836.250     -741621.448 4   -577886.405 2
  20975564.221      694499.021 4    541167.589 3
 91  7  9  5 28 30.0000000  0  4 17 11 21 23
  22723332.363     1185743.410 3    923955.411 1
  22901325.439    -1298314.798 3  -1011672.888 1
  20986929.051     -762143.125 4   -593877.314 3
  20979647.694      715952.508 4    557884.607 3
 91  7  9  5 28 45.0000000  0  4 17 11 21 23
  22730785.508     1224899.961 3    954467.024 2
  22892384.732    -1345340.334 3  -1048316.116 1
  20983038.943     -782589.896 4   -609809.853 2
  20983741.655      737464.187 4    574646.963 3
 91  7  9  5 29  0.0000000  0  4 17 11 21 23
  22738244.342     1264112.343 3    985022.114 1
  22883448.816    -1392286.623 3  -1084897.622 1
  20979162.325     -802962.900 4   -625684.908 2
  20987844.917      759032.649 4    591453.567 3
 91  7  9  5 29 15.0000000  0  4 17 11 21 23
  22745719.064     1303381.493 3   1015621.462 1
  22874524.897    -1439152.030 3  -1121416.081 2
  20975299.501     -823260.928 4   -641501.530 3
  20991959.268      780658.970 4    608305.251 3
 91  7  9  5 29 30.0000000  0  4 17 11 21 23
  22753200.086     1342706.314 3   1046264.164 1
  22865624.361    -1485937.507 3  -1157872.255 2
  20971451.667     -843485.221 4   -657260.725 3
  20996085.311      802341.692 4    625200.873 3
 91  7  9  5 29 45.0000000  0  4 17 11 21 23
  22760694.003     1382088.429 3   1076951.543 2
  22856739.408    -1532640.872 3  -1194264.434 1
  20967614.321     -863634.025 4   -672961.077 3
  21000222.452      824082.454 4    642141.724 3
 91  7  9  5 30  0.0000000  0  4 17 11 21 23
  22768199.603     1421525.715 3   1107681.891 1
  22847868.546    -1579263.577 3  -1230593.802 2
  20963796.466     -883709.451 4   -688604.265 3
  21004370.081      845879.147 4    659126.178 3
 91  7  9  5 30 15.0000000  0  4 17 11 21 23
  22775722.898     1461019.235 3   1138456.083 1
  22839003.984    -1625804.198 3  -1266859.198 2
  20959992.100     -903710.369 4   -704189.416 3
  21008529.698      867732.780 4    676154.980 3
 91  7  9  5 30 30.0000000  0  4 17 11 21 23
  22783239.292     1500568.845 3   1169273.930 2
  22830167.002    -1672262.516 3  -1303060.443 1
  20956201.224     -923636.784 4   -719716.464 2
  21012699.209      889643.017 4    693227.877 3
 91  7  9  5 30 45.0000000  0  4 17 11 21 23
  22790784.766     1540173.650 3   1200134.835 1
  22821343.814    -1718639.017 3  -1339197.934 1
  20952419.343     -943489.620 4   -735186.195 3
  21016879.819      911608.695 4    710344.000 3
 91  7  9  5 31  0.0000000  0  4 17 11 21 23
  22798326.951     1579835.200 3   1231039.933 1
  22812532.615    -1764931.360 3  -1375269.857 1
  20948656.648     -963266.888 4   -750597.051 3
  21021070.916      933631.913 4    727504.948 3
 91  7  9  5 31 15.0000000  0  4 17 11 21 23
  22805888.610     1619554.262 3   1261989.854 1
  22803743.001    -1811138.433 3  -1411275.329 1
  20944908.045     -982968.103 4   -765948.637 3
  21025272.205      955712.753 5    744710.786 3
 91  7  9  5 31 30.0000000  0  4 17 11 21 23
  22813456.569     1659328.025 3   1292982.387 1
  22794960.577    -1857262.832 3  -1447216.379 1
  20941172.625    -1002596.322 4   -781243.357 3
  21029484.591      977848.266 4    761959.222 3
 91  7  9  5 31 45.0000000  0  4 17 11 21 23
  22821034.727     1699157.368 3   1324018.228 1
  22786202.443    -1903303.227 3  -1483091.966 2
  20937452.806    -1022150.487 4   -796480.357 3
  21033708.364     1000039.280 5    779250.915 3
 91  7  9  5 32  0.0000000  0  4 17 11 21 23
  22828623.975     1739042.086 3   1355097.248 1
  22777458.994    -1949259.235 3  -1518901.805 1
  20933745.568    -1041630.634 4   -811659.697 3
  21037941.132     1022285.712 5    796585.802 3
 91  7  9  5 32 15.0000000  0  4 17 11 21 23
  22836219.811     1778981.635 3   1386218.963 1
  22768728.441    -1995130.609 3  -1554645.724 2
  20930049.726    -1061036.842 4   -826781.405 3
  21042183.795     1044587.047 4    813963.469 3
 91  7  9  5 32 30.0000000  0  4 17 11 21 23
  22843833.646     1818975.682 2   1417383.157 1
  22760013.174    -2040917.364 3  -1590323.690 1
  20926373.671    -1080369.637 4   -841845.916 3
  21046436.352     1066942.687 4    831383.442 3
 91  7  9  5 32 45.0000000  0  4 17 11 21 23
  22851453.763     1859025.854 3   1448591.067 2
  22751314.092    -2086617.613 3  -1625934.220 1
  20922710.513    -1099627.518 4   -856852.063 3
  21050703.602     1089354.203 4    848846.968 3
 91  7  9  5 33  0.0000000  0  4 17 11 21 23
  22859089.185     1899130.889 3   1479841.751 1
  22742637.800    -2132231.899 3  -1661477.794 1
  20919059.037    -1118811.520 4   -871800.637 3
  21054977.745     1111820.322 4    866353.032 3
 91  7  9  5 33 15.0000000  0  4 17 11 21 23
  22866728.192     1939291.084 3   1511135.392 1
  22733973.200    -2177759.604 3  -1696953.902 2
  20915422.857    -1137921.388 4   -886691.444 3
  21059263.571     1134341.207 4    883901.785 3
 91  7  9  5 33 30.0000000  0  4 17 11 21 23
  22874389.091     1979507.070 3   1542472.532 1
  22725329.278    -2223200.072 3  -1732362.019 2
  20911800.462    -1156956.781 4   -901524.204 3
  21063559.605     1156917.058 4    901493.368 3
 91  7  9  5 33 45.0000000  0  4 17 11 21 23
  22882046.691     2019778.217 2   1573852.623 1
  22716701.254    -2268553.162 3  -1767702.054 1
  20908190.361    -1175918.052 4   -916299.205 3
  21067866.424     1179547.558 4    919127.521 3
 91  7  9  5 34  0.0000000  0  4 17 11 21 23
  22889717.179     2060103.715 3   1605275.092 1
  22708084.624    -2313818.607 3  -1802973.826 2
  20904596.445    -1194805.512 4   -931016.706 3
  21072181.932     1202232.178 4    936803.845 3
 91  7  9  5 34 15.0000000  0  4 17 11 21 23
  22897404.157     2100483.660 2   1636739.957 1
  22699488.368    -2358996.075 3  -1838176.999 2
  20901018.130    -1213619.254 4   -945676.743 3
  21076508.836     1224970.544 4    954522.058 3
 91  7  9  5 34 30.0000000  0  4 17 11 21 23
  22905099.528     2140918.502 3   1668247.620 1
  22690902.616    -2404084.933 3  -1873311.156 2
  20897449.997    -1232358.914 4   -960279.030 3
  21080849.229     1247762.930 5    972282.348 3
 91  7  9  5 34 45.0000000  0  4 17 11 21 23
  22912804.794     2181406.486 3   1699796.712 1
  22682339.943    -2449086.446 3  -1908377.238 1
  20893898.956    -1251026.206 4   -974824.979 2
  21085195.319     1270607.475 4    990083.276 3
 91  7  9  5 35  0.0000000  0  4 17 11 21 23
  22920516.953     2221949.333 3   1731388.537 1
  22673797.956    -2493998.117 3  -1943373.324 2
  20890361.701    -1269619.068 4   -989312.920 3
  21089552.211     1293506.198 4   1007926.426 3
 91  7  9  5 35 15.0000000  0  4 17 11 21 23
  22928243.211     2262547.424 2   1763023.388 1
  22665264.364    -2538819.368 3  -1978298.946 2
  20886836.443    -1288137.351 4  -1003742.748 3
  21093920.785     1316459.112 5   1025811.813 3
 91  7  9  5 35 30.0000000  0  4 17 11 21 23
  22935973.352     2303200.631 3   1794701.233 1
  22656756.850    -2583549.897 3  -2013153.865 2
  20883326.776    -1306581.030 4  -1018114.434 3
  21098296.855     1339465.931 4   1043739.198 3
 91  7  9  5 35 45.0000000  0  4 17 11 21 23
  22943722.688     2343907.775 3   1826421.051 1
  22648261.936    -2628190.310 3  -2047938.582 2
  20879831.498    -1324951.067 4  -1032428.718 3
  21102684.014     1362525.621 4   1061707.786 3
 91  7  9  5 36  0.0000000  0  4 17 11 21 23
  22951477.722     2384668.158 3   1858182.405 1
  22639781.409    -2672740.866 3  -2082653.262 2
  20876349.106    -1343248.351 4  -1046686.336 3
  21107082.272     1385637.187 4   1079716.796 3
 91  7  9  5 36 15.0000000  0  4 17 11 21 23
  22959251.340     2425482.265 3   1889985.569 1
  22631320.061    -2717200.567 3  -2117297.179 2
  20872882.603    -1361472.362 4  -1060886.849 3
  21111491.322     1408800.997 4   1097766.505 3
 91  7  9  5 36 30.0000000  0  4 17 11 21 23
  22967022.559     2466351.380 3   1921831.622 1
  22622880.908    -2761567.576 3  -2151868.835 1
  20869429.894    -1379621.523 4  -1075029.064 3
  21115908.461     1432018.584 4   1115858.114 3
 91  7  9  5 36 45.0000000  0  4 17 11 21 23
  22974815.068     2507275.722 3   1953720.702 1
  22614452.837    -2805841.118 3  -2186367.692 2
  20865990.072    -1397695.675 4  -1089112.836 3
  21120338.792     1455290.162 4   1133991.825 3
 91  7  9  5 37  0.0000000  0  4 17 11 21 23
  22982608.771     2548254.229 3   1985651.984 1
  22606051.159    -2850022.104 3  -2220794.392 2
  20862565.249    -1415696.015 4  -1103139.104 3
  21124776.923     1478614.153 4   1152166.357 3
 91  7  9  5 37 15.0000000  0  4 17 11 21 23
  22990420.160     2589287.168 3   2017625.714 1
  22597659.070    -2894109.609 3  -2255148.271 2
  20859149.709    -1433621.962 4  -1117107.373 3
  21129226.738     1501990.978 4   1170382.055 3
 91  7  9  5 37 30.0000000  0  4 17 11 21 23
  22998237.849     2630373.400 3   2049640.893 1
  22589284.667    -2938104.236 3  -2289429.767 1
  20855752.762    -1451474.704 4  -1131018.590 3
  21133683.759     1525419.535 4   1188638.043 3
 91  7  9  5 37 45.0000000  0  4 17 11 21 23
  23006069.629     2671513.258 3   2081697.956 1
  22580931.545    -2982005.159 3  -2323638.251 2
  20852371.408    -1469253.838 4  -1144872.468 3
  21138152.760     1548899.914 4   1206934.426 3
 91  7  9  5 38  0.0000000  0  4 17 11 21 23
  23013905.902     2712708.015 3   2113797.736 1
  22572595.515    -3025810.588 3  -2357772.338 2
  20849002.940    -1486957.893 4  -1158667.846 3
  21142628.060     1572433.479 4   1225272.271 3
 91  7  9  5 38 15.0000000  0  4 17 11 21 23
  23021754.469     2753956.782 3   2145939.653 1
  22564276.577    -3069521.294 3  -2391832.602 2
  20845648.257    -1504587.925 4  -1172405.526 3
  21147120.453     1596019.083 4   1243650.682 3
 91  7  9  5 38 30.0000000  0  4 17 11 21 23
  23029617.127     2795259.315 3   2178123.425 1
  22555978.623    -3113136.811 3  -2425818.701 2
  20842306.768    -1522143.974 4  -1186085.576 3
  21151616.440     1619656.617 4   1262069.558 3
 91  7  9  5 38 45.0000000  0  4 17 11 21 23
  23037483.982     2836615.521 3   2210349.035 1
  22547697.151    -3156656.518 3  -2459730.139 2
  20838980.276    -1539626.027 4  -1199707.943 3
  21156123.823     1643346.069 4   1280528.890 3
 91  7  9  5 39  0.0000000  0  4 17 11 21 23
  23045366.725     2878025.326 3   2242616.398 1
  22539435.773    -3200080.148 3  -2493566.715 1
  20835666.366    -1557034.049 4  -1213272.627 3
  21160641.396     1667086.955 4   1299028.271 3
 91  7  9  5 39 15.0000000  0  4 17 11 21 23
  23053254.861     2919488.453 3   2274925.336 1
  22531186.384    -3243407.517 3  -2527328.293 1
  20832370.753    -1574368.207 4  -1226779.751 3
  21165169.457     1690879.081 4   1317567.575 3
 91  7  9  5 39 30.0000000  0  4 17 11 21 23
  23061155.595     2961004.381 3   2307275.384 1
  22522961.276    -3286638.885 3  -2561015.040 2
  20829083.228    -1591629.302 4  -1240229.954 3
  21169706.819     1714721.766 4   1336146.299 3
 91  7  9  5 39 45.0000000  0  4 17 11 21 23
  23069065.918     3002574.610 3   2339667.792 1
  22514754.159    -3329772.018 3  -2594625.259 2
  20825811.888    -1608815.533 4  -1253621.813 3
  21174253.473     1738616.525 4   1354765.573 3
 91  7  9  5 40  0.0000000  0  4 17 11 21 23
  23076985.237     3044198.416 2   2372101.915 1
  22506566.831    -3372807.305 3  -2628159.215 2
  20822555.547    -1625927.807 4  -1266956.048 3
  21178808.513     1762562.518 4   1373424.785 3
 91  7  9  5 40 15.0000000  0  4 17 11 21 23
  23084913.246     3085875.765 3   2404577.780 1
  22498391.491    -3415744.150 3  -2661616.480 2
  20819313.890    -1642965.874 4  -1280232.427 3
  21183377.355     1786559.808 4   1392123.974 3
 91  7  9  5 40 30.0000000  0  4 17 11 21 23
  23092855.949     3127606.636 2   2437095.310 1
  22490240.128    -3458582.110 3  -2694996.686 2
  20816089.019    -1659929.718 4  -1293450.972 3
  21187952.488     1810608.051 4   1410862.879 3
 91  7  9  5 40 45.0000000  0  5 17 11 21 23 12
  23100803.746     3169389.465 2   2469653.347 1
  22482108.859    -3501322.306 3  -2728300.719 1
  20812870.746    -1676820.884 4  -1306612.903 3
  21192539.609     1834705.808 4   1429640.373 3
  24541731.011           0.920 2         0.085 1
 91  7  9  5 41  0.0000000  0  5 17 11 21 23 12
  23108773.426     3211224.763 2   2502252.212 1
  22473994.979    -3543963.860 3  -2761527.888 2
  20809670.463    -1693638.903 4  -1319717.831 3
  21197133.030     1858853.268 4   1448456.562 3
  24535430.872      -33059.006 2    -25760.857 1
 91  7  9  5 41 15.0000000  0  5 17 11 21 23 12
  23116741.013     3253113.686 2   2534892.961 1
  22465898.785    -3586505.123 3  -2794676.905 2
  20806487.569    -1710382.543 4  -1332764.797 3
  21201736.642     1883051.919 4   1467312.668 3
  24529157.117      -66024.785 2    -51448.490 1
 91  7  9  5 41 30.0000000  0  4 17 11 21 23
  23124722.088     3295056.393 2   2567575.586 1
  22457823.269    -3628945.498 4  -2827747.301 2
  20803315.163    -1727051.671 4  -1345753.744 3
  21206355.243     1907301.512 4   1486208.468 3
 91  7  9  5 41 45.0000000  0  5 17 11 21 23 12
  23132716.355     3337052.659 2   2600299.920 1
  22449766.652    -3671284.460 3  -2860738.670 2
  20800155.348    -1743646.142 4  -1358684.493 3
  21210976.549     1931601.874 4   1505143.822 3
  24516664.462      907604.21512    707223.675 1
 91  7  9  5 42  0.0000000  0  5 17 11 21 23 12
  23140716.015     3379101.090 2   2633064.910 1
  22441732.214    -3713522.901 3  -2893651.716 2
  20797009.632    -1760167.233 4  -1371558.037 3
  21215611.938     1955951.681 4   1524117.672 3
  24510446.470      874922.675 2    681757.766 1
 91  7  9  5 42 15.0000000  0  5 17 11 21 23 12
  23148726.468     3421201.575 2   2665870.469 1
  22433707.967    -3755660.467 3  -2926486.183 2
  20793882.195    -1776615.131 4  -1384374.572 3
  21220253.321     1980350.812 4   1543129.992 2
  24504244.663      842335.716 2    656365.123 1
 91  7  9  5 42 30.0000000  0  5 17 11 21 23 12
  23156749.520     3463354.740 2   2698717.092 1
  22425708.603    -3797696.111 3  -2959241.218 2
  20790764.653    -1792989.062 4  -1397133.446 3
  21224904.903     2004799.821 4   1562181.164 3
  24498061.448      809844.421 2    631047.232 1
 91  7  9  5 42 45.0000000  0  5 17 11 21 23 12
  23164777.955     3505560.912 2   2731605.032 1
  22417730.530    -3839629.131 3  -2991916.278 2
  20787663.601    -1809288.708 4  -1409834.468 3
  21229565.778     2029298.652 4   1581271.156 3
  24491897.709      777449.505 2    605804.682 1
 91  7  9  5 43  0.0000000  0  5 17 11 21 23 12
  23172824.084     3547819.350 2   2764533.626 1
  22409770.735    -3881459.731 3  -3024511.512 2
  20784575.741    -1825514.802 4  -1422478.150 3
  21234240.438     2053846.807 4   1600399.592 3
  24485746.568      745150.954 2    580636.867 1
 91  7  9  5 43 15.0000000  0  5 17 11 21 23 12
  23180875.615     3590132.102 2   2797504.598 1
  22401829.237    -3923185.249 3  -3057024.897 2
  20781502.862    -1841665.157 4  -1435062.836 3
  21238921.703     2078446.337 4   1619568.059 3
  24479627.510      712951.294 2    555546.226 1
 91  7  9  5 43 30.0000000  0  5 17 11 21 23 12
  23188934.631     3632497.539 2   2830516.623 1
  22393909.316    -3964807.131 3  -3089457.491 2
  20778442.880    -1857741.677 4  -1447590.011 3
  21243612.252     2103095.168 4   1638774.974 3
  24473511.740      680849.454 2    530531.813 1
 91  7  9  5 43 45.0000000  0  5 17 11 21 23 12
  23197006.544     3674913.079 2   2863567.648 1
  22386007.386    -4006327.483 4  -3121811.005 2
  20775398.794    -1873746.826 4  -1460061.556 3
  21248311.500     2127790.876 4   1658018.382 3
  24467417.557      648842.865 2    505591.630 1
 91  7  9  5 44  0.0000000  0  5 17 11 21 23 12
  23205089.249     3717381.680 2   2896660.057 1
  22378126.144    -4047742.738 3  -3154082.611 2
  20772366.688    -1889677.285 4  -1472474.877 3
  21253020.336     2152536.408 4   1677300.640 3
  24461354.261      616935.406 2    480728.688 1
 91  7  9  5 44 15.0000000  0  5 17 11 21 23 12
  23213183.349     3759901.939 2   2929792.735 1
  22370265.292    -4089053.940 3  -3186273.136 2
  20769349.580    -1905534.430 4  -1484831.106 3
  21257738.177     2177330.233 4   1696620.511 3
  24455305.047      585126.017 2    455942.196 1
 91  7  9  5 44 30.0000000  0  5 17 11 21 23 12
  23221280.442     3802475.202 2   2962966.668 1
  22362426.017    -4130259.157 3  -3218381.070 2
  20766345.961    -1921316.803 4  -1497129.034 3
  21262464.699     2202173.645 4   1715979.013 3
  24449266.923      553416.637 2    431233.608 1
 91  7  9  5 44 45.0000000  0  5 17 11 21 23 12
  23229394.026     3845100.742 2   2996181.377 2
  22354605.632    -4171358.505 3  -3250406.515 2
  20763355.526    -1937025.113 4  -1509369.262 3
  21267201.125     2227065.988 4   1735375.655 3
  24443241.397      521806.967 2    406602.753 1
 91  7  9  5 45  0.0000000  0  5 17 11 21 23 12
  23237515.104     3887778.180 2   3029436.509 1
  22346806.231    -4212351.809 4  -3282349.328 2
  20760380.386    -1952659.650 4  -1521552.007 3
  21271948.640     2252007.079 4   1754810.272 3
  24437259.934      490297.269 2    382049.751 1
 91  7  9  5 45 15.0000000  0  5 17 11 21 23 12
  23245649.375     3930507.549 2   3062732.116 1
  22339021.515    -4253238.745 3  -3314209.259 2
  20757419.337    -1968220.443 4  -1533677.306 3
  21276703.946     2276996.688 4   1774282.691 3
  24431285.372      458887.967 2    357575.015 1
 91  7  9  5 45 30.0000000  0  5 17 11 21 23 12
  23253787.833     3973288.809 2   3096068.124 1
  22331260.792    -4294018.701 4  -3345985.832 2
  20754472.676    -1983707.363 4  -1545745.020 3
  21281466.747     2302034.786 4   1793792.897 3
  24425324.596      427579.600 2    333178.858 1
 91  7  9  5 45 45.0000000  0  5 17 11 21 23 12
  23261937.696     4016121.861 2   3129444.536 1
  22323524.648    -4334691.413 3  -3377678.819 2
  20751540.708    -1999120.564 4  -1557755.284 3
  21286242.445     2327120.912 4   1813340.534 3
  24419379.717      396372.482 2    308861.645 1
 91  7  9  5 46  0.0000000  0  5 17 11 21 23 12
  23270095.044     4059004.989 2   3162859.940 1
  22315802.892    -4375258.083 3  -3409289.190 2
  20748624.628    -2014461.482 4  -1569709.214 3
  21291022.033     2352253.428 4   1832924.324 3
  24413466.012      365265.387 2    284622.481 1
 91  7  9  5 46 15.0000000  0  5 17 11 21 23 12
  23278268.892     4101939.159 2   3196315.163 1
  22308107.215    -4415717.283 4  -3440815.805 2
  20745713.338    -2029729.331 4  -1581606.243 3
  21295815.110     2377433.245 4   1852544.971 3
  24407558.302      334259.717 2    260462.236 1
 91  7  9  5 46 30.0000000  0  5 17 11 21 23 12
  23286449.929     4144924.775 2   3229810.401 1
  22300428.936    -4456068.579 4  -3472258.356 2
  20742819.141    -2044923.973 4  -1593446.224 3
  21300615.395     2402660.600 4   1872202.647 3
  24401676.069      303356.003 2    236381.444 1
 91  7  9  5 46 45.0000000  0  5 17 11 21 23 12
  23294635.460     4187960.694 2   3263344.868 1
  22292762.645    -4496312.178 3  -3503616.982 2
  20739945.937    -2060045.939 4  -1605229.576 3
  21305426.760     2427934.752 4   1891896.813 3
  24395824.418      272554.216 2    212380.069 1
 91  7  9  5 47  0.0000000  0  5 17 11 21 23 12
  23302838.380     4231046.797 2   3296918.436 1
  22285131.421    -4536447.846 3  -3534891.502 2
  20737081.719    -2075095.350 4  -1616956.366 3
  21310242.322     2453255.280 4   1911627.091 3
  24389974.276      241854.430 2    188458.101 1
 91  7  9  5 47 15.0000000  0  5 17 11 21 23 12
  23311049.999     4274184.027 2   3330531.818 1
  22277514.601    -4576473.884 4  -3566080.608 2
  20734233.686    -2090071.087 4  -1628625.740 3
  21315070.780     2478623.235 4   1931394.329 3
  24384162.499      211258.257 2    164617.016 1
 91  7  9  5 47 30.0000000  0  5 17 11 21 23 12
  23319259.811     4317372.638 2   3364185.294 1
  22269919.952    -4616389.544 3  -3597183.701 2
  20731394.658    -2104972.963 4  -1640237.603 3
  21319909.132     2504038.754 4   1951198.624 3
  24378345.320      180766.331 2    140857.116 1
 91  7  9  5 47 45.0000000  0  5 17 11 21 23 12
  23327494.508     4360610.786 2   3397877.367 1
  22262342.701    -4656196.346 4  -3628201.973 2
  20728576.308    -2119802.807 4  -1651793.337 3
  21324753.478     2529499.774 4   1971038.389 3
  24372566.820      150377.238 2    117177.293 1
 91  7  9  5 48  0.0000000  0  5 17 11 21 23 12
  23335729.807     4403900.315 2   3431609.428 1
  22254789.130    -4695892.099 4  -3659133.691 2
  20725769.345    -2134558.660 4  -1663291.394 3
  21329608.923     2555007.977 4   1990914.914 3
  24366812.908      120093.275 2     93579.500 1
 91  7  9  5 48 15.0000000  0  4 17 11 21 23
  23343978.900     4447241.507 2   3465381.756 1
  22247258.646    -4735476.095 4  -3689978.341 2
  20722975.583    -2149240.450 4  -1674731.756 3
  21334470.650     2580563.860 4   2010828.597 3
 91  7  9  5 48 30.0000000  0  4 17 11 21 23
  23352238.777     4490632.698 2   3499193.062 1
  22239748.543    -4774949.330 4  -3720736.681 2
  20720192.308    -2163849.450 4  -1686115.382 3
  21339341.084     2606165.746 4   2030778.133 3
 91  7  9  5 48 45.0000000  0  5 17 11 21 23 12
  23360504.963     4534074.442 2   3533043.782 1
  22232255.533    -4814310.671 4  -3751407.833 2
  20717429.423    -2178384.843 4  -1697441.677 3
  21344223.201     2631814.147 4   2050763.909 3
  24349645.889      915222.79912    713160.962 1
 91  7  9  5 49  0.0000000  0  5 17 11 21 23 12
  23368777.134     4577565.989 2   3566933.263 1
  22224786.500    -4853560.564 4  -3781992.146 2
  20714677.323    -2192847.492 4  -1708711.241 3
  21349111.321     2657508.146 4   2070785.205 3
  24343960.626      885360.970 2    689892.012 1
 91  7  9  5 49 15.0000000  0  5 17 11 21 23 12
  23377065.193     4621107.731 2   3600861.907 1
  22217339.052    -4892698.072 3  -3812488.876 2
  20711938.721    -2207237.082 4  -1719923.855 3
  21354011.430     2683248.213 4   2090842.413 3
  24338304.443      855605.548 2    666705.961 1
 91  7  9  5 49 30.0000000  0  5 17 11 21 23 12
  23385359.256     4664698.719 2   3634828.880 1
  22209914.395    -4931723.598 4  -3842898.365 2
  20709212.413    -2221554.219 4  -1731080.067 3
  21358917.532     2709033.343 4   2110934.726 3
  24332650.957      825956.264 2    643602.556 1
 91  7  9  5 49 45.0000000  0  5 17 11 21 23 12
  23393662.907     4708341.351 2   3668836.124 1
  22202509.220    -4970634.397 4  -3873218.447 2
  20706502.586    -2235796.655 4  -1742178.059 3
  21363833.224     2734865.791 4   2131063.903 3
  24327024.151      796415.782 2    620584.115 1
 91  7  9  5 50  0.0000000  0  5 17 11 21 23 12
  23401974.646     4752034.495 2   3702882.703 1
  22195126.836    -5009430.843 4  -3903449.411 2
  20703807.452    -2249965.283 4  -1753218.532 3
  21368756.715     2760744.733 4   2151229.306 2
  24321427.326      766983.716 2    597650.132 1
 91  7  9  5 50 15.0000000  0  5 17 11 21 23 12
  23410302.885     4795775.784 2   3736966.798 1
  22187763.333    -5048115.088 4  -3933592.941 2
  20701126.409    -2264062.875 4  -1764203.656 3
  21373691.000     2786667.225 4   2171428.654 3
  24315849.084      737657.747 2    574798.691 1
 91  7  9  5 50 30.0000000  0  5 17 11 21 23 12
  23418633.217     4839566.772 2   3771089.667 1
  22180421.415    -5086685.062 4  -3963647.451 2
  20698455.261    -2278087.537 4  -1775131.946 3
  21378633.983     2812634.957 4   2191663.241 3
  24310281.339      708440.163 2    552031.728 1
 91  7  9  5 50 45.0000000  0  5 17 11 21 23 12
  23426973.444     4883407.294 2   3805251.054 1
  22173101.677    -5125140.334 3  -3993612.573 2
  20695799.399    -2292039.275 4  -1786003.422 3
  21383581.757     2838647.877 4   2211933.032 3
  24304749.271      679331.361 2    529349.564 1
 91  7  9  5 51  0.0000000  0  5 17 11 21 23 12
  23435327.762     4927298.920 2   3839452.354 1
  22165811.325    -5163478.907 4  -4023486.765 2
  20693159.722    -2305916.456 4  -1796816.785 3
  21388541.222     2864707.527 4   2232239.249 3
  24299236.093      650333.308 2    506753.631 1
 91  7  9  5 51 15.0000000  0  5 17 11 21 23 12
  23443691.669     4971240.387 2   3873692.428 1
  22158538.362    -5201701.570 4  -4053270.636 2
  20690532.042    -2319720.321 4  -1807573.019 3
  21393508.785     2890812.458 4   2252580.757 3
  24293729.197      621445.266 2    484243.514 1
 91  7  9  5 51 30.0000000  0  5 17 11 21 23 12
  23452057.382     5015230.240 2   3907970.230 1
  22151285.485    -5239809.275 4  -4082964.935 2
  20687918.453    -2333452.381 4  -1818273.331 3
  21398484.138     2916961.387 4   2272956.539 3
  24288263.082      592666.199 2    461818.241 1
 91  7  9  5 51 45.0000000  0  5 17 11 21 23 12
  23460445.274     5059269.562 2   3942286.585 1
  22144052.989    -5277800.621 4  -4112568.542 2
  20685320.150    -2347111.391 4  -1828916.734 3
  21403469.090     2943155.242 4   2293367.335 3
  24282799.070      563997.497 2    439479.048 1
 91  7  9  5 52  0.0000000  0  5 17 11 21 23 12
  23468826.570     5103357.296 2   3976640.605 1
  22136848.082    -5315675.869 4  -4142081.701 2
  20682733.845    -2360698.006 4  -1839503.694 3
  21408463.927     2969393.185 4   2313812.495 3
  24277370.726      535438.911 2    417225.657 1
 91  7  9  5 52 15.0000000  0  5 17 11 21 23 12
  23477228.850     5147494.836 2   4011033.478 1
  22129662.056    -5353433.188 4  -4171502.975 2
  20680158.926    -2374210.921 4  -1850033.211 3
  21413462.672     2995676.394 4   2334292.912 3
  24271956.770      506992.258 2    395059.420 1
 91  7  9  5 52 30.0000000  0  5 17 11 21 23 12
  23485638.328     5191681.998 2   4045465.063 1
  22122501.813    -5391072.502 4  -4200832.287 2
  20677605.592    -2387650.706 4  -1860505.763 4
  21418475.195     3022004.437 4   2354808.287 2
  24266564.705      478657.620 2    372980.463 1
 91  7  9  5 52 45.0000000  0  5 17 11 21 23 12
  23494056.505     5235918.350 2   4079934.907 1
  22115358.357    -5428593.479 4  -4230069.403 2
  20675062.153    -2401017.382 4  -1870921.368 3
  21423490.728     3048377.094 4   2375358.403 2
  24261194.226      450435.370 2    350989.119 1
 91  7  9  5 53  0.0000000  0  5 17 11 21 23 12
  23502482.473     5280203.512 2   4114442.837 1
  22108246.381    -5465996.382 4  -4259214.494 2
  20672528.905    -2414311.417 4  -1881280.339 3
  21428518.249     3074793.742 4   2395942.817 3
  24255839.932      422325.117 2    329084.987 1
 91  7  9  5 53 15.0000000  0  5 17 11 21 23 12
  23510920.430     5324537.758 2   4148988.993 1
  22101146.996    -5503280.410 4  -4288266.952 2
  20670016.946    -2427532.206 4  -1891582.236 3
  21433554.460     3101254.646 4   2416561.705 3
  24250518.313      394327.834 2    307268.908 1
 91  7  9  5 53 30.0000000  0  5 17 11 21 23 12
  23519369.477     5368921.478 2   4183573.704 1
  22094078.192    -5540444.663 4  -4317226.100 2
  20667512.482    -2440679.445 4  -1901826.826 3
  21438600.566     3127760.368 4   2437215.509 3
  24245205.097      366444.493 2    285541.691 1
 91  7  9  5 53 45.0000000  0  5 17 11 21 23 12
  23527819.430     5413353.172 2   4218195.796 1
  22087028.871    -5577489.960 4  -4346092.549 2
  20665026.899    -2453754.504 4  -1912015.194 3
  21443651.165     3154309.430 4   2457903.100 3
  24239927.244      338674.113 2    263902.396 1
 91  7  9  5 54  0.0000000  0  5 17 11 21 23 12
  23536285.866     5457833.060 2   4252855.420 1
  22080000.237    -5614415.772 4  -4374865.873 2
  20662553.314    -2466757.061 4  -1922147.077 3
  21448709.564     3180901.862 4   2478624.480 2
  24234661.693      311017.334 2    242351.721 1
 91  7  9  5 54 15.0000000  0  5 17 11 21 23 12
  23544754.404     5502361.097 2   4287552.598 1
  22072994.681    -5651221.423 4  -4403545.574 2
  20660091.419    -2479686.801 4  -1932222.206 3
  21453778.460     3207537.790 4   2499379.734 2
  24229418.924      283474.711 2    220889.977 1
 91  7  9  5 54 30.0000000  0  5 17 11 21 23 12
  23553241.832     5546937.113 2   4322287.147 1
  22066014.612    -5687906.743 4  -4432131.525 2
  20657644.506    -2492544.078 4  -1942240.829 3
  21458855.741     3234216.752 4   2520168.524 2
  24224198.935      256046.378 2    199517.216 1
 91  7  9  5 54 45.0000000  0  5 17 11 21 23 12
  23561730.151     5591562.074 2   4357059.845 1
  22059057.629    -5724470.557 4  -4460622.793 2
  20655212.897    -2505328.221 4  -1952202.510 3
  21463939.321     3260939.667 4   2540991.583 2
  24219002.636      228733.748 2    178234.640 1
 91  7  9  5 55  0.0000000  0  5 17 11 21 23 12
  23570227.770     5636233.603 2   4391868.776 1
  22052123.732    -5760914.414 4  -4489020.588 2
  20652791.173    -2518041.216 4  -1962108.735 3
  21469034.296     3287704.558 4   2561847.341 2
  24213828.812      201535.219 2    157041.030 1
 91  7  9  5 55 15.0000000  0  5 17 11 21 23 12
  23578741.574     5680952.876 2   4426714.971 1
  22045210.820    -5797236.655 4  -4517323.599 2
  20650390.137    -2530681.630 4  -1971958.368 3
  21474136.765     3314512.395 4   2582736.563 3
  24208673.887      174452.189 2    135937.248 1
 91  7  9  5 55 30.0000000  0  5 17 11 21 23 12
  23587260.779     5725722.006 2   4461599.999 1
  22038323.385    -5833434.832 4  -4545529.948 2
  20647996.892    -2543247.565 4  -1981750.034 3
  21479246.128     3341365.175 4   2603660.796 2
  24203546.236      147487.186 2    114925.683 1
 91  7  9  5 55 45.0000000  0  5 17 11 21 23 12
  23595794.075     5770538.742 2   4496522.129 1
  22031453.644    -5869510.634 4  -4573640.945 2
  20645619.238    -2555741.024 4  -1991485.183 3
  21484362.689     3368260.604 4   2624618.275 2
  24198432.973      120638.368 2     94004.502 1
 91  7  9  5 56  0.0000000  0  5 17 11 21 23 12
  23604330.966     5815404.495 2   4531482.462 1
  22024612.976    -5905462.128 4  -4601655.079 2
  20643255.973    -2568160.452 4  -2001162.628 3
  21489489.737     3395200.180 4   2645610.149 2
  24193349.690       93907.851 2     73175.690 1
 91  7  9  5 56 15.0000000  0  5 17 11 21 23 12
  23612876.843     5860318.567 2   4566480.369 1
  22017798.692    -5941289.767 4  -4629572.699 2
  20640906.502    -2580506.775 4  -2010783.133 3
  21494624.577     3422182.957 4   2666635.688 2
  24188284.398       67295.168 2     52438.404 1
 91  7  9  5 56 30.0000000  0  5 17 11 21 23 12
  23621430.225     5905279.928 2   4601515.190 1
  22011002.399    -5976993.701 4  -4657393.926 2
  20638572.012    -2592780.597 5  -2020347.137 3
  21499766.319     3449208.360 4   2687694.447 2
  24183241.590       40800.036 2     31792.922 1
 91  7  9  5 56 45.0000000  0  5 17 11 21 23 12
  23629992.296     5950288.441 2   4636586.762 1
  22004233.983    -6012573.718 4  -4685118.581 2
  20636247.119    -2604982.138 4  -2029854.837 3
  21504919.456     3476276.063 4   2708786.170 2
  24178223.963       14422.793 2     11239.136
 91  7  9  5 57  0.0000000  0  5 17 11 21 23 12
  23638566.958     5995344.746 2   4671695.536 1
  21997485.661    -6048029.162 4  -4712746.173 2
  20633939.022    -2617110.829 4  -2039305.754 3
  21510076.780     3503386.292 4   2729911.030 3
  24173233.620      -11835.792 2     -9222.037 1
 91  7  9  5 57 15.0000000  0  5 17 11 21 23 12
  23647150.319     6040448.257 2   4706841.081 1
  21990762.214    -6083359.750 4  -4740276.482 2
  20631648.306    -2629166.977 4  -2048700.160 3
  21515241.905     3530538.860 4   2751068.873 2
  24168253.171      -37975.572 2    -29590.611 1
 91  7  9  5 57 30.0000000  0  5 17 11 21 23 12
  23655749.263     6085599.168 2   4742023.663 1
  21984060.650    -6118564.812 4  -4767708.979 2
  20629364.186    -2641150.309 4  -2058037.769 3
  21520421.121     3557733.782 4   2772259.718 2
  24163300.598      -63995.981 2    -49866.409 1
 91  7  9  5 57 45.0000000  0  5 17 11 21 23 12
  23664347.613     6130797.803 2   4777243.340 1
  21977386.369    -6153643.727 4  -4795043.174 2
  20627101.355    -2653060.749 4  -2067318.590 3
  21525602.134     3584971.001 4   2793483.536 2
  24158362.117      -89896.447 2    -70048.435 1
 91  7  9  5 58  0.0000000  0  5 17 11 21 23 12
  23672957.952     6176044.719 2   4812500.651 1
  21970737.278    -6188595.396 4  -4822278.204 2
  20624847.817    -2664897.444 4  -2076541.983 3
  21530795.441     3612251.371 4   2814740.958 2
  24153475.497     -115675.690 2    -90136.271 1
 91  7  9  5 58 15.0000000  0  5 17 11 21 23 12
  23681582.382     6221338.683 2   4847794.700 1
  21964109.467    -6223420.385 4  -4849414.558 2
  20622611.362    -2676661.482 4  -2085708.764 3
  21535991.741     3639573.762 4   2836031.137 2
  24148578.391     -141334.406 2   -110129.928 1
 91  7  9  5 58 30.0000000  0  5 17 11 21 23 12
  23690203.513     6266679.244 2   4883124.980 1
  21957505.633    -6258118.933 4  -4876452.337 2
  20620385.403    -2688353.283 4  -2094819.183 3
  21541200.037     3666937.489 4   2857353.531 2
  24143726.549     -166872.870 2   -130030.086 1
 91  7  9  5 58 45.0000000  0  5 17 11 21 23 12
  23698833.937     6312066.848 2   4918491.898 1
  21950925.487    -6292690.180 4  -4903390.946 2
  20618172.934    -2699972.560 4  -2103873.141 3
  21546419.127     3694343.101 4   2878708.522 2
  24138887.299     -192290.268 2   -149835.772 1
 91  7  9  5 59  0.0000000  0  5 17 11 21 23 12
  23707490.144     6357501.079 2   4953895.171 1
  21944374.126    -6327133.848 4  -4930230.130 2
  20615977.260    -2711519.401 4  -2112870.699 3
  21551640.913     3721790.242 4   2900095.889 2
  24134066.929     -217586.164 2   -169546.869 1
 91  7  9  5 59 15.0000000  0  5 17 11 21 23 12
  23716148.454     6402981.626 2   4989334.523 1
  21937844.944    -6361449.665 4  -4956969.704 2
  20613791.472    -2722993.530 4  -2121811.493 3
  21556869.286     3749278.909 4   2921515.674 2
  24129280.448     -242760.387 2   -189163.140 1
 91  7  9  5 59 30.0000000  0  5 17 11 21 23 12
  23724804.957     6448508.927 2   5024810.312 1
  21931342.452    -6395636.956 4  -4983609.120 2
  20611622.175    -2734395.161 4  -2130695.853 3
  21562109.962     3776809.075 4   2942967.778 2
  24124515.247     -267812.206 2   -208684.018 1
 91  7  9  5 59 45.0000000  0  5 17 11 21 23 12
  23733478.553     6494082.925 2   5060322.529 1
  21924854.941    -6429695.140 4  -5010147.935 2
  20609467.265    -2745723.882 4  -2139523.426 3
  21567355.131     3804380.748 4   2964452.183 2
  24119775.829     -292740.933 2   -228108.982 1
 91  7  9  6  0  0.0000000  0  5 17 11 21 23 12
  23742164.442     6539703.020 2   5095870.693 1
  21918400.707    -6463624.518 4  -5036586.399 2
  20607327.048    -2756980.564 4  -2148294.890 3
  21572608.693     3831993.255 4   2985968.430 2
  24115052.299     -317547.031 2   -247438.534 1
 91  7  9  6  0 15.0000000  0  5 17 11 21 23 12
  23750852.426     6585368.075 2   5131453.773 1
  21911969.264    -6497425.653 4  -5062924.914 2
  20605194.622    -2768166.024 4  -2157010.816 3
  21577872.447     3859645.683 4   3007515.781 2
  24110356.044     -342231.098 2   -266672.676 1
 91  7  9  6  0 30.0000000  0  5 17 11 21 23 12
  23759544.309     6631078.993 2   5167072.676 1
  21905562.399    -6531097.184 4  -5089162.450 2
  20603080.188    -2779279.315 4  -2165670.505 3
  21583144.000     3887338.700 4   3029094.762 2
  24105674.491     -366791.867 2   -285810.932 1
 91  7  9  6  0 45.0000000  0  5 17 11 21 23 12
  23768249.385     6676836.634 2   5202727.982 1
  21899180.112    -6564637.583 4  -5115297.802 2
  20600979.836    -2790319.522 4  -2174273.260 3
  21588421.243     3915073.201 4   3050706.056 2
  24101026.809     -391227.970 2   -304852.083 1
 91  7  9  6  1  0.0000000  0  5 17 11 21 23 12
  23776970.044     6722639.394 2   5238418.402 1
  21892823.312    -6598048.206 4  -5141332.025 2
  20598891.482    -2801288.158 4  -2182820.234 3
  21593706.888     3942847.812 4   3072348.622 2
  24096398.610     -415540.593 2   -323796.796 1
 91  7  9  6  1 15.0000000  0  5 17 11 21 23 12
  23785692.204     6768487.282 2   5274144.011 1
  21886484.800    -6631328.521 4  -5167264.685 2
  20596818.719    -2812185.170 4  -2191311.414 3
  21598996.424     3970662.368 4   3094022.289 2
  24091804.587     -439729.275 2   -342645.210 1
 91  7  9  6  1 30.0000000  0  5 17 11 21 23 12
  23794432.957     6814382.090 2   5309906.131 1
  21880179.565    -6664476.205 4  -5193094.041 2
  20594760.047    -2823008.579 4  -2199745.243 3
  21604298.254     3998518.695 4   3115728.508 2
  24087215.965     -463791.628 2   -361394.988 1
 91  7  9  6  1 45.0000000  0  5 17 11 21 23 12
  23803171.904     6860322.030 2   5345703.532 1
  21873894.119    -6697492.658 4  -5218821.122 2
  20592713.058    -2833760.170 4  -2208123.047 3
  21609608.180     4026414.842 4   3137465.780 2
  24082667.217     -487729.217 2   -380047.699 1
 91  7  9  6  2  0.0000000  0  5 17 11 21 23 12
  23811925.247     6906305.982 2   5381535.166 1
  21867636.549    -6730378.526 4  -5244446.455 2
  20590682.271    -2844440.982 4  -2216445.738 3
  21614921.702     4054349.910 4   3159233.355 2
  24078141.852     -511542.605 2   -398603.648 1
 91  7  9  6  2 15.0000000  0  5 17 11 21 23 12
  23820677.387     6952334.837 2   5417401.800 1
  21861404.169    -6763132.269 4  -5269968.829 2
  20588660.768    -2855049.964 4  -2224712.486 3
  21620246.016     4082324.868 4   3181032.016 2
  24073608.687     -535230.242 2   -417061.478 1
 91  7  9  6  2 30.0000000  0  5 17 11 21 23 12
  23829448.416     6998411.335 2   5453305.503 1
  21855197.266    -6795750.986 4  -5295385.981 2
  20586658.155    -2865584.349 4  -2232921.096 3
  21625579.326     4110342.148 4   3202863.659 2
  24069150.470     -558789.320 2   -435419.109 1
 91  7  9  6  2 45.0000000  0  5 17 11 21 23 12
  23838226.338     7044531.682 2   5489243.445 1
  21849017.341    -6828237.851 4  -5320700.402 2
  20584664.537    -2876047.765 4  -2241074.390 3
  21630917.130     4138398.209 4   3224725.517 2
  24064691.957     -582222.970 2   -453679.164 1
 91  7  9  6  3  0.0000000  0  5 17 11 21 23 12
  23847011.161     7090696.490 2   5525216.023 1
  21842861.402    -6860591.865 4  -5345911.300 2
  20582688.605    -2886439.620 4  -2249171.930 3
  21636265.726     4166493.508 4   3246617.963 2
  24060250.833     -605530.207 2   -471840.706 1
 91  7  9  6  3 15.0000000  0  5 17 11 21 23 12
  23855805.574     7136907.341 2   5561224.412 1
  21836727.345    -6892810.955 4  -5371017.062 2
  20580725.561    -2896758.382 4  -2257212.503 3
  21641618.816     4194629.642 4   3268542.220 2
  24055834.593     -628709.011 2   -489902.037 1
 91  7  9  6  3 30.0000000  0  5 17 11 21 23 12
  23864608.973     7183162.991 2   5597267.794 1
  21830617.875    -6924895.936 4  -5396018.288 2
  20578773.911    -2907004.982 4  -2265196.842 3
  21646978.808     4222805.457 4   3290497.402 2
  24051451.630     -651760.183 2   -507864.023 1
 91  7  9  6  3 45.0000000  0  5 17 11 21 23 12
  23873417.773     7229463.768 2   5633346.294 1
  21824541.683    -6956845.862 4  -5420914.316 2
  20576841.448    -2917179.055 4  -2273124.726 3
  21652352.890     4251021.260 4   3312483.721 2
  24047090.245     -674682.706 2   -525725.738 1
 91  7  9  6  4  0.0000000  0  5 17 11 21 23 12
  23882237.375     7275809.544 2   5669459.842 1
  21818491.274    -6988660.527 4  -5445704.941 2
  20574917.378    -2927280.608 4  -2280996.030 3
  21657725.472     4279276.696 4   3334500.949 2
  24042747.156     -697476.428 2   -543486.973 1
 91  7  9  6  4 15.0000000  0  5 17 11 21 23 12
  23891061.461     7322199.831 2   5705608.103 1
  21812459.449    -7020339.916 4  -5470390.185 2
  20573008.001    -2937310.118 4  -2288811.225 3
  21663108.541     4307571.503 4   3356548.820 3
  24038430.138     -720141.409 2   -561147.942 1
 91  7  9  6  4 30.0000000  0  5 17 11 21 23 12
  23899901.140     7368633.642 2   5741790.293 1
  21806459.698    -7051884.484 4  -5494970.361 2
  20571112.114    -2947268.558 4  -2296571.055 3
  21668501.208     4335904.578 4   3378626.541 2
  24034150.001     -742678.223 2   -578709.141 1
 91  7  9  6  4 45.0000000  0  5 17 11 21 23 12
  23908748.322     7415111.632 2   5778006.855 1
  21800482.143    -7083293.085 4  -5519444.557 2
  20569233.318    -2957155.087 4  -2304274.840 3
  21673901.972     4364276.664 4   3400734.654 2
  24029884.261     -765085.821 2   -596169.578 1
 91  7  9  6  5  0.0000000  0  5 17 11 21 23 12
  23917597.292     7461633.058 2   5814257.322 1
  21794529.761    -7114566.041 4  -5543813.069 2
  20567365.613    -2966970.340 4  -2311923.088 3
  21679309.027     4392687.154 4   3422872.691 2
  24025648.491     -787364.408 2   -613529.505 1
 91  7  9  6  5 15.0000000  0  5 17 11 21 23 12
  23926460.659     7508199.581 2   5850542.892 1
  21788605.560    -7145701.064 4  -5568074.097 2
  20565511.693    -2976712.450 4  -2319514.317 3
  21684722.983     4421137.726 4   3445041.951 2
  24021427.108     -809511.750 2   -630787.179 1
 91  7  9  6  5 30.0000000  0  5 17 11 21 23 12
  23935326.417     7554810.831 2   5886863.347 1
  21782704.149    -7176698.334 4  -5592227.794 2
  20563669.168    -2986381.974 4  -2327048.986 3
  21690142.331     4449627.770 4   3467241.979 2
  24017235.418     -831528.018 2   -647942.641
 91  7  9  6  5 45.0000000  0  5 17 11 21 23 12
  23944207.469     7601465.322 2   5923217.457 1
  21776834.507    -7207558.751 4  -5616274.870 2
  20561844.931    -2995980.221 4  -2334528.143 3
  21695569.166     4478155.984 4   3489471.762 2
  24013078.793     -853414.060 2   -664996.703 1
 91  7  9  6  6  0.0000000  0  5 17 11 21 23 12
  23953085.521     7648164.308 2   5959606.184 1
  21770993.055    -7238280.806 4  -5640214.111 2
  20560029.088    -3005505.937 4  -2341950.794 3
  21701007.709     4506723.491 4   3511732.122 2
  24008938.057     -875168.402 2   -681948.123 1
 91  7  9  6  6 15.0000000  0  5 17 11 21 23 12
  23961983.963     7694906.123 2   5996028.473 1
  21765167.789    -7268865.331 4  -5664046.198 2
  20558232.727    -3014960.293 4  -2349317.784 3
  21706451.340     4535328.939 4   3534022.079 2
  24004822.807      935311.91812    728815.701 1
 91  7  9  6  6 30.0000000  0  5 17 11 21 23 12
  23970891.400     7741690.822 2   6032484.039 1
  21759372.196    -7299311.925 4  -5687770.803 2
  20556446.872    -3024343.501 4  -2356629.372 3
  21711900.964     4563972.158 4   3556341.458 2
  24000733.934      913819.379 2    712068.322 1
 91  7  9  6  6 45.0000000  0  5 17 11 21 23 12
  23979798.829     7788519.356 2   6068973.796 1
  21753607.787    -7329619.507 4  -5711387.090 2
  20554674.497    -3033654.683 4  -2363884.814 3
  21717359.288     4592653.901 4   3578690.859 2
  23996673.852      892458.950 2    695423.875 1
 91  7  9  6  7  0.0000000  0  5 17 11 21 23 12
  23988720.357     7835391.177 2   6105497.381 1
  21747867.660    -7359788.012 4  -5734894.998 2
  20552918.909    -3042894.171 4  -2371084.431 3
  21722825.402     4621373.776 4   3601069.988 2
  23992628.447      871230.830 2    678882.492 2
 91  7  9  6  7 15.0000000  0  5 17 11 21 23 12
  23997642.174     7882307.201 2   6142055.187 1
  21742149.425    -7389815.834 4  -5758293.268 2
  20551173.216    -3052060.834 4  -2378227.325 3
  21728295.714     4650132.999 4   3623479.778 2
  23988604.034      850136.470 2    662445.394 1
 91  7  9  6  7 30.0000000  0  5 17 11 21 23 12
  24006577.488     7929265.474 2   6178646.011 1
  21736461.762    -7419704.683 4  -5781583.243 2
  20549440.418    -3061156.553 4  -2385314.875 3
  21733777.115     4678929.298 4   3645918.456 2
  23984631.187      829174.242 2    646111.123 1
 91  7  9  6  7 45.0000000  0  5 17 11 21 23 12
  24015531.997     7976266.438 2   6215270.077 1
  21730802.578    -7449453.618 4  -5804764.216 2
  20547723.805    -3070180.862 4  -2392346.809 3
  21739261.518     4707763.196 4   3668386.428 2
  23980666.733      808345.034 2    629880.622 1
 91  7  9  6  8  0.0000000  0  5 17 11 21 23 12
  24024483.497     8023310.812 2   6251928.150 1
  21725166.183    -7479061.406 4  -5827835.208 2
  20546022.487    -3079132.792 4  -2399322.335 3
  21744757.918     4736635.464 4   3690884.308 2
  23976724.458      787649.887 2    613754.500 1
 91  7  9  6  8 15.0000000  0  5 17 11 21 23 12
  24033443.695     8070397.788 2   6288619.205 1
  21719561.261    -7508528.450 4  -5850796.527 2
  20544328.359    -3088013.374 4  -2406242.263 3
  21750258.506     4765545.222 4   3713411.373 2
  23972806.771      767088.350 2    597732.557 1
 91  7  9  6  8 30.0000000  0  5 17 11 21 23 12
  24042403.893     8117529.410 2   6325345.141 1
  21713979.721    -7537852.198 4  -5873646.171 2
  20542655.215    -3096820.143 4  -2413104.654 3
  21755767.793     4794494.788 4   3735969.476 2
  23968924.455      746663.132 2    581816.761 1
 91  7  9  6  8 45.0000000  0  5 17 11 21 23 12
  24051391.366     8164702.657 2   6362103.501 1
  21708427.271    -7567035.339 4  -5896386.265 2
  20540991.965    -3105556.176 4  -2419911.973 3
  21761285.176     4823481.005 4   3758556.145 2
  23965066.133      726371.527 2    566005.191 1
 91  7  9  6  9  0.0000000  0  5 17 11 21 23 12
  24060367.156     8211917.420 2   6398894.127 1
  21702902.690    -7596077.449 4  -5919016.445 2
  20539344.010    -3114221.457 4  -2426664.092 3
  21766808.249     4852503.752 4   3781171.282 2
  23961227.888      706213.826 2    550297.986 1
 91  7  9  6  9 15.0000000  0  5 17 11 21 23 12
  24069363.624     8259174.898 2   6435718.130 1
  21697405.400    -7624976.962 4  -5941535.536 2
  20537705.940    -3122814.772 4  -2433360.183 3
  21772339.121     4881564.154 4   3803815.734 2
  23957416.630      686191.752 2    534696.386 1
 91  7  9  6  9 30.0000000  0  5 17 11 21 23 12
  24078363.400     8306473.762 2   6472574.377 1
  21691931.790    -7653734.811 4  -5963944.229 2
  20536086.167    -3131337.341 4  -2440001.158 3
  21777872.996     4910660.913 4   3826488.521 2
  23953635.639      666304.208 2    519199.587 1
 91  7  9  6  9 45.0000000  0  5 17 11 21 23 12
  24087375.460     8353815.141 2   6509463.817 1
  21686481.258    -7682348.927 4  -5986240.936 2
  20534477.475    -3139787.516 4  -2446585.690 3
  21783419.155     4939795.558 4   3849190.828 2
  23949873.843      646553.240 2    503809.188 1
 91  7  9  6 10  0.0000000  0  5 17 11 21 23 12
  24096397.414     8401199.584 2   6546386.709 1
  21681068.209    -7710818.760 4  -6008425.171 2
  20532886.181    -3148165.298 4  -2453113.860 3
  21788971.910     4968968.298 4   3871922.824 2
  23946149.827      626939.331 2    488525.697 1
 91  7  9  6 10 15.0000000  0  5 17 11 21 23 12
  24105417.868     8448626.112 2   6583342.470 1
  21675678.840    -7739144.756 4  -6030497.362 2
  20531302.679    -3156471.203 4  -2459585.994 3
  21794528.260     4998178.278 4   3894683.845 2
  23942435.094      607462.072 2    473348.562 1
 91  7  9  6 10 30.0000000  0  5 17 11 21 23 12
  24114448.513     8496094.115 2   6620330.487 1
  21670315.856    -7767327.091 4  -6052457.602 2
  20529734.463    -3164706.007 4  -2466002.738 3
  21800092.410     5027424.901 4   3917473.413 2
  23938752.749      588121.307 2    458277.907 1
 91  7  9  6 10 45.0000000  0  5 17 11 21 23 12
  24123491.757     8543602.157 2   6657349.673 1
  21664978.646    -7795366.697 4  -6074306.632 2
  20528181.236    -3172870.666 5  -2472364.741 3
  21805667.947     5056706.829 4   3940290.505 2
  23935096.781      568915.983 2    443312.758 1
 91  7  9  6 11  0.0000000  0  5 17 11 21 23 12
  24132542.190     8591150.262 2   6694400.125 1
  21659672.619    -7823263.081 4  -6096044.067 2
  20526641.499    -3180965.309 4  -2478672.271 3
  21811244.094     5086024.170 4   3963135.185 2
  23931473.784      549846.692 2    428453.531 1
 91  7  9  6 11 15.0000000  0  5 17 11 21 23 12
  24141594.717     8638740.859 2   6731483.669 1
  21654388.179    -7851013.215 4  -6117667.508 2
  20525116.454    -3188987.210 4  -2484923.098 3
  21816831.619     5115379.208 4   3986009.255 2
  23927873.280      530916.124 2    413702.477 1
 91  7  9  6 11 30.0000000  0  5 17 11 21 23 12
  24150659.844     8686372.819 2   6768599.516 1
  21649137.016    -7878618.109 4  -6139177.781 2
  20523603.102    -3196937.808 4  -2491118.382 3
  21822425.748     5144770.598 4   4008911.639 2
  23924291.056      512123.352 2    399058.744 1
 91  7  9  6 11 45.0000000  0  5 17 11 21 23 12
  24159730.964     8734045.691 2   6805747.181 1
  21643909.236    -7906077.739 4  -6160574.859 2
  20522103.247    -3204817.252 4  -2497258.223 3
  21828021.972     5174198.196 4   4031842.223 2
  23920745.713      493468.510 2    384522.561 1
 91  7  9  6 12  0.0000000  0  5 17 11 21 23 12
  24168806.282     8781759.374 2   6842926.615 1
  21638713.826    -7933391.736 4  -6181858.473 2
  20520614.176    -3212625.556 4  -2503342.614 3
  21833632.889     5203661.993 4   4054801.021 2
  23917217.453      474951.868 2    370094.011 1
 91  7  9  6 12 15.0000000  0  5 17 11 21 23 12
  24177899.887     8829513.120 2   6880137.416 1
  21633542.114    -7960560.422 4  -6203028.857 2
  20519148.192    -3220363.548 4  -2509372.242 3
  21839244.103     5233161.123 4   4077787.336 2
  23913720.377      456573.171 2    355772.950 2
 91  7  9  6 12 30.0000000  0  5 17 11 21 23 12
  24186991.092     8877308.056 2   6917380.106 1
  21628402.170    -7987582.221 4  -6224084.792 2
  20517684.599    -3228029.797 4  -2515345.930 3
  21844866.414     5262696.673 4   4100802.057 2
  23910249.983      438333.980 2    341560.601 1
 91  7  9  6 12 45.0000000  0  5 17 11 21 23 12
  24196091.590     8925142.624 2   6954653.780 1
  21623286.211    -8014458.223 4  -6245027.129 2
  20516241.099    -3235625.773 4  -2521264.857 3
  21850491.719     5292267.287 4   4123844.083 2
  23906805.659      420233.147 2    327456.133 1
 91  7  9  6 13  0.0000000  0  5 17 11 21 23 12
  24205205.289     8973016.924 2   6991958.400 1
  21618202.029    -8041187.660 4  -6265855.223 2
  20514808.689    -3243151.203 4  -2527128.837 3
  21856127.214     5321873.294 4   4146913.697 2
  23903389.229      402271.234 2    313459.845 1
 91  7  9  6 13 15.0000000  0  5 17 11 21 23 12
  24214324.075     9020932.029 2   7029294.808 1
  21613140.637    -8067769.072 4  -6286567.976 2
  20513391.871    -3250604.934 4  -2532936.925 3
  21861766.610     5351515.701 4   4170011.654 2
  23900003.668      384449.754 2    299572.997 1
 91  7  9  6 13 30.0000000  0  5 17 11 21 23 12
  24223442.259     9068887.554 2   7066662.729 1
  21608111.013    -8094202.497 4  -6307165.446 2
  20511984.049    -3257987.322 4  -2538689.447 3
  21867414.408     5381194.060 4   4193137.655 2
  23896625.306      366768.485 2    285795.397 1
 91  7  9  6 13 45.0000000  0  5 17 11 21 23 12
  24232587.133     9116883.685 2   7104062.259 1
  21603109.283    -8120487.579 4  -6327647.318 2
  20510593.615    -3265298.224 5  -2544386.210 3
  21873067.589     5410908.333 4   4216291.629 2
  23893297.018      349227.877 2    272127.449 1
 91  7  9  6 14  0.0000000  0  5 17 11 21 23 12
  24241728.403     9164921.004 2   7141493.944 1
  21598134.819    -8146623.034 4  -6348012.605 2
  20509218.163    -3272536.797 5  -2550026.649 3
  21878730.970     5440659.223 4   4239474.136 2
  23889981.310      331829.162 2    258570.003 1
 91  7  9  6 14 15.0000000  0  5 17 11 21 23 12
  24250871.471     9212999.045 2   7178957.338 1
  21593188.250    -8172608.847 4  -6368261.276 2
  20507853.809    -3279703.317 4  -2555610.942 3
  21884400.048     5470446.470 4   4262684.967 2
  23886698.279      314572.340 2    245123.152 1
 91  7  9  6 14 30.0000000  0  5 17 11 21 23 12
  24260032.827     9261116.319 2   7216451.340 1
  21588274.050    -8198446.252 4  -6388394.304 2
  20506499.349    -3286799.464 4  -2561140.407 3
  21890071.221     5500268.512 4   4285922.921 2
  23883439.241      297456.055 2    231785.921 1
 91  7  9  6 14 45.0000000  0  5 17 11 21 23 12
  24269189.689     9309274.475 2   7253977.130 1
  21583385.337    -8224133.243 4  -6408410.113 2
  20505164.067    -3293823.377 4  -2566613.558 3
  21895754.984     5530126.877 4   4309189.186 2
  23880207.478      280482.351 2    218559.598 1
 91  7  9  6 15  0.0000000  0  5 17 11 21 23 12
  24278362.143     9357471.803 2   7291533.451 1
  21578528.697    -8249670.727 4  -6428309.411 2
  20503839.587    -3300776.405 4  -2572031.490 3
  21901443.249     5560020.373 4   4332482.796 2
  23877016.488      263650.249 2    205443.659 1
 91  7  9  6 15 15.0000000  0  5 17 11 21 23 12
  24287549.281     9405707.920 2   7329120.009 1
  21573693.643    -8275058.754 4  -6448092.270 2
  20502530.097    -3307658.833 4  -2577394.449 3
  21907135.702     5589948.475 4   4355803.398 2
  23873832.992      246959.669 2    192438.034 1
 91  7  9  6 15 30.0000000  0  5 17 11 21 23 12
  24296726.228     9453983.416 2   7366737.266 1
  21568893.062    -8300296.679 4  -6467758.156 2
  20501238.292    -3314470.351 4  -2582702.129 3
  21912837.761     5619911.536 4   4379151.246 2
  23870682.172      230411.367 2    179543.345 1
 91  7  9  6 15 45.0000000  0  5 17 11 21 23 12
  24305926.559     9502297.743 2   7404384.756 1
  21564119.468    -8325384.290 4  -6487306.914 2
  20499952.778    -3321211.012 4  -2587954.574 3
  21918546.102     5649909.310 4   4402526.129 2
  23867562.527      214005.463 2    166759.550 1
 91  7  9  6 16  0.0000000  0  5 17 11 21 23 12
  24315126.288     9550651.189 2   7442062.750 1
  21559372.860    -8350320.984 4  -6506738.113 2
  20498684.653    -3327880.701 4  -2593151.746 3
  21924260.752     5679941.874 4   4425928.100 2
  23864465.672      197742.476 2    154087.049 1
 91  7  9  6 16 15.0000000  0  5 17 11 21 23 12
  24324330.213     9599043.062 2   7479770.758 1
  21554654.426    -8375106.968 4  -6526051.851 2
  20497431.222    -3334480.201 5  -2598294.264 3
  21929983.786     5710008.628 4   4449356.743 2
  23861403.298      181622.048 2    141525.767 1
 91  7  9  6 16 30.0000000  0  5 17 11 21 23 12
  24333547.636     9647475.294 2   7517510.047 1
  21549968.964    -8399739.654 4  -6545246.127 2
  20496187.387    -3341006.897 4  -2603379.990 3
  21935713.426     5740111.974 4   4472813.894 2
  23858357.703      165646.835 2    129077.532 1
 91  7  9  6 16 45.0000000  0  5 17 11 21 23 12
  24342768.654     9695946.664 2   7555279.950 1
  21545309.293    -8424219.896 4  -6564321.627 2
  20494955.542    -3347462.100 4  -2608410.030 3
  21941447.550     5770250.600 4   4496298.536 2
  23855339.095      149815.893 2    116741.783 1
 91  7  9  6 17  0.0000000  0  5 17 11 21 23 12
  24352006.154     9744456.982 2   7593080.174 1
  21540682.595    -8448547.643 4  -6583278.288 2
  20493745.579    -3353846.136 4  -2613384.614 3
  21947190.076     5800424.083 4   4519810.335 2
  23852370.847      134129.289 2    104518.424 1
 91  7  9  6 17 15.0000000  0  5 17 11 21 23 12
  24361250.555     9793004.162 2   7630909.141 1
  21536079.585    -8472724.647 4  -6602117.498 2
  20492543.110    -3360160.977 4  -2618305.262 3
  21952937.401     5830630.251 4   4543347.584 2
  23849407.399      118585.269 2     92406.179 1
 91  7  9  6 17 30.0000000  0  5 17 11 21 23 12
  24370485.960     9841589.996 2   7668768.172 1
  21531510.150    -8496748.627 4  -6620837.487 2
  20491352.936    -3366404.441 4  -2623170.196 3
  21958693.112     5860871.122 4   4566911.885 2
  23846471.234      103186.072 2     80406.890 1
 91  7  9  6 17 45.0000000  0  5 17 11 21 23 12
  24379744.758     9890216.243 2   7706658.775 1
  21526964.996    -8520617.446 4  -6639436.562 2
  20490183.745    -3372575.199 4  -2627978.687 3
  21964454.824     5891148.595 4   4590504.712 2
  23843577.639       87933.788 2     68522.069 1
 91  7  9  6 18  0.0000000  0  5 17 11 21 23 12
  24389000.249     9938880.534 2   7744578.883 1
  21522454.019    -8544333.007 4  -6657916.222 2
  20489018.445    -3378674.903 4  -2632731.645 3
  21970224.634     5921460.183 4   4614124.126 2
  23840700.822       72826.282 2     56749.940 1
 91  7  9  6 18 15.0000000  0  5 17 11 21 23 12
  24398259.334     9987582.817 2   7782528.705 1
  21517969.418    -8567894.818 4  -6676276.026 2
  20487870.239    -3384703.946 4  -2637429.611 3
  21975996.233     5951805.989 4   4637770.206 2
  23837850.696       57863.965 2     45090.984 1
 91  7  9  6 18 30.0000000  0  5 17 11 21 23 12
  24407540.014    10036322.038 2   7820507.279 1
  21513514.805    -8591303.363 4  -6694516.418 2
  20486739.124    -3390662.748 4  -2642072.774 3
  21981776.233     5982185.279 4   4661442.394 2
  23835030.252       43046.455 2     33544.910 1
 91  7  9  6 18 45.0000000  0  5 17 11 21 23 12
  24416835.074    10085099.517 2   7858515.733 1
  21509089.264    -8614557.321 4  -6712636.416 2
  20485616.403    -3396550.337 4  -2646660.455 3
  21987565.823     6012598.950 4   4685141.333 2
  23832231.089       28375.177 2     22112.817 1
 91  7  9  6 19  0.0000000  0  5 17 11 21 23 12
  24426119.348    10133914.488 2   7896553.264 1
  21504697.009    -8637656.836 4  -6730635.985 2
  20484508.969    -3402367.433 4  -2651193.227 3
  21993358.117     6043046.417 4   4708866.608 2
  23829473.003       13849.785 2     10794.333 1
 91  7  9  6 19 15.0000000  0  5 17 11 21 23 12
  24435410.220    10182768.788 2   7934621.548 1
  21500329.935    -8660599.704 4  -6748513.522 2
  20483415.922    -3408111.898 4  -2655669.388 3
  21999163.595     6073529.724 4   4732619.870 2
  23826735.893        -527.586 2      -408.818 1
 91  7  9  6 19 30.0000000  0  5 17 11 21 23 12
  24444707.381    10231660.075 2   7972718.680 1
  21495991.636    -8683387.968 4  -6766270.619 2
  20482336.670    -3413785.984 4  -2660090.725 3
  22004964.283     6104046.307 4   4756399.003 2
  23824028.169      -14758.711 2    -11497.960 1
 91  7  9  6 19 45.0000000  0  5 17 11 21 23 12
  24454024.332    10280590.181 2   8010845.953 1
  21491684.818    -8706019.098 4  -6783905.241 2
  20481272.111    -3419387.886 4  -2664455.890 3
  22010781.453     6134598.226 4   4780205.700 2
  23821349.822      -28841.557 2    -22471.517 1
 91  7  9  6 20  0.0000000  0  5 17 11 21 23 12
  24463348.175    10329558.120 2   8049002.752 1
  21487406.181    -8728493.650 4  -6801417.850 2
  20480220.438    -3424917.892 4  -2668764.908 3
  22016601.328     6165184.567 4   4804039.194 2
  23818708.348      -42776.406 2    -33329.887 1
 91  7  9  6 20 15.0000000  0  5 17 11 21 23 12
  24472675.317    10378563.009 2   8087188.451 1
  21483160.221    -8750812.162 4  -6818808.895 2
  20479180.161    -3430377.205 4  -2673018.889 3
  22022428.688     6195804.595 4   4827898.931 2
  23816066.882      -56563.871 2    -44073.311 1
 91  7  9  6 20 30.0000000  0  5 17 11 21 23 12
  24482006.061    10427605.248 2   8125403.270 1
  21478944.833    -8772974.025 4  -6836077.858 2
  20478151.270    -3435765.650 4  -2677217.691 3
  22028260.551     6226458.429 4   4851785.053 2
  23813475.176      -70203.513 2    -54701.576 1
 91  7  9  6 20 45.0000000  0  5 17 11 21 23 12
  24491349.091    10476684.652 2   8163647.042 1
  21474757.339    -8794978.793 4  -6853224.388 2
  20477139.768    -3441082.751 4  -2681360.833 3
  22034099.307     6257146.178 3   4875697.594 2
  23810914.051      -83694.784 2    -65214.213 1
 91  7  9  6 21  0.0000000  0  5 17 11 21 23 12
  24500693.918    10525802.622 2   8201920.678 1
  21470599.214    -8816824.984 4  -6870247.403 2
  20476145.062    -3446327.511 4  -2685447.648 3
  22039942.861     6287869.041 3   4899637.475 2
  23808374.207      -97036.304 2    -75610.253 1
 91  7  9  6 21 15.0000000  0  5 17 11 21 23 12
  24510043.553    10574956.465 2   8240222.219 1
  21466469.873    -8838514.599 4  -6887148.378 2
  20475161.437    -3451502.376 4  -2689480.014 3
  22045800.506     6318624.626 3   4923602.848 2
  23805870.039     -110230.203 2    -85891.121
 91  7  9  6 21 30.0000000  0  5 17 11 21 23 12
  24519401.276    10624146.522 2   8278552.220 1
  21462375.310    -8860047.070 4  -6903926.934 2
  20474187.715    -3456606.764 4  -2693457.410 3
  22051656.058     6349413.257 3   4947593.981 2
  23803388.959     -123275.719 2    -96056.335 1
 91  7  9  6 21 45.0000000  0  5 17 11 21 23 12
  24528776.379    10673373.445 2   8316910.927 1
  21458308.022    -8881421.203 4  -6920582.082 2
  20473227.482    -3461639.990 4  -2697379.442 3
  22057523.598     6380235.704 3   4971611.446 2
  23800929.159     -136171.774 2   -106105.229 1
 91  7  9  6 22  0.0000000  0  5 17 11 21 23 12
  24538148.795    10722638.321 2   8355299.004 1
  21454269.518    -8902635.634 4  -6937112.787 2
  20472289.428    -3466600.857 4  -2701245.112 4
  22063394.130     6411092.982 3   4995656.101 2
  23798501.441     -148917.166 2   -116036.694 1
 91  7  9  6 22 15.0000000  0  5 17 11 21 23 12
  24547522.101    10771939.157 2   8393715.242 1
  21450264.292    -8923691.808 4  -6953520.209 2
  20471357.071    -3471490.896 4  -2705055.523 3
  22069276.354     6441983.285 3   5019726.459 2
  23796110.892     -161513.230 2   -125851.717 1
 91  7  9  6 22 30.0000000  0  5 17 11 21 23 12
  24556921.801    10821276.084 2   8432159.565 1
  21446285.747    -8944589.417 4  -6969804.043 2
  20470440.612    -3476310.420 4  -2708810.942 3
  22075156.188     6472906.598 3   5043822.533 2
  23793733.238     -173959.925 2   -135550.483 1
 91  7  9  6 22 45.0000000  0  5 17 11 21 23 12
  24566309.800    10870648.773 2   8470631.882 1
  21442342.573    -8965327.933 4  -6985963.904 2
  20469537.336    -3481059.063 4  -2712511.076 3
  22081051.604     6503863.106 3   5067944.491 2
  23791396.061     -186256.700 2   -145132.350 1
 91  7  9  6 23  0.0000000  0  5 17 11 21 23 12
  24575718.486    10920057.105 2   8509131.728 1
  21438426.989    -8985907.493 4  -7001999.919 2
  20468643.056    -3485737.392 4  -2716156.529 3
  22086949.123     6534852.291 3   5092091.906 2
  23789081.961     -198403.582 2   -154597.361 1
 91  7  9  6 23 15.0000000  0  5 17 11 21 23 12
  24585129.266    10969502.312 2   8547660.417 1
  21434538.679    -9006326.204 4  -7017910.616 2
  20467767.361    -3490343.597 4  -2719745.727 3
  22092847.244     6565875.470 3   5116265.802 2
  23786797.239     -210398.808 2   -163944.301 1
 91  7  9  6 23 30.0000000  0  5 17 11 21 23 12
  24594533.459    11018982.862 2   8586216.638 1
  21430680.349    -9026585.263 4  -7033696.883 2
  20466909.351    -3494879.333 4  -2723280.066 3
  22098761.542     6596931.458 3   5140465.257 2
  23784548.203     -222243.678 2   -173174.049 1
 91  7  9  6 23 45.0000000  0  5 17 11 21 23 12
  24603961.934    11068499.978 2   8624801.429 1
  21426857.695    -9046683.393 4  -7049357.769 2
  20466057.641    -3499343.488 4  -2726758.638 3
  22104675.552     6628021.174 3   5164691.011 2
  23782321.346     -233936.970 2   -182285.674 1
 91  7  9  6 24  0.0000000  0  5 17 11 21 23 12
  24613391.604    11118053.249 2   8663414.392 1
  21423067.421    -9066620.331 4  -7064893.002 2
  20465223.023    -3503736.073 4  -2730181.438 3
  22110595.556     6659144.335 3   5188942.831 2
  23780124.163     -245478.494 2   -191278.975 1
 91  7  9  6 24 15.0000000  0  5 17 11 21 23 12
  24622824.572    11167641.546 2   8702054.609 1
  21419303.522    -9086396.648 4  -7080303.081 2
  20464397.689    -3508058.048 4  -2733549.211 3
  22116525.750     6690300.137 3   5213220.089 2
  23777956.060     -256868.769 2   -200154.517 1
 91  7  9  6 24 30.0000000  0  5 17 11 21 23 12
  24632269.232    11217263.936 2   8740721.355 1
  21415568.408    -9106013.164 4  -7095588.680 2
  20463586.454    -3512310.295 4  -2736862.581 3
  22122459.836     6721487.452 3   5237521.874 2
  23775816.742     -268108.552 2   -208912.812 1
 91  7  9  6 24 45.0000000  0  5 17 11 21 23 12
  24641716.597    11266920.753 2   8779415.075 1
  21411867.469    -9125468.929 4  -7110748.988 2
  20462792.906    -3516492.424 4  -2740121.358 3
  22128404.122     6752706.929 3   5261848.755 2
  23773706.505     -279197.092 2   -217553.147 1
 91  7  9  6 25  0.0000000  0  5 17 11 21 23 12
  24651175.644    11316611.754 2   8818135.244 1
  21408191.721    -9144763.941 4  -7125784.067 2
  20462012.846    -3520604.731 5  -2743325.799 3
  22134349.010     6783958.212 3   5286200.388 2
  23771630.444     -290134.399 2   -226075.682 1
 91  7  9  6 25 15.0000000  0  5 17 11 21 23 12
  24660640.991    11366337.157 2   8856882.238 1
  21404553.438    -9163897.478 4  -7140693.300 2
  20461240.281    -3524646.375 4  -2746475.079 3
  22140304.682     6815241.628 3   5310577.061 2
  23769583.158     -300919.814 2   -234479.839 1
 91  7  9  6 25 30.0000000  0  5 17 11 21 23 12
  24670112.333    11416096.219 2   8895655.564 1
  21400945.431    -9182870.077 4  -7155477.142 2
  20460483.902    -3528618.449 5  -2749570.212 3
  22146258.862     6846556.437 3   5334978.236 2
  23767551.167     -311553.809 2   -242766.027 1
 91  7  9  6 25 45.0000000  0  5 17 11 21 23 12
  24679582.182    11465889.140 2   8934455.175 1
  21397364.114    -9201681.011 4  -7170135.011 2
  20459744.911    -3532520.428 5  -2752610.713 3
  22152223.539     6877902.984 3   5359404.105 2
  23765552.454     -322035.845 2   -250933.793 1
 91  7  9  6 26  0.0000000  0  5 17 11 21 23 12
  24689070.912    11515716.184 2   8973281.457 1
  21393814.574    -9220329.746 4  -7184666.492 2
  20459013.415    -3536352.027 5  -2755596.382 3
  22158197.202     6909281.567 3   5383854.951 2
  23763588.807     -332365.367 2   -258982.810 1
 91  7  9  6 26 15.0000000  0  5 17 11 21 23 12
  24698554.844    11565577.518 2   9012134.413 1
  21390297.404    -9238815.664 4  -7199071.141 2
  20458296.316    -3540112.850 4  -2758526.906 3
  22164175.062     6940692.358 3   5408330.896 2
  23761654.250     -342541.909 2   -266912.519 1
 91  7  9  6 26 30.0000000  0  5 17 11 21 23 12
  24708044.176    11615470.479 2   9051012.004 1
  21386809.917    -9257141.026 4  -7213350.626 2
  20457597.199    -3543805.352 4  -2761404.102 3
  22170155.618     6972132.799 3   5432829.939 2
  23759751.470     -352567.843 2   -274724.877 1
 91  7  9  6 26 45.0000000  0  5 17 11 21 23 12
  24717559.588    11665396.537 2   9089915.398 1
  21383355.410    -9275304.112 4  -7227503.646 2
  20456905.578    -3547428.317 5  -2764227.183 3
  22176146.670     7003604.444 3   5457353.284 2
  23757878.363     -362441.313 2   -282418.447 1
 91  7  9  6 27  0.0000000  0  5 17 11 21 23 12
  24727050.116    11715356.511 2   9128845.263 1
  21379929.086    -9293303.640 4  -7241529.218 2
  20456229.547    -3550980.660 5  -2766995.246 3
  22182141.326     7035108.299 3   5481901.722 2
  23756017.254     -372161.211 2   -289992.415 1
 91  7  9  6 27 15.0000000  0  5 17 11 21 23 12
  24736567.334    11765350.095 2   9167801.289 1
  21376533.038    -9311139.477 4  -7255427.273 2
  20455567.905    -3554462.576 5  -2769708.436 3
  22188144.367     7066644.137 3   5506475.134 2
  23754194.814     -381727.348 2   -297446.579 1
 91  7  9  6 27 30.0000000  0  5 17 11 21 23 12
  24746104.925    11815376.534 2   9206782.887 1
  21373175.058    -9328812.157 4  -7269198.199 2
  20454916.453    -3557874.840 4  -2772367.347 3
  22194151.604     7098210.876 3   5531072.573 2
  23752405.652     -391140.451 2   -304781.470 1
 91  7  9  6 27 45.0000000  0  5 17 11 21 23 12
  24755605.347    11865436.985 1   9245791.034 1
  21369842.267    -9346319.925 4  -7282840.585 2
  20454280.297    -3561216.001 5  -2774970.822 3
  22200163.047     7129810.163 3   5555695.393 2
  23750646.173     -400398.818 2   -311995.748 1
 91  7  9  6 28  0.0000000  0  4 11 21 23 12
  21366541.550    -9363663.763 4  -7296355.261 2
  20453658.223    -3564487.058 5  -2777519.702 3
  22206182.578     7161440.805 3   5580342.652 2
  23748908.271     -409503.198 2   -319089.995 1
 91  7  9  6 28 15.0000000  0  4 11 21 23 12
  21363267.819    -9380843.298 4  -7309741.911 2
  20453050.851    -3567687.898 5  -2780013.873 3
  22212207.510     7193102.752 3   5605014.289 2
  23747205.452     -418453.325 2   -326064.148 1
 91  7  9  6 28 30.0000000  0  4 11 21 23 12
  21360027.959    -9397858.819 4  -7323000.725 2
  20452454.263    -3570819.063 5  -2782453.658 3
  22218238.436     7224795.391 3   5629709.866 2
  23745534.411     -427249.636 2   -332918.340 1
 91  7  9  6 28 45.0000000  0  4 11 21 23 12
  21356824.981    -9414708.537 4  -7336130.331 2
  20451873.563    -3573879.137 5  -2784838.098 3
  22224275.950     7256520.152 3   5654430.462 2
  23743884.946     -435890.321 2   -339651.308 1
 91  7  9  6 29  0.0000000  0  4 11 21 23 12
  21353650.777    -9431395.225 4  -7349132.958 2
  20451300.960    -3576871.149 5  -2787169.545 4
  22230316.474     7288274.141 3   5679173.825 2
  23742271.168     -444378.104 2   -346265.111 1
 91  7  9  6 29 15.0000000  0  4 11 21 23 12
  21350509.249    -9447915.458 4  -7362005.875 2
  20450747.239    -3579791.865 4  -2789445.443 3
  22236370.181     7320060.272 3   5703942.233 2
  23740693.363     -452709.717 2   -352757.239 1
 91  7  9  6 29 30.0000000  0  4 11 21 23 12
  21347395.607    -9464270.497 4  -7374750.079 2
  20450205.819    -3582642.865 4  -2791667.032 3
  22242418.496     7351877.185 3   5728734.645 2
  23739139.238     -460886.585 2   -359128.728 1
 91  7  9  6 29 45.0000000  0  4 11 21 23 12
  21344312.843    -9480459.449 4  -7387364.837 2
  20449674.582    -3585423.481 4  -2793833.701 3
  22248482.098     7383725.216 3   5753551.280 2
  23737604.596     -468907.845 2   -365379.074 1
 91  7  9  6 30  0.0000000  0  4 11 21 23 12
  21341263.950    -9496481.623 4  -7399849.601 2
  20449160.141    -3588133.274 5  -2795945.210 3
  22254550.499     7415605.098 3   5778392.742 2
  23736113.134     -476772.748 2   -371507.511 1
 91  7  9  6 30 15.0000000  0  4 11 21 23 12
  21338247.435    -9512337.924 4  -7412205.155 2
  20448657.688    -3590773.339 5  -2798002.381 3
  22260620.094     7447515.568 3   5803258.043 2
  23734644.149     -484482.175 2   -377514.800 1
 91  7  9  6 30 30.0000000  0  4 11 21 23 12
  21335264.207    -9528025.845 4  -7424429.501 2
  20448168.725    -3593341.415 5  -2800003.466 3
  22266699.288     7479458.802 3   5828148.861 2
  23733199.751     -492033.668 2   -383399.048 1
 91  7  9  6 30 45.0000000  0  4 11 21 23 12
  21332308.254    -9543548.718 4  -7436525.237 2
  20447693.555    -3595841.021 5  -2801951.201 3
  22272782.373     7511431.341 3   5853062.558 2
  23731794.624     -499430.777 2   -389162.996 1
 91  7  9  6 31  0.0000000  0  4 11 21 23 12
  21329388.570    -9558904.800 4  -7448491.007 2
  20447229.179    -3598270.641 5  -2803844.411 3
  22278876.852     7543434.372 3   5877999.965 2
  23730418.875     -506671.851 2   -394805.257 1
 91  7  9  6 31 15.0000000  0  4 11 21 23 12
  21326495.272    -9574093.832 4  -7460326.614 2
  20446783.090    -3600630.152 5  -2805682.964 3
  22284974.037     7575468.133 4   5902961.332 2
  23729080.601     -513756.586 2   -400325.886 1
 91  7  9  6 31 30.0000000  0  5 17 11 21 23 12
  24899252.704      -18018.27412    -14044.167 1
  21323637.956    -9589115.163 4  -7472031.540 2
  20446348.091    -3602919.313 5  -2807466.711 4
  22291075.410     7607532.908 3   5927946.866 2
  23727754.620     -520684.441 2   -405724.110 1
 91  7  9  6 31 45.0000000  0  4 11 21 23 12
  21320812.704    -9603969.792 4  -7483606.546 2
  20445923.283    -3605139.304 5  -2809196.581 4
  22297180.386     7639627.299 3   5952955.481 2
  23726464.612     -527456.485 2   -411001.010 1
 91  7  9  6 32  0.0000000  0  4 11 21 23 12
  21318018.043    -9618656.534 4  -7495050.738 2
  20445514.669    -3607288.950 5  -2810871.606 3
  22303294.052     7671752.410 3   5977988.035 2
  23725212.978     -534071.531 2   -416155.601 1
 91  7  9  6 32 15.0000000  0  4 11 21 23 12
  21315255.159    -9633175.489 4  -7506364.202 2
  20445118.636    -3609368.765 5  -2812492.225 3
  22309409.821     7703907.800 3   6003044.178 2
  23723976.630     -540529.636 2   -421187.919 1
 91  7  9  6 32 30.0000000  0  4 11 21 23 12
  21312524.348    -9647525.959 4  -7517546.376 2
  20444738.806    -3611378.284 4  -2814058.090 4
  22315533.975     7736093.871 3   6028124.254 1
  23722773.865     -546830.251 2   -426097.353 1
 91  7  9  6 32 45.0000000  0  4 11 21 23 12
  21309826.213    -9661707.428 4  -7528596.886 2
  20444368.861    -3613317.285 5  -2815569.013 3
  22321668.931     7768310.946 3   6053228.464 1
  23721613.068     -552972.838 2   -430883.778 1
 91  7  9  6 33  0.0000000  0  4 11 21 23 12
  21307158.965    -9675720.382 4  -7539516.009 2
  20444010.905    -3615186.694 5  -2817025.749 3
  22327805.684     7800557.988 3   6078356.002 2
  23720470.262     -558958.096 2   -435547.547 1
 91  7  9  6 33 15.0000000  0  4 11 21 23 12
  21304525.587    -9689564.660 4  -7550303.733 2
  20443668.846    -3616985.957 5  -2818427.685 3
  22333943.335     7832835.231 3   6103507.112 1
  23719361.327     -564785.786 2   -440088.549 1
 91  7  9  6 33 30.0000000  0  4 11 21 23 12
  21301918.891    -9703241.036 4  -7560960.662 2
  20443341.768    -3618716.317 5  -2819775.991 3
  22340093.272     7865141.568 3   6128680.889 2
  23718286.271     -570456.708 2   -444507.505 1
 91  7  9  6 33 45.0000000  0  4 11 21 23 12
  21299352.069    -9716747.112 4  -7571484.896 2
  20443023.092    -3620375.620 4  -2821068.938 4
  22346246.812     7897479.116 3   6153878.961 2
  23717232.199     -575968.438 2   -448802.313 1
 91  7  9  6 34  0.0000000  0  4 11 21 23 12
  21296814.921    -9730083.704 4  -7581877.053 2
  20442720.898    -3621964.881 4  -2822307.304 3
  22352408.152     7929846.830 3   6179100.562 2
  23716217.408     -581322.044 2   -452973.904 1
 91  7  9  6 34 15.0000000  0  4 11 21 23 12
  21294307.159    -9743251.774 4  -7592137.850 2
  20442433.702    -3623485.450 5  -2823492.157 3
  22358573.681     7962243.431 3   6204344.648 1
  23715225.991     -586518.454 2   -457023.023 1
 91  7  9  6 34 30.0000000  0  4 11 21 23 12
  21291835.074    -9756249.520 4  -7602265.978 2
  20442158.486    -3624935.542 5  -2824622.096 3
  22364739.811     7994670.653 3   6229612.628 2
  23714270.548     -591555.917 3   -460948.260 1
 91  7  9  6 34 45.0000000  0  4 11 21 23 12
  21289390.865    -9769076.548 4  -7612261.001 2
  20441895.572    -3626315.230 4  -2825697.239 3
  22370917.337     8027128.482 3   6254904.451 2
  23713338.497     -596434.092 2   -464749.375 1
 91  7  9  6 35  0.0000000  0  4 11 21 23 12
  21286982.028    -9781733.947 4  -7622123.875 2
  20441644.647    -3627625.175 4  -2826717.900 3
  22377102.052     8059615.673 3   6280219.153 1
  23712442.717     -601154.034 2   -468427.236 1
 91  7  9  6 35 15.0000000  0  4 11 21 23 12
  21284608.275    -9794221.610 4  -7631854.521 2
  20441407.210    -3628865.874 4  -2827684.729 3
  22383287.368     8092132.019 3   6305556.559 1
  23711573.617     -605715.663 2   -471981.703 1
 91  7  9  6 35 30.0000000  0  4 11 21 23 12
  21282264.196    -9806538.769 4  -7641452.301 2
  20441185.060    -3630036.650 4  -2828597.010 4
  22389484.386     8124678.058 3   6330917.111 2
  23710734.201     -610118.320 2   -475412.332 1
 91  7  9  6 35 45.0000000  0  4 11 21 23 12
  21279949.800    -9818684.863 4  -7650916.790 2
  20440975.204    -3631137.122 4  -2829454.484 3
  22395681.089     8157254.238 3   6356301.139 2
  23709930.452     -614361.469 3   -478718.676 1
 91  7  9  6 36  0.0000000  0  4 11 21 23 12
  21277672.573    -9830659.380 4  -7660247.580 2
  20440781.245    -3632167.057 4  -2830256.998 3
  22401887.093     8189860.794 3   6381708.845 2
  23709146.501     -618444.655 2   -481900.317 1
 91  7  9  6 36 15.0000000  0  4 11 21 23 12
  21275426.529    -9842463.505 4  -7669445.596 2
  20440599.265    -3633127.975 4  -2831005.756 3
  22408096.701     8222496.212 3   6407139.037 2
  23708403.916     -622369.256 2   -484958.411 1
 91  7  9  6 36 30.0000000  0  4 11 21 23 12
  21273211.966    -9854096.955 4  -7678510.588 2
  20440429.283    -3634019.914 4  -2831700.801 3
  22414308.996     8255160.518 3   6432591.735 2
  23707695.804     -626135.084 3   -487892.774 1
 91  7  9  6 36 45.0000000  0  4 11 21 23 12
  21271030.968    -9865555.964 4  -7687439.701 2
  20440272.196    -3634838.950 4  -2832339.011 3
  22420533.584     8287857.373 3   6458069.786 2
  23707007.480     -629738.334 3   -490700.459 1
 91  7  9  6 37  0.0000000  0  4 11 21 23 12
  21268884.757    -9876842.332 4  -7696234.257 2
  20440129.497    -3635586.991 4  -2832921.884 3
  22426760.878     8320584.755 3   6483571.655 1
  23706348.839     -633180.749 2   -493382.892 1
 91  7  9  6 37 15.0000000  0  4 11 21 23 12
  21266771.518    -9887957.702 4  -7704895.579 2
  20440000.880    -3636265.979 4  -2833450.948 3
  22432994.759     8353340.761 3   6509095.833 2
  23705718.075     -636463.920 2   -495941.132 1
 91  7  9  6 37 30.0000000  0  4 11 21 23 12
  21264689.166    -9898900.452 4  -7713422.328 3
  20439884.862    -3636874.793 4  -2833925.362 3
  22439235.244     8386126.506 3   6534643.133 1
  23705129.583     -639586.532 2   -498374.347 1
 91  7  9  6 37 45.0000000  0  4 11 21 23 12
  21262637.683    -9909671.894 4  -7721815.653 2
  20439783.834    -3637414.592 4  -2834345.991 3
  22445477.519     8418940.919 3   6560212.820 2
  23704565.671     -642549.677 3   -500683.268 1
 91  7  9  6 38  0.0000000  0  4 11 21 23 12
  21260622.776    -9920272.215 4  -7730075.655 2
  20439689.995    -3637885.849 4  -2834713.242 4
  22451729.094     8451783.477 3   6585804.421 2
  23704033.841     -645353.692 3   -502868.183 1
 91  7  9  6 38 15.0000000  0  4 11 21 23 12
  21258634.254    -9930701.514 4  -7738202.384 2
  20439616.844    -3638288.643 5  -2835027.071 3
  22457985.163     8484653.897 3   6611417.736 1
  23703522.095     -647998.789 2   -504929.261 1
 91  7  9  6 38 30.0000000  0  4 11 21 23 12
  21256684.402    -9940957.525 4  -7746194.053 2
  20439549.992    -3638621.063 4  -2835286.092 3
  22464244.530     8517554.114 3   6637054.276 1
  23703054.116     -650482.866 2   -506864.894 1
 91  7  9  6 38 45.0000000  0  4 11 21 23 12
  21254766.335    -9951038.627 4  -7754049.409 2
  20439501.428    -3638881.734 5  -2835489.195 3
  22470508.094     8550485.348 3   6662714.957 1
  23702611.622     -652804.263 2   -508673.758 1
 91  7  9  6 39  0.0000000  0  4 11 21 23 12
  21252881.537    -9960947.142 4  -7761770.342 2
  20439467.854    -3639073.109 5  -2835638.331 3
  22476782.450     8583445.314 3   6688398.039 1
  23702200.311     -654965.201 3   -510357.540 1
 91  7  9  6 39 15.0000000  0  4 11 21 23 12
  21251026.719    -9970684.724 4  -7769358.070 2
  20439444.165    -3639196.893 5  -2835734.817 3
  22483059.503     8616432.148 3   6714102.041 2
  23701821.973     -656967.355 3   -511917.659 1
 91  7  9  6 39 30.0000000  0  4 11 21 23 12
  21249208.476    -9980250.856 4  -7776812.182 2
  20439434.873    -3639252.646 5  -2835778.213 3
  22489339.252     8649446.098 3   6739827.188 2
  23701473.012     -658810.422 3   -513353.738 1
 91  7  9  6 39 45.0000000  0  4 11 21 23 12
  21247419.017    -9989643.709 4  -7784131.279 2
  20439433.076    -3639238.819 5  -2835767.420 3
  22495630.396     8682488.941 3   6765574.866 2
  23701154.930     -660492.583 2   -514664.464 1
 91  7  9  6 40  0.0000000  0  4 11 21 23 12
  21245667.931    -9998862.979 4  -7791315.140 2
  20439451.660    -3639155.368 5  -2835702.402 3
  22501920.344     8715560.877 3   6791345.195 2
  23700867.132     -662013.639 3   -515849.734 1
 91  7  9  6 40 15.0000000  0  4 11 21 23 12
  21243944.120   -10007909.617 4  -7798364.475 2
  20439475.942    -3639003.387 4  -2835583.970 4
  22508219.882     8748660.451 3   6817137.062 2
  23700603.014     -663374.333 2   -516909.908 1
 91  7  9  6 40 30.0000000  0  4 11 21 23 12
  21242257.496   -10016782.155 4  -7805278.118 2
  20439519.114    -3638781.602 5  -2835411.191 3
  22514521.225     8781789.062 3   6842951.564 1
  23700372.776     -664573.584 3   -517844.339 1
 91  7  9  6 40 45.0000000  0  4 11 21 23 12
  21240601.740   -10025480.493 4  -7812055.985 2
  20439578.174    -3638489.949 5  -2835183.924 3
  22520833.056     8814946.512 3   6868788.568 2
  23700173.713     -665611.220 2   -518652.918 1
 91  7  9  6 41  0.0000000  0  4 11 21 23 12
  21238975.363   -10034004.183 4  -7818697.800 2
  20439647.722    -3638128.141 5  -2834902.009 3
  22527147.583     8848133.052 3   6894648.237 1
  23700006.426     -666486.788 2   -519335.126 1
 91  7  9  6 41 15.0000000  0  5 11 21 23 12 15
  21237389.757   -10042355.033 4  -7825204.910 2
  20439728.674    -3637698.198 5  -2834567.026 3
  22533468.401     8881346.786 3   6920529.066 1
  23699871.222     -667202.345 2   -519892.654 1
  24654356.740           0.010 2         0.132 1
 91  7  9  6 41 30.0000000  0  5 11 21 23 12 15
  21235835.039   -10050531.437 4  -7831576.171 2
  20439821.605    -3637198.368 5  -2834177.500 3
  22539792.526     8914589.191 3   6946432.233 2
  23699768.990     -667756.094 2   -520324.109 1
  24644431.519      -52192.706 2    -40669.400 1
 91  7  9  6 41 45.0000000  0  5 11 21 23 12 15
  21234309.995   -10058533.431 4  -7837811.494 2
  20439933.129    -3636629.163 5  -2833733.972 3
  22546128.037     8947860.127 3   6972357.645 2
  23699687.445     -668148.328 2   -520629.715 1
  24634501.787     -104381.383 2    -81335.733 1
 91  7  9  6 42  0.0000000  0  5 11 21 23 12 15
  21232819.126   -10066361.903 4  -7843911.607 2
  20440051.250    -3635991.476 5  -2833237.089 3
  22552467.753     8981158.352 3   6998304.301 1
  23699647.571     -668379.912 2   -520810.161 1
  24624580.160     -156567.073 2   -121999.816 1
 91  7  9  6 42 15.0000000  0  5 11 21 23 12 15
  21231361.536   -10074015.647 4  -7849875.562 2
  20440186.157    -3635284.266 5  -2832686.012 3
  22558806.859     9014484.748 3   7024272.921 2
  23699637.084     -668449.775 3   -520864.590 1
  24614641.136     -208748.047 2   -162660.224 2
 91  7  9  6 42 30.0000000  0  5 11 21 23 12 15
  21229939.919   -10081495.018 4  -7855703.632 2
  20440336.046    -3634508.019 5  -2832081.134 3
  22565151.069     9047838.901 3   7050263.157 2
  23699651.471     -668358.205 3   -520793.141 1
  24604708.114     -260925.067 2   -203317.537 1
 91  7  9  6 42 45.0000000  0  5 11 21 23 12 15
  21228552.182   -10088799.906 4  -7861395.743 2
  20440495.838    -3633662.853 5  -2831422.581 3
  22571503.672     9081220.811 3   7076275.025 2
  23699699.137     -668105.087 3   -520595.891 1
  24594784.384     -313097.493 2   -243971.328 1
 91  7  9  6 43  0.0000000  0  5 11 21 23 12 15
  21227190.820   -10095930.359 4  -7866951.911 2
  20440672.416    -3632748.932 5  -2830710.402 3
  22577861.973     9114630.330 3   7102308.437 1
  23699776.790     -667690.590 2   -520272.840 1
  24584856.755     -365265.469 2   -284621.634 1
 91  7  9  6 43 15.0000000  0  5 11 21 23 12 15
  21225866.340   -10102886.262 4  -7872372.028 2
  20440857.685    -3631766.370 5  -2829944.780 3
  22584225.666     9148067.167 3   7128363.096 1
  23699891.307     -667114.655 3   -519824.057 1
  24574928.829     -417428.721 2   -325268.313 1
 91  7  9  6 43 30.0000000  0  5 11 21 23 12 15
  21224577.528   -10109667.332 4  -7877655.965 2
  20441058.250    -3630714.896 4  -2829125.452 3
  22590590.860     9181531.674 3   7154439.359 1
  23700034.312     -666376.940 3   -519249.209 1
  24565007.202     -469586.569 2   -365910.681 1
 91  7  9  6 43 45.0000000  0  5 11 21 23 12 15
  21223324.097   -10116271.715 4  -7882802.222 2
  20441274.100    -3629592.869 5  -2828251.153 4
  22596963.845     9215025.470 3   7180538.409 2
  23700201.293     -665475.756 3   -518546.947 1
  24555078.970     -521737.429 2   -406547.657 1
 91  7  9  6 44  0.0000000  0  5 11 21 23 12 15
  21222097.346   -10122700.146 4  -7887811.388 2
  20441499.845    -3628400.953 5  -2827322.379 3
  22603345.826     9248547.696 3   7206659.650 1
  23700401.255     -664411.599 2   -517717.671 1
  24545157.344     -573881.903 2   -447179.660 1
 91  7  9  6 44 15.0000000  0  5 11 21 23 12 15
  21220908.070   -10128953.256 4  -7892683.949 2
  20441738.782    -3627140.062 5  -2826339.856 3
  22609730.808     9282097.699 3   7232802.500 2
  23700632.392     -663185.353 3   -516762.342 2
  24535233.614     -626020.471 2   -487807.188 1
 91  7  9  6 44 30.0000000  0  5 11 21 23 12 15
  21219752.971   -10135031.622 4  -7897420.340 2
  20441994.201    -3625810.771 5  -2825304.040 3
  22616119.385     9315674.629 3   7258966.341 2
  23700904.004     -661797.599 3   -515680.748 1
  24525317.074     -678153.483 2   -528430.069 1
 91  7  9  6 44 45.0000000  0  5 11 21 23 12 15
  21218631.445   -10140934.644 4  -7902020.101 2
  20442255.919    -3624412.732 5  -2824214.653 3
  22622513.660     9349278.869 3   7285151.472 1
  23701196.008     -660247.903 3   -514473.125 1
  24515396.041     -730280.225 2   -569048.261 1
 91  7  9  6 45  0.0000000  0  5 11 21 23 12 15
  21217537.805   -10146660.673 4  -7906481.940 2
  20442534.425    -3622944.357 5  -2823070.497 3
  22628911.233     9382911.966 3   7311359.067 1
  23701521.280     -658534.756 2   -513138.219 1
  24505481.909     -782398.755 2   -609659.961 1
 91  7  9  6 45 15.0000000  0  5 11 21 23 12 15
  21216483.131   -10152209.837 4  -7910805.944 2
  20442827.326    -3621405.906 5  -2821871.689 3
  22635321.692     9416573.449 3   7337588.791 1
  23701875.031     -656658.215 2   -511675.940 1
  24495561.172     -834509.248 2   -650265.451 1
 91  7  9  6 45 30.0000000  0  5 11 21 23 12 15
  21215460.845   -10157582.724 4  -7914992.569 2
  20443131.911    -3619798.150 5  -2820618.866 3
  22641730.058     9450262.807 3   7363840.223 1
  23702266.264     -654618.858 3   -510086.802 1
  24485647.939     -886612.228 2   -690865.044 1
 91  7  9  6 45 45.0000000  0  5 11 21 23 12 15
  21214473.625   -10162780.200 4  -7919042.519 2
  20443455.089    -3618122.018 5  -2819312.797 3
  22648149.513     9483978.978 3   7390112.569 2
  23702675.175     -652417.664 2   -508371.533 1
  24475732.603     -938708.630 2   -731459.590 1
 91  7  9  6 46  0.0000000  0  5 11 21 23 12 15
  21213513.994   -10167800.966 4  -7922954.798 2
  20443785.762    -3616376.221 5  -2817952.464 4
  22654568.070     9517723.140 3   7416406.738 1
  23703136.262     -650053.152 2   -506529.049 1
  24465819.362     -990796.451 2   -772047.343 1
 91  7  9  6 46 15.0000000  0  5 11 21 23 12 15
  21212598.425   -10172646.118 4  -7926730.226 2
  20444128.423    -3614562.010 5  -2816538.782 3
  22660991.120     9551494.099 3   7442721.764 1
  23703615.332     -647526.679 2   -504560.368 1
  24455911.224    -1042876.899 2   -812629.606 1
 91  7  9  6 46 30.0000000  0  5 11 21 23 12 15
  21211708.036   -10177314.363 4  -7930367.831 2
  20444488.779    -3612678.313 5  -2815071.001 3
  22667427.065     9585292.924 3   7469058.533 1
  23704131.867     -644837.004 3   -502464.491 1
  24446003.383    -1094948.579 2   -853205.176 1
 91  7  9  6 46 45.0000000  0  5 11 21 23 12 15
  21210854.232   -10181806.590 4  -7933868.232 2
  20444861.420    -3610726.043 5  -2813549.746 3
  22673863.308     9619118.638 3   7495416.207 1
  23704667.903     -641985.051 2   -500242.110 1
  24436103.936    -1147012.346 2   -893774.195
 91  7  9  6 47  0.0000000  0  5 11 21 23 12 15
  21210028.601   -10186122.504 4  -7937231.260 2
  20445246.651    -3608704.997 5  -2811974.898 3
  22680303.153     9652971.479 3   7521795.048 2
  23705246.500     -638970.461 3   -497893.072 1
  24426188.905    -1199067.632 2   -934336.658 1
 91  7  9  6 47 15.0000000  0  5 11 21 23 12 15
  21209241.352   -10190261.271 4  -7940456.284 2
  20445643.879    -3606614.487 5  -2810345.952 3
  22686750.485     9686852.056 3   7548195.521 1
  23705847.581     -635792.495 2   -495416.695 1
  24416288.856    -1251113.544 2   -974891.713 1
 91  7  9  6 47 30.0000000  0  5 11 21 23 12 15
  21208485.269   -10194221.544 4  -7943542.199 2
  20446055.495    -3604453.121 5  -2808661.780 3
  22693209.221     9720761.511 3   7574618.461 1
  23706481.644     -632449.990 2   -492812.106 2
  24406382.210    -1303148.539 2  -1015438.342 1
 91  7  9  6 47 45.0000000  0  5 11 21 23 12 15
  21207768.466   -10198005.450 4  -7946490.683 2
  20446479.701    -3602223.107 5  -2806924.094 3
  22699663.149     9754697.530 3   7601062.089 2
  23707152.282     -628945.004 2   -490080.982 1
  24396482.466    -1355174.405 2  -1055977.868 1
 91  7  9  6 48  0.0000000  0  5 11 21 23 12 15
  21207081.041   -10201612.868 4  -7949301.616 2
  20446917.396    -3599924.596 5  -2805133.042 3
  22706125.479     9788660.191 3   7627526.514 2
  23707847.795     -625277.590 3   -487223.197 1
  24386581.221    -1407191.175 2  -1096510.255 1
 91  7  9  6 48 15.0000000  0  5 11 21 23 12 15
  21206430.192   -10205043.376 4  -7951974.741 2
  20447366.486    -3597557.141 5  -2803288.266 3
  22712594.397     9822649.832 3   7654011.953 1
  23708578.689     -621447.325 2   -484238.564 1
  24376685.970    -1459198.190 2  -1137035.136 1
 91  7  9  6 48 30.0000000  0  5 11 21 23 12 15
  21205812.620   -10208296.938 4  -7954510.029 2
  20447829.658    -3595120.722 5  -2801389.771 3
  22719072.913     9856666.510 3   7680518.468 2
  23709335.068     -617454.052 2   -481126.922 1
  24366792.220    -1511195.197 2  -1177552.120 1
 91  7  9  6 48 45.0000000  0  5 11 21 23 12 15
  21205225.629   -10211374.076 4  -7956907.778 2
  20448307.236    -3592616.163 5  -2799438.194 3
  22725544.230     9890709.373 3   7707045.368 1
  23710129.219     -613298.448 3   -477888.752 2
  24356898.470    -1563182.653 2  -1218061.727 1
 91  7  9  6 49  0.0000000  0  5 11 21 23 12 15
  21204674.909   -10214273.660 4  -7959167.150 2
  20448795.894    -3590042.325 5  -2797432.597 3
  22732029.944     9924779.346 3   7733593.403 1
  23710953.349     -608979.461 3   -474523.235 1
  24347001.422    -1615159.234 2  -1258562.802 1
 91  7  9  6 49 15.0000000  0  5 11 21 23 12 15
  21204155.067   -10216995.452 4  -7961288.028 2
  20449302.544    -3587398.876 5  -2795372.737 3
  22738516.251     9958876.951 3   7760162.963 1
  23711804.457     -604496.807 2   -471030.225 1
  24337117.261    -1667124.343 2  -1299054.973 1
 91  7  9  6 49 30.0000000  0  5 11 21 23 12 15
  21203673.302   -10219538.912 4  -7963269.939 2
  20449816.086    -3584685.514 5  -2793258.410 3
  22745014.555     9993002.517 3   7786754.310 1
  23712693.642     -599850.038 3   -467409.329 1
  24327231.608    -1719077.100 2  -1339537.466 1
 91  7  9  6 49 45.0000000  0  5 11 21 23 12 15
  21203221.515   -10221904.753 4  -7965113.437 2
  20450347.323    -3581903.084 5  -2791090.298 4
  22751511.053    10027155.183 3   7813366.773 1
  23713607.414     -595039.856 3   -463661.074 1
  24317345.650    -1771018.035 2  -1380010.736 1
 91  7  9  6 50  0.0000000  0  5 11 21 23 12 15
  21202807.204   -10224091.731 4  -7966817.569 2
  20450888.140    -3579050.376 5  -2788867.400 3
  22758015.351    10061336.105 3   7840001.271 1
  23714553.853     -590065.178 3   -459784.633 1
  24307469.586    -1822946.299 2  -1420474.248 1
 91  7  9  6 50 15.0000000  0  5 11 21 23 12 15
  21202424.067   -10226101.743 4  -7968383.804 2
  20451446.661    -3576129.294 5  -2786591.243 4
  22764523.253    10095543.037 3   7866656.024 1
  23715528.186     -584927.906 2   -455781.504 1
  24297585.128    -1874863.183 2  -1460928.888 1
 91  7  9  6 50 30.0000000  0  5 11 21 23 12 15
  21202072.410   -10227934.949 4  -7969812.266 2
  20452013.863    -3573140.008 5  -2784261.931 4
  22771037.140    10129775.720 3   7893330.826 2
  23716532.489     -579628.373 2   -451651.923 1
  24287711.167    -1926768.785 2  -1501374.697 1
 91  7  9  6 50 45.0000000  0  5 11 21 23 12 15
  21201759.432   -10229589.812 4  -7971101.764 2
  20452593.960    -3570081.118 5  -2781878.398 3
  22777554.630    10164035.811 3   7920027.003 1
  23717579.965     -574164.888 3   -447394.625 1
  24277831.508    -1978661.328 2  -1541810.410 1
 91  7  9  6 51  0.0000000  0  5 11 21 23 12 15
  21201480.324   -10231066.013 4  -7972252.049 2
  20453190.548    -3566952.437 5  -2779440.457 4
  22784078.412    10198323.539 3   7946744.720 1
  23718645.423     -568537.259 2   -443009.428 1
  24267966.838    -2030540.488 2  -1582235.709 1
 91  7  9  6 51 15.0000000  0  5 11 21 23 12 15
  21201233.290   -10232363.031 4  -7973262.695 2
  20453798.226    -3563753.590 5  -2776947.873 3
  22790611.189    10232639.295 3   7973484.280 1
  23719752.857     -562744.833 3   -438495.775 1
  24258097.973    -2082405.529 2  -1622649.942 1
 91  7  9  6 51 30.0000000  0  5 11 21 23 12 15
  21201016.244   -10233484.664 4  -7974136.699 2
  20454420.300    -3560488.400 5  -2774403.573 3
  22797146.365    10266979.380 3   8000242.772 1
  23720876.180     -556791.695 2   -433856.960 1
  24248220.704    -2134260.083 2  -1663056.085 1
 91  7  9  6 51 45.0000000  0  5 11 21 23 12 15
  21200835.765   -10234428.345 4  -7974872.023 2
  20455057.957    -3557154.131 5  -2771805.406 4
  22803686.340    10301346.000 3   8027021.961 1
  23722050.763     -550675.189 3   -429090.832 1
  24238356.332    -2186101.225 2  -1703451.725 1
 91  7  9  6 52  0.0000000  0  5 11 21 23 12 15
  21200695.762   -10235193.393 4  -7975468.158 2
  20455703.711    -3553750.280 5  -2769153.056 3
  22810232.606    10335739.876 3   8053822.378 1
  23723243.939     -544394.777 2   -424196.903 1
  24228499.158    -2237928.031 2  -1743836.250 1
 91  7  9  6 52 15.0000000  0  5 11 21 23 12 15
  21200578.846   -10235780.824 4  -7975925.898 2
  20456364.150    -3550277.998 5  -2766447.381 3
  22816779.169    10370159.740 3   8080643.038 1
  23724463.500     -537951.512 3   -419176.167 1
  24218641.085    -2289741.343 2  -1784210.233 1
 91  7  9  6 52 30.0000000  0  5 11 21 23 12 15
  21200503.295   -10236190.350 4  -7976245.006 2
  20457036.288    -3546736.924 5  -2763688.111 3
  22823337.135    10404605.890 3   8107484.204 1
  23725718.729     -531345.198 3   -414028.332 1
  24208782.113    -2341540.484 2  -1824573.165 2
 91  7  9  6 52 45.0000000  0  5 11 21 23 12 15
  21200457.427   -10236420.276 4  -7976424.161 2
  20457726.113    -3543125.551 5  -2760874.062 3
  22829892.693    10439079.893 3   8134347.033 2
  23727015.629     -524574.161 3   -408752.237 1
  24198923.438    -2393324.002 2  -1864923.903 1
 91  7  9  6 53  0.0000000  0  5 11 21 23 12 15
  21200447.533   -10236472.806 4  -7976465.095 2
  20458421.932    -3539446.067 5  -2758006.936 3
  22836463.843    10473579.558 3   8161229.905 1
  23728332.614     -517640.629 3   -403349.406 1
  24189075.250    -2445093.681 2  -1905263.960 1
 91  7  9  6 53 15.0000000  0  5 11 21 23 12 15
  21200472.120   -10236348.447 4  -7976368.158 2
  20459139.031    -3535699.030 5  -2755087.165 3
  22843035.298    10508104.486 3   8188132.448 2
  23729682.284     -510545.168 2   -397820.433 1
  24179224.969    -2496849.831 2  -1945593.406 1
 91  7  9  6 53 30.0000000  0  5 11 21 23 12 15
  21200531.477   -10236045.097 4  -7976131.766 2
  20459863.930    -3531882.408 5  -2752113.172 3
  22849605.244    10542656.463 3   8215056.060 1
  23731062.230     -503285.671 3   -392163.707 1
  24169378.291    -2548590.029 2  -1985910.502 1
 91  7  9  6 53 45.0000000  0  5 11 21 23 12 15
  21200623.510   -10235563.525 4  -7975756.523 2
  20460605.914    -3527996.962 5  -2749085.556 4
  22856187.493    10577234.655 3   8242000.097 1
  23732472.748     -495863.031 3   -386379.798 1
  24159539.396    -2600314.895 2  -2026215.607 1
 91  7  9  6 54  0.0000000  0  5 11 21 23 12 15
  21200748.523   -10234902.215 4  -7975241.207 2
  20461353.603    -3524041.055 5  -2746003.031 3
  22862773.030    10611840.547 3   8268965.738 1
  23733918.054     -488275.689 3   -380467.560 1
  24149694.812    -2652022.627 2  -2066507.382 1
 91  7  9  6 54 15.0000000  0  5 11 21 23 12 15
  21200908.620   -10234062.502 4  -7974586.889 2
  20462123.463    -3520016.237 5  -2742866.807 3
  22869361.273    10646472.837 3   8295951.922 2
  23735389.133     -480524.880 3   -374427.917 1
  24139852.627    -2703714.142 2  -2106786.496 1
 91  7  9  6 54 30.0000000  0  5 11 21 23 12 15
  21201101.680   -10233045.747 4  -7973794.604 2
  20462901.429    -3515923.852 5  -2739677.925 4
  22875960.605    10681130.091 3   8322957.606 1
  23736903.681     -472612.075 3   -368262.064 1
  24130025.127    -2755390.821 2  -2147054.026 1
 91  7  9  6 54 45.0000000  0  5 11 21 23 12 15
  21201331.325   -10231849.616 4  -7972862.549 2
  20463693.782    -3511761.698 5  -2736434.698 4
  22882559.937    10715814.438 3   8349984.358 2
  23738438.323     -464535.207 3   -361968.421 1
  24120189.242    -2807050.038 2  -2187307.876 1
 91  7  9  6 55  0.0000000  0  5 11 21 23 12 15
  21201597.537   -10230473.815 4  -7971790.502 2
  20464496.623    -3507529.424 5  -2733136.812 4
  22889158.964    10750526.127 3   8377032.414 1
  23740007.133     -456293.796 3   -355546.494 1
  24110369.839    -2858691.497 2  -2227548.064 1
 91  7  9  6 55 15.0000000  0  5 11 21 23 12 15
  21201885.640   -10228919.475 4  -7970579.324 2
  20465317.455    -3503228.053 5  -2729785.093 3
  22895774.786    10785264.153 3   8404100.974 1
  23741606.524     -447888.986 3   -348997.240 1
  24100544.738    -2910315.649 2  -2267774.470 1
 91  7  9  6 55 30.0000000  0  5 11 21 23 12 15
  21202216.313   -10227186.999 4  -7969229.334 2
  20466151.174    -3498858.211 5  -2726380.016 3
  22902391.202    10820027.935 3   8431189.660 1
  23743238.302     -439321.423 3   -342321.240 1
  24090721.740    -2961922.743 2  -2307987.789 1
 91  7  9  6 55 45.0000000  0  5 11 21 23 12 15
  21202579.958   -10225277.658 4  -7967741.547 2
  20466991.498    -3494420.988 5  -2722922.438 3
  22909009.424    10854816.354 3   8458297.523 1
  23744897.652     -430592.079 3   -335519.104 1
  24080903.837    -3013513.849 2  -2348188.540 1
 91  7  9  6 56  0.0000000  0  5 11 21 23 12 15
  21202974.787   -10223189.061 4  -7966114.060 2
  20467849.499    -3489914.214 4  -2719410.675 4
  22915635.132    10889631.570 3   8485426.250 1
  23746587.584     -421698.846 3   -328589.201 1
  24071093.430    -3065086.448 2  -2388374.952 1
 91  7  9  6 56 15.0000000  0  5 11 21 23 12 15
  21203409.184   -10220922.685 4  -7964348.037 2
  20468718.598    -3485339.276 4  -2715845.779 4
  22922261.747    10924472.204 3   8512574.755 1
  23748311.683     -412643.192 2   -321532.784 1
  24061279.122    -3116641.496 2  -2428547.588 1
 91  7  9  6 56 30.0000000  0  5 11 21 23 12 15
  21203873.866   -10218479.055 4  -7962443.903 2
  20469605.087    -3480696.809 4  -2712228.267 3
  22928900.953    10959337.559 3   8539742.578 1
  23750068.466     -403425.749 3   -314350.305 1
  24051481.906    -3168179.543 2  -2468706.980 1
 91  7  9  6 56 45.0000000  0  5 11 21 23 12 15
  21204376.013   -10215857.234 4  -7960400.902 2
  20470497.866    -3475985.913 4  -2708557.451 3
  22935543.152    10994228.507 3   8566930.328 1
  23751846.835     -394045.663 3   -307041.174 1
  24041672.999    -3219699.428 2  -2508852.298 1
 91  7  9  6 57  0.0000000  0  5 11 21 23 12 15
  21204903.350   -10213057.082 4  -7958218.976 2
  20471410.434    -3471206.260 5  -2704833.049 4
  22942185.054    11029145.187 3   8594138.088 1
  23753667.774     -384502.713 3   -299605.062 1
  24031872.477    -3271200.715 2  -2548983.131 1
 91  7  9  6 57 15.0000000  0  5 11 21 23 12 15
  21205469.662   -10210078.610 4  -7955898.076 2
  20472333.498    -3466358.034 4  -2701055.214 4
  22948830.559    11064087.504 3   8621365.848 1
  23755512.402     -374796.925 3   -292042.099 1
  24022071.065    -3322683.149 2  -2589099.163 1
 91  7  9  6 57 30.0000000  0  5 11 21 23 12 15
  21206067.742   -10206921.180 4  -7953437.736 2
  20473270.653    -3461440.638 5  -2697223.479 3
  22955487.451    11099056.101 3   8648614.122 1
  23757394.198     -364927.883 3   -284351.908 1
  24012284.337    -3374145.750 2  -2629199.877 1
 91  7  9  6 57 45.0000000  0  5 11 21 23 12 15
  21206709.605   -10203585.201 4  -7950838.270 2
  20474219.492    -3456454.344 5  -2693338.068 3
  22962145.834    11134050.713 3   8675882.653 1
  23759302.676     -354895.886 3   -276534.752 1
  24002494.320    -3425588.514 2  -2669285.062 1
 91  7  9  6 58  0.0000000  0  5 11 21 23 12 15
  21207376.639   -10200071.035 4  -7948099.944 2
  20475181.827    -3451399.662 5  -2689399.336 3
  22968809.627    11169070.815 3   8703171.044 1
  23761238.141     -344701.336 3   -268590.884 1
  23992712.391    -3477011.664 2  -2709354.965 1
 91  7  9  6 58 15.0000000  0  5 11 21 23 12 15
  21208076.655   -10196377.854 4  -7945222.130 2
  20476157.949    -3446275.653 5  -2685406.630 3
  22975480.008    11204117.102 3   8730479.834 1
  23763211.071     -334343.512 3   -260519.851 1
  23982920.568    -3528414.285 2  -2749408.913 1
 91  7  9  6 58 30.0000000  0  5 11 21 23 12 15
  21208812.940   -10192504.460 4  -7942203.905 2
  20477143.668    -3441081.080 4  -2681358.920 3
  22982153.085    11239190.798 3   8757810.016 1
  23765213.684     -323821.206 3   -252320.571 1
  23973150.933    -3579794.711 2  -2789445.502 1
 91  7  9  6 58 45.0000000  0  5 11 21 23 12 15
  21209588.507   -10188451.243 4  -7939045.552 2
  20478147.073    -3435816.198 4  -2677256.407 3
  22988834.258    11274291.736 3   8785161.388 1
  23767248.973     -313134.662 3   -243993.362 1
  23963373.803    -3631153.018 2  -2829464.910 1
 91  7  9  6 59  0.0000000  0  5 11 21 23 12 15
  21210395.553   -10184221.057 4  -7935749.303 2
  20479156.472    -3430484.100 4  -2673101.555 3
  22995515.432    11309416.931 3   8812531.667 1
  23769313.046     -302286.938 3   -235540.576 1
  23953602.667    -3682491.944 2  -2869469.183 1
 91  7  9  6 59 15.0000000  0  5 11 21 23 12 15
  21211228.975   -10179811.200 4  -7932313.044 2
  20480188.365    -3425082.042 4  -2668892.151 3
  23002205.008    11344568.896 3   8839922.785 1
  23771410.091     -291275.378 3   -226960.092 1
  23943841.120    -3733808.430 2  -2909455.950 1
 91  7  9  6 59 30.0000000  0  5 11 21 23 12 15
  21212105.866   -10175222.070 4  -7928737.108 2
  20481225.946    -3419610.496 4  -2664628.627 3
  23008899.670    11379747.352 3   8867334.534 1
  23773533.529     -280100.418 3   -218252.354 1
  23934083.481    -3785102.667 2  -2949425.373 1
 91  7  9  6 59 45.0000000  0  5 11 21 23 12 15
  21213012.737   -10170454.230 4  -7925021.903 2
  20482283.010    -3414069.825 4  -2660311.236 3
  23015599.734    11414951.859 3   8894766.607 1
  23775696.231     -268762.551 3   -209417.624 1
  23924321.638    -3836374.822 2  -2989377.616 1
 91  7  9  7  0  0.0000000  0  5 11 21 23 12 15
  21213954.987   -10165508.279 4  -7921167.925 2
  20483350.571    -3408460.694 4  -2655940.475 3
  23022297.991    11450181.472 3   8922218.272 1
  23777882.019     -257262.560 3   -200456.557 1
  23914569.391    -3887625.326 2  -3029313.032 1
 91  7  9  7  0 15.0000000  0  5 11 21 23 12 15
  21214924.216   -10160385.131 4  -7917175.853 2
  20484432.519    -3402783.908 4  -2651517.009 3
  23029012.442    11485435.462 3   8949688.886 1
  23780101.381     -245601.393 3   -191369.881 1
  23904816.238    -3938854.508 2  -3069231.779 1
 91  7  9  7  0 30.0000000  0  5 11 21 23 12 15
  21215938.711   -10155084.247 4  -7913045.302 2
  20485524.065    -3397039.067 4  -2647040.515 3
  23035727.801    11520714.495 3   8977179.041 1
  23782346.221     -233778.521 2   -182157.234 1
  23895076.285    -3990061.842 2  -3109133.513 1
 91  7  9  7  0 45.0000000  0  5 11 21 23 12 15
  21216981.387   -10149603.662 4  -7908774.720 2
  20486627.600    -3391224.113 4  -2642509.421 4
  23042444.346    11556020.464 3   9004690.153 1
  23784625.848     -221792.057 3   -172817.095 1
  23885339.326    -4041244.932 2  -3149016.414 1
 91  7  9  7  1  0.0000000  0  5 11 21 23 12 15
  21218057.944   -10143944.702 4  -7904365.150 2
  20487749.727    -3385340.320 4  -2637924.611 3
  23049168.988    11591351.923 3   9032221.179 1
  23786942.347     -209643.313 3   -163350.530 1
  23875603.867    -4092404.710 2  -3188881.069 1
 91  7  9  7  1 15.0000000  0  5 11 21 23 12 15
  21219165.675   -10138107.773 4  -7899816.880 2
  20488885.344    -3379387.945 4  -2633286.398 3
  23055893.037    11626708.405 3   9059771.640 2
  23789283.424     -197332.602 3   -153757.694 1
  23865872.002    -4143541.295 2  -3228727.680 1
 91  7  9  7  1 30.0000000  0  5 11 21 23 12 15
  21220309.083   -10132094.360 4  -7895131.107 2
  20490030.549    -3373368.643 4  -2628596.039 4
  23062625.479    11662088.526 3   9087340.560 1
  23791660.772     -184861.699 3   -144040.123 1
  23856144.631    -4194656.007 2  -3268557.248 1
 91  7  9  7  1 45.0000000  0  5 11 21 23 12 15
  21221491.466   -10125902.423 4  -7890306.227 2
  20491185.344    -3367280.328 4  -2623851.899 3
  23069364.815    11697494.334 3   9114929.498 1
  23794059.113     -172228.445 3   -134195.956 1
  23846419.669    -4245746.488 2  -3308367.941 1
 91  7  9  7  2  0.0000000  0  5 11 21 23 12 15
  21222707.423   -10119534.367 4  -7885344.125 2
  20492358.138    -3361125.336 5  -2619055.788 4
  23076106.540    11732923.486 3   9142536.597 1
  23796492.528     -159435.421 2   -124227.395 1
  23836700.997    -4296814.836 2  -3348161.413 1
 91  7  9  7  2 15.0000000  0  5 11 21 23 12 15
  21223948.265   -10112986.720 4  -7880242.051 2
  20493543.217    -3354900.184 5  -2614205.032 3
  23082849.776    11768379.458 3   9170164.608 1
  23798961.324     -146479.072 3   -114131.554 1
  23826988.921    -4347857.220 2  -3387934.645 1
 91  7  9  7  2 30.0000000  0  5 11 21 23 12 15
  21225225.080   -10106262.841 4  -7875002.688 2
  20494742.981    -3348608.252 5  -2609302.235 3
  23089604.101    11803858.916 3   9197810.927 1
  23801451.095     -133362.815 2   -103911.100 1
  23817281.042    -4398876.659 2  -3427689.998 1
 91  7  9  7  2 45.0000000  0  5 11 21 23 12 15
  21226540.870   -10099362.479 4  -7869625.761 2
  20495951.452    -3342249.089 5  -2604347.061 3
  23096361.122    11839362.168 3   9225475.826 1
  23803989.744     -120086.434 3    -93565.825 1
  23807576.461    -4449872.642 2  -3467426.946 1
 91  7  9  7  3  0.0000000  0  5 11 21 23 12 15
  21227886.343   -10092284.723 4  -7864110.618 2
  20497172.199    -3335821.610 4  -2599338.634 3
  23103126.239    11874890.147 3   9253159.928 1
  23806543.077     -106648.898 2    -83094.946 1
  23797876.670    -4500843.936 2  -3507144.887 1
 91  7  9  7  3 15.0000000  0  5 11 21 23 12 15
  21229269.281   -10085030.128 4  -7858457.692 2
  20498411.243    -3329326.586 4  -2594277.583 3
  23109884.761    11910442.207 3   9280862.842 1
  23809133.579      -93050.930 3    -72499.085 1
  23788185.884    -4551790.778 3  -3546843.662 1
 91  7  9  7  3 30.0000000  0  5 11 21 23 12 15
  21230684.904   -10077597.838 4  -7852666.306 2
  20499657.782    -3322763.024 4  -2589163.132 3
  23116655.873    11946019.357 3   9308585.262 1
  23811743.277      -79291.636 2    -61777.480 1
  23778496.886    -4602711.856 3  -3586522.396 1
 91  7  9  7  3 45.0000000  0  5 11 21 23 12 15
  21232133.795   -10069988.481 4  -7846736.946 2
  20500920.506    -3316131.397 4  -2583995.634 3
  23123431.182    11981621.056 3   9336326.829 1
  23814393.441      -65371.716 2    -50930.763 1
  23768807.897    -4653607.597 3  -3626181.317 1
 91  7  9  7  4  0.0000000  0  5 11 21 23 12 15
  21233613.277   -10062202.024 4  -7840669.565 2
  20502196.728    -3309431.629 4  -2578775.033 3
  23130213.689    12017247.174 3   9364087.430 1
  23817074.484      -51291.185 2    -39958.933 1
  23759129.998    -4704477.300 3  -3665820.023 1
 91  7  9  7  4 15.0000000  0  5 11 21 23 12 15
  21235128.131   -10054239.907 4  -7834465.331 2
  20503485.531    -3302665.016 5  -2573502.352 3
  23136993.194    12052896.419 3   9391866.050 1
  23819788.804      -37051.374 2    -28862.948 1
  23749449.995    -4755322.171 2  -3705439.283 1
 91  7  9  7  4 30.0000000  0  5 11 21 23 12 15
  21236680.755   -10046100.051 4  -7828122.576 2
  20504782.431    -3295829.713 4  -2568176.139 3
  23143782.891    12088570.873 3   9419664.356 1
  23822526.804      -22650.334 2    -17641.344 1
  23739779.896    -4806140.048 3  -3745037.546 1
 91  7  9  7  4 45.0000000  0  5 11 21 23 12 15
  21238258.263   -10037781.703 4  -7821640.752 2
  20506096.424    -3288924.838 4  -2562795.733 3
  23150580.091    12124271.338 3   9447482.868 1
  23825297.786       -8087.470 3     -6293.629 1
  23730113.383    -4856929.804 2  -3784613.927 1
 91  7  9  7  5  0.0000000  0  5 11 21 23 12 15
  21239877.443   -10029287.304 4  -7815021.730 2
  20507423.906    -3281952.671 5  -2557362.865 3
  23157376.384    12159995.559 3   9475319.938 2
  23828096.050        6634.928 2      5178.436 1
  23720451.974    -4907693.382 2  -3824169.843 1
 91  7  9  7  5 15.0000000  0  5 11 21 23 12 15
  21241529.891   -10020614.711 4  -7808263.878 2
  20508763.079    -3274911.103 5  -2551875.942 4
  23164178.976    12195745.621 3   9503177.109 1
  23830926.397       21518.816 2     16776.289 1
  23710797.458    -4958428.307 2  -3863703.472 1
 91  7  9  7  5 30.0000000  0  5 11 21 23 12 15
  21243210.530   -10011766.441 4  -7801369.119 2
  20510117.844    -3267802.368 5  -2546336.690 4
  23170990.555    12231519.086 3   9531052.516 2
  23833790.309       36561.757 2     28498.038 1
  23701148.936    -5009136.662 2  -3903216.390 1
 91  7  9  7  5 45.0000000  0  5 11 21 23 12 15
  21244925.643   -10002741.627 4  -7794336.786 2
  20511485.496    -3260625.789 5  -2540744.550 3
  23177795.250    12267316.894 3   9558946.908 1
  23836685.108       51764.510 2     40344.340 1
  23691507.612    -5059817.244 2  -3942707.674 1
 91  7  9  7  6  0.0000000  0  5 11 21 23 12 15
  21246678.534    -9993541.678 4  -7787167.994 2
  20512859.439    -3253382.534 5  -2535100.446 3
  23184609.525    12303137.516 3   9586859.099 1
  23839612.278       67125.806 2     52314.175 1
  23681865.084    -5110471.196 2  -3982178.218 1
 91  7  9  7  6 15.0000000  0  5 11 21 23 12 15
  21248461.100    -9984165.122 4  -7779861.586 2
  20514250.780    -3246071.069 5  -2529403.206 4
  23191436.705    12338982.597 3   9614790.329 1
  23842563.441       82646.918 2     64408.575 1
  23672231.255    -5161096.780 2  -4021626.708 1
 91  7  9  7  6 30.0000000  0  5 11 21 23 12 15
  21250275.138    -9974611.216 4  -7772416.990 2
  20515657.407    -3238690.629 5  -2523652.211 3
  23198266.877    12374852.978 3   9642741.223 1
  23845537.979       98328.668 2     76628.131 1
  23662610.618    -5211692.906 2  -4061052.230 1
 91  7  9  7  6 45.0000000  0  5 11 21 23 12 15
  21252132.652    -9964880.100 4  -7764834.293 2
  20517073.623    -3231241.288 5  -2517847.534 3
  23205092.250    12410748.475 2   9670711.759 1
  23848559.284      114170.730 2     88972.539 1
  23652986.378    -5262259.153 2  -4100454.475 1
 91  7  9  7  7  0.0000000  0  5 11 21 23 12 15
  21254016.552    -9954973.136 4  -7757114.599 2
  20518507.237    -3223724.153 5  -2511990.042 3
  23211930.511    12446667.834 3   9698700.864 1
  23851599.783      130171.895 2    101440.928 1
  23643364.538    -5312796.397 2  -4139834.090 1
 91  7  9  7  7 15.0000000  0  5 11 21 23 12 15
  21255936.721    -9944890.277 4  -7749257.817 2
  20519947.133    -3216139.279 5  -2506079.735 4
  23218770.577    12482611.327 3   9726708.751 1
  23854678.054      146332.199 2    114033.379 1
  23633753.193    -5363304.275 2  -4179190.834 1
 91  7  9  7  7 30.0000000  0  5 11 21 23 12 15
  21257886.268    -9934631.203 4  -7741263.749 2
  20521400.527    -3208486.291 4  -2500116.371 3
  23225607.346    12518579.158 3   9754735.633 1
  23857780.598      162651.919 2    126750.110 1
  23624151.141    -5413782.110 2  -4218524.162 1
 91  7  9  7  7 45.0000000  0  5 11 21 23 12 15
  21259870.899    -9924195.812 4  -7733132.258 2
  20522877.906    -3200764.851 5  -2494099.660 3
  23232463.301    12554571.470 3   9782781.576 1
  23860916.428      179131.020 2    139591.001 1
  23614549.988    -5464229.726 2  -4257833.998 1
 91  7  9  7  8  0.0000000  0  5 11 21 23 12 15
  21261892.402    -9913583.519 4  -7724862.947 2
  20524356.785    -3192974.302 5  -2488029.097 3
  23239318.357    12590589.005 3   9810847.181 1
  23864093.328      195770.147 2    152556.560 1
  23604950.030    -5514646.086 2  -4297119.431 1
 91  7  9  7  8 15.0000000  0  5 11 21 23 12 15
  21263943.282    -9902795.055 4  -7716456.353 2
  20525854.843    -3185115.377 5  -2481905.258 3
  23246171.607    12626630.919 3   9838931.777 1
  23867289.422      212568.463 2    165646.212 1
  23595370.768    -5565031.348 3  -4336380.623 1
 91  7  9  7  8 30.0000000  0  5 11 21 23 12 15
  21266032.536    -9891830.830 4  -7707912.804 2
  20527362.201    -3177188.378 5  -2475728.391 3
  23253036.854    12662697.166 3   9867035.318 1
  23870513.987      229525.630 2    178859.625 1
  23585787.003    -5615385.653 3  -4375617.702 1
 91  7  9  7  8 45.0000000  0  5 11 21 23 12 15
  21268152.362    -9880689.400 4  -7699231.178 2
  20528885.152    -3169191.705 5  -2469497.218 3
  23259907.503    12698789.084 3   9895158.919 1
  23873764.640      246642.955 2    192197.732 1
  23576209.530    -5665707.104 3  -4414829.202 1
 91  7  9  7  9  0.0000000  0  5 11 21 23 12 15
  21270304.271    -9869372.254 4  -7690412.625 2
  20530416.190    -3161126.724 5  -2463212.817 3
  23266779.041    12734905.205 3   9923301.323 1
  23877058.752      263918.984 2    205659.665 1
  23566637.161    -5715996.782 3  -4454015.953 1
 91  7  9  7  9 15.0000000  0  5 11 21 23 12 15
  21272490.957    -9857880.215 4  -7681457.786 2
  20531965.220    -3152994.095 5  -2456875.702 3
  23273652.987    12771044.993 3   9951462.221 1
  23880374.765      281352.858 2    219244.437 1
  23557081.570    -5766255.056 3  -4493178.246 1
 91  7  9  7  9 30.0000000  0  5 11 21 23 12 15
  21274716.017    -9846210.678 4  -7672364.661 2
  20533524.737    -3144791.117 5  -2450483.767 3
  23280538.921    12807210.864 3   9979643.385 1
  23883721.045      298947.169 2    232954.267 1
  23547517.297    -5816479.070 3  -4532313.768 1
 91  7  9  7  9 45.0000000  0  5 11 21 23 12 15
  21276968.361    -9834366.267 4  -7663135.253 2
  20535099.846    -3136520.432 5  -2444039.077 3
  23287426.653    12843400.627 3  10007843.183 1
  23887098.203      316699.273 2    246787.131 1
  23537965.903    -5866670.970 3  -4571424.336 1
 91  7  9  7 10  0.0000000  0  5 11 21 23 12 15
  21279256.381    -9822345.449 4  -7653768.377 2
  20536686.647    -3128180.393 5  -2437540.335 3
  23294317.683    12879615.757 3  10036062.750 1
  23890511.945      334610.749 2    260744.199 1
  23528428.007    -5916828.832 3  -4610508.338 1
 91  7  9  7 10 15.0000000  0  5 11 21 23 12 15
  21281578.272    -9810147.727 4  -7644263.668 2
  20538286.038    -3119770.449 5  -2430987.136 3
  23301211.103    12915856.757 3  10064302.511 1
  23893949.961      352681.996 2    274825.683 1
  23518886.516    -5966951.641 3  -4649564.998 1
 91  7  9  7 10 30.0000000  0  5 11 21 23 12 15
  21283930.142    -9797774.999 4  -7634622.605 2
  20539899.520    -3111292.275 5  -2424380.769 3
  23308114.427    12952121.881 3  10092561.018 1
  23897419.762      370911.212 2    289030.249 1
  23509349.518    -6017041.096 3  -4688595.691 1
 91  7  9  7 10 45.0000000  0  5 11 21 23 12 15
  21286317.088    -9785227.869 4  -7624845.611 2
  20541525.601    -3102746.206 5  -2417721.493 3
  23315017.445    12988410.701 3  10120838.028 1
  23900916.838      389297.725 2    303357.498 1
  23499826.306    -6067097.234 3  -4727600.486 1
 91  7  9  7 11  0.0000000  0  5 11 21 23 12 15
  21288742.406    -9772504.586 4  -7614931.388 2
  20543164.560    -3094130.505 5  -2411007.959 3
  23321934.563    13024724.964 3  10149134.831 1
  23904444.199      407843.242 2    317808.486 1
  23490311.793    -6117117.946 3  -4766577.620 1
 91  7  9  7 11 15.0000000  0  5 11 21 23 12 15
  21291193.516    -9759606.842 4  -7604881.183 2
  20544818.221    -3085446.625 5  -2404241.287 3
  23328844.780    13061063.171 3  10177450.375 1
  23908006.635      426546.018 3    332382.114 1
  23480799.984    -6167104.650 3  -4805528.268 1
 91  7  9  7 11 30.0000000  0  5 11 21 23 12 15
  21293677.895    -9746535.066 4  -7594695.389 2
  20546484.464    -3076695.023 5  -2397421.863 3
  23335760.092    13097424.829 3  10205784.081 1
  23911588.554      445405.584 2    347077.930 1
  23471296.561    -6217057.332 3  -4844452.442 1
 91  7  9  7 11 45.0000000  0  5 11 21 23 12 15
  21296202.444    -9733286.802 4  -7584372.076 2
  20548163.899    -3067873.310 5  -2390547.796 3
  23342688.892    13133812.479 3  10234138.059 1
  23915214.543      464424.294 2    361897.655 1
  23461793.137    -6266973.062 3  -4883347.737 1
 91  7  9  7 12  0.0000000  0  5 11 21 23 12 15
  21298754.582    -9719863.035 4  -7573912.005 2
  20549853.229    -3058982.130 5  -2383619.599 3
  23349617.693    13170225.366 3  10262511.753 1
  23918860.321      483601.152 2    376840.665 1
  23452299.608    -6316852.254 3  -4922214.642 1
 91  7  9  7 12 15.0000000  0  5 11 21 23 12 15
  21301344.186    -9706264.748 4  -7563315.929 2
  20551562.652    -3050022.308 5  -2376637.918 3
  23356548.597    13206662.670 3  10290904.470 1
  23922536.969      502935.229 2    391906.264 1
  23442815.075    -6366695.543 3  -4961053.557 1
 91  7  9  7 12 30.0000000  0  5 11 21 23 12 15
  21303966.474    -9692492.326 4  -7552584.171 2
  20553278.663    -3040994.143 5  -2369602.995 3
  23363489.988    13243124.252 3  10319316.087 1
  23926247.208      522426.191 2    407094.040 1
  23433333.542    -6416503.033 3  -4999864.586 1
 91  7  9  7 12 45.0000000  0  5 11 21 23 12 15
  21306620.233    -9678546.219 4  -7541717.077 2
  20555009.367    -3031897.946 5  -2362515.039 3
  23370429.285    13279609.718 3  10347746.320 1
  23929988.011      542073.475 2    422403.580 1
  23423866.093    -6466274.555 3  -5038647.511 1
 91  7  9  7 13  0.0000000  0  5 11 21 23 12 15
  21309305.176    -9664425.057 4  -7530713.577 2
  20556753.254    -3022732.189 5  -2355372.889 3
  23377375.781    13316120.313 3  10376196.107 1
  23933758.200      561878.417 2    437836.008 1
  23414405.248    -6516008.320 3  -5077401.072 1
 91  7  9  7 13 15.0000000  0  5 11 21 23 12 15
  21312027.593    -9650130.165 4  -7519574.702 2
  20558510.639    -3013498.210 5  -2348177.569 3
  23384330.365    13352655.034 3  10404664.735 1
  23937558.369      581839.860 2    453390.463 1
  23404944.394    -6565705.331 3  -5116125.979 2
 91  7  9  7 13 30.0000000  0  5 11 21 23 12 15
  21314780.888    -9635662.119 4  -7508300.894 2
  20560281.217    -3004196.350 5  -2340929.361 4
  23391286.745    13389213.231 3  10433151.643 1
  23941381.328      601957.139 2    469066.311 1
  23395490.739    -6615365.720 2  -5154822.372 1
 91  7  9  7 13 45.0000000  0  5 11 21 23 12 15
  21317565.655    -9621020.752 4  -7496892.053 2
  20562061.384    -2994826.094 5  -2333627.862 3
  23398250.927    13425795.222 3  10461657.074 1
  23945237.556      622230.184 2    484863.570 1
  23386055.371    -6664988.722 3  -5193489.595 1
 91  7  9  7 14  0.0000000  0  5 11 21 23 12 15
  21320386.108    -9606206.922 4  -7485348.830 2
  20563861.033    -2985388.252 5  -2326273.694 3
  23405216.303    13462400.421 3  10490180.646 1
  23949129.460      642658.345 2    500781.536 1
  23376614.908    -6714574.729 3  -5232127.991 1
 91  7  9  7 14 15.0000000  0  5 11 21 23 12 15
  21323238.328    -9591219.639 4  -7473670.417 2
  20565666.686    -2975881.669 5  -2318865.967 3
  23412185.580    13499029.697 2  10518722.902 1
  23953046.554      663242.470 2    516821.100 1
  23367183.737    -6764122.335 2  -5270736.506 1
 91  7  9  7 14 30.0000000  0  5 11 21 23 12 15
  21326118.434    -9576058.535 4  -7461856.585 2
  20567491.220    -2966306.000 5  -2311404.398 3
  23419163.250    13535683.739 3  10547284.481 1
  23956994.814      683983.021 2    532982.598 1
  23357763.054    -6813630.848 3  -5309314.513 1
 91  7  9  7 14 45.0000000  0  5 11 21 23 12 15
  21329043.510    -9560723.896 4  -7449907.511 2
  20569322.655    -2956661.318 5  -2303889.055 3
  23426140.624    13572362.521 3  10575865.340 1
  23960971.562      704879.775 2    549265.854 1
  23348352.273    -6863100.037 2  -5347861.910 1
 91  7  9  7 15  0.0000000  0  5 11 21 23 12 15
  21331992.570    -9545216.771 4  -7437824.049 2
  20571172.971    -2946948.361 5  -2296320.500 3
  23433122.491    13609065.294 3  10604464.939 1
  23964968.395      725931.430 2    565669.728 1
  23338945.987    -6912530.299 2  -5386378.922 1
 91  7  9  7 15 15.0000000  0  5 11 21 23 12 15
  21334972.204    -9529537.177 4  -7425606.198 2
  20573036.480    -2937167.094 5  -2288698.715 3
  23440113.650    13645791.864 3  10633083.052 1
  23969006.899      747138.206 2    582194.530 1
  23329545.092    -6961921.492 3  -5424865.567 1
 91  7  9  7 15 30.0000000  0  5 11 21 23 12 15
  21337988.718    -9513684.968 4  -7413253.845 2
  20574909.586    -2927317.367 5  -2281023.606 3
  23447105.106    13682542.566 2  10661719.966 1
  23973070.287      768500.039 2    598840.158 1
  23320159.492    -7011272.833 3  -5463321.178 1
 91  7  9  7 15 45.0000000  0  5 11 21 23 12 15
  21341040.901    -9497660.385 4  -7400767.144 2
  20576796.784    -2917399.139 5  -2273295.109 3
  23454107.058    13719317.156 3  10690375.478 1
  23977169.953      790016.689 2    615606.303 1
  23310770.891    -7060584.142 3  -5501745.526 1
 91  7  9  7 16  0.0000000  0  5 11 21 23 12 15
  21344123.674    -9481463.420 4  -7388146.151 2
  20578696.563    -2907412.112 5  -2265512.989 3
  23461105.119    13756115.918 2  10719049.832 1
  23981292.393      811688.259 2    632493.285 1
  23301398.179    -7109854.900 3  -5540138.287 1
 91  7  9  7 16 15.0000000  0  5 11 21 23 12 15
  21347238.215    -9465095.160 4  -7375391.669 2
  20580610.136    -2897357.318 5  -2257678.076 4
  23468121.154    13792938.051 3  10747742.336 1
  23985445.423      833513.660 2    649500.172 1
  23292028.764    -7159085.888 3  -5578500.089 1
 91  7  9  7 16 30.0000000  0  5 11 21 23 12 15
  21350387.831    -9448555.903 4  -7362503.948 2
  20582535.707    -2887234.983 5  -2249790.537 3
  23475133.000    13829783.313 3  10776452.961 1
  23989625.125      855492.523 2    666626.545 1
  23282665.946    -7208276.913 3  -5616830.758 1
 91  7  9  7 16 45.0000000  0  5 11 21 23 12 15
  21353566.231    -9431844.759 4  -7349482.279 2
  20584477.759    -2877044.133 5  -2241849.619 3
  23482144.253    13866652.661 2  10805182.362 1
  23993838.410      877625.613 2    683873.131 1
  23273316.014    -7257426.516 3  -5655129.084 2
 91  7  9  7 17  0.0000000  0  5 11 21 23 12 15
  21356776.111    -9414962.187 4  -7336327.044 2
  20586427.009    -2866784.867 5  -2233855.369 3
  23489161.492    13903545.993 2  10833930.384 1
  23998075.977      899912.643 2    701239.672 1
  23263967.287    -7306534.581 3  -5693395.088 2
 91  7  9  7 17 15.0000000  0  5 11 21 23 12 15
  21360022.864    -9397908.697 4  -7323038.605 2
  20588393.649    -2856457.430 5  -2225808.007 3
  23496189.227    13940462.891 2  10862696.800 1
  24002351.918      922352.947 2    718725.625 1
  23254626.953    -7355601.274 3  -5731628.855 1
 91  7  9  7 17 30.0000000  0  5 11 21 23 12 15
  21363301.097    -9380683.476 4  -7309616.368 2
  20590370.479    -2846060.773 5  -2217706.720 3
  23503217.860    13977404.257 2  10891482.304 1
  24006656.337      944947.540 2    736331.812 1
  23245301.016    -7404625.124 3  -5769829.210 1
 91  7  9  7 17 45.0000000  0  5 11 21 23 12 15
  21366611.106    -9363287.150 4  -7296060.787 2
  20592362.308    -2835595.581 5  -2209552.018 3
  23510249.190    14014369.645 2  10920286.462 1
  24010975.449      967695.674 2    754057.674 1
  23235986.159    -7453606.392 3  -5807996.418 1
 91  7  9  7 18  0.0000000  0  5 11 21 23 12 15
  21369956.488    -9345719.817 4  -7282371.951 2
  20594370.313    -2825061.764 5  -2201343.837 3
  23517285.022       -6274.98512     -4891.142 1
  24015334.731      952708.19112    742379.014 1
  23226671.608    -7502544.741 3  -5846130.157 1
 91  7  9  7 18 15.0000000  0  5 11 21 23 12 15
  21373330.653    -9327982.780 4  -7268550.889 2
  20596385.220    -2814460.239 5  -2193082.907 3
  23524343.033       30737.264 2     23949.556 1
  24019728.190      975761.754 2    760342.831 1
  23217370.546    -7551441.065 3  -5884231.199 1
 91  7  9  7 18 30.0000000  0  5 11 21 23 12 15
  21376737.494    -9310075.058 4  -7254596.823 2
  20598414.218    -2803790.044 5  -2184768.460 3
  23531383.664       67773.465 2     52808.952 1
  24024133.637      998968.452 2    778426.014 1
  23208070.985    -7600293.735 3  -5922298.146 1
 91  7  9  7 18 45.0000000  0  5 11 21 23 12 15
  21380174.314    -9291995.940 4  -7240509.207 2
  20600461.495    -2793050.344 5  -2176399.846 3
  23538432.984      104834.521 2     81687.722 1
  24028593.651     1022328.771 2    796628.906 1
  23198788.211    -7649101.630 3  -5960330.276 1
 91  7  9  7 19  0.0000000  0  5 11 21 23 12 15
  21383654.603    -9273746.532 4  -7226288.884 1
  20602514.173    -2782241.749 5  -2167977.573 3
  23545493.997      141919.444 2    110585.010 1
  24033057.862     1045841.819 2    814950.744 1
  23189505.742    -7697865.360 3  -5998327.960 1
 91  7  9  7 19 15.0000000  0  5 11 21 23 12 15
  21387154.977    -9255329.787 4  -7211938.174 2
  20604583.943    -2771367.158 5  -2159503.863 3
  23552542.716      179025.621 2    139498.948 1
  24037569.136     1069504.366 2    833389.135 1
  23180229.564    -7746587.425 3  -6036293.177 1
 91  7  9  7 19 30.0000000  0  5 11 21 23 12 15
  21390692.834    -9236744.039 4  -7197455.804 2
  20606666.304    -2760424.785 5  -2150977.331 3
  23559621.414      216154.928 2    168430.862 1
  24042099.605     1093318.285 2    851945.498 1
  23170970.173    -7795265.669 3  -6074224.291 1
 91  7  9  7 19 45.0000000  0  5 11 21 23 12 15
  21394263.960    -9217988.861 4  -7182841.386 2
  20608761.552    -2749414.034 5  -2142397.510 3
  23566685.122      253307.894 2    197381.201 1
  24046658.544     1117283.923 2    870620.003 1
  23161710.486    -7843899.062 3  -6112120.351 1
 91  7  9  7 20  0.0000000  0  5 11 21 23 12 15
  21397860.869    -9199064.036 4  -7168094.787 1
  20610873.290    -2738334.428 5  -2133764.052 3
  23573764.126      290484.979 2    226350.383 1
  24051246.267     1141401.451 2    889412.836 1
  23152467.280    -7892487.094 3  -6149981.173 1
 91  7  9  7 20 15.0000000  0  5 11 21 23 12 15
  21401493.751    -9179970.292 4  -7153216.546 2
  20612996.117    -2727186.361 5  -2125077.231 3
  23580839.823      327685.641 2    255337.908 1
  24055861.274     1165670.429 2    908323.708 1
  23143230.679    -7941029.733 3  -6187806.606 1
 91  7  9  7 20 30.0000000  0  5 11 21 23 12 15
  21405160.513    -9160707.750 4  -7138206.791 2
  20615128.543    -2715969.898 5  -2116337.130 3
  23587928.415      364910.082 2    284343.975 2
  24060511.958     1190090.602 2    927352.493 1
  23133997.071    -7989526.720 3  -6225596.405 1
 91  7  9  7 20 45.0000000  0  5 11 21 23 12 15
  21408859.357    -9141277.366 4  -7123066.236 2
  20617273.855    -2704685.757 5  -2107544.283 3
  23595011.014      402157.331 2    313367.779 1
  24065187.220     1214660.858 2    946498.119 1
  23124782.344    -8037978.256 3  -6263350.806 1
 91  7  9  7 21  0.0000000  0  5 11 21 23 12 15
  21412587.876    -9121676.812 4  -7107793.087 2
  20619435.963    -2693331.462 5  -2098696.775 3
  23602102.905      439429.766 2    342411.252 1
  24069889.461     1239383.548 3    965762.531 1
  23115566.726    -8086381.755 3  -6301067.784 1
 91  7  9  7 21 15.0000000  0  5 11 21 23 12 15
  21416347.569    -9101908.681 4  -7092389.352 2
  20621609.458    -2681909.388 5  -2089796.457 3
  23609200.493      476725.149 2    371472.620 1
  24074623.486     1264256.247 3    985143.887 1
  23106365.794    -8134739.179 3  -6338748.855 1
 91  7  9  7 21 30.0000000  0  5 11 21 23 12 15
  21420145.338    -9081970.414 4  -7076853.046 2
  20623797.043    -2670416.713 5  -2080841.106 3
  23616311.264      514046.005 2    400553.743 1
  24079389.289     1289281.474 3   1004644.110 1
  23097173.263    -8183047.456 3  -6376391.629 1
 91  7  9  7 21 45.0000000  0  5 11 21 23 12 15
  21423969.492    -9061864.206 4  -7061185.873 2
  20625996.617    -2658855.332 5  -2071832.234 3
  23623414.550      551390.467 2    429653.312 1
  24084172.472     1314456.852 2   1024261.243 1
  23087991.221    -8231308.296 3  -6413997.471 1
 91  7  9  7 22  0.0000000  0  5 11 21 23 12 15
  21427824.228    -9041591.068 4  -7045388.634 2
  20628208.790    -2647226.195 5  -2062770.565 3
  23630528.323      588757.937 2    458770.826 1
  24088994.639     1339781.511 2   1043994.713 1
  23078816.367    -8279522.305 3  -6451566.802 1
 91  7  9  7 22 15.0000000  0  5 11 21 23 12 15
  21431720.329    -9021151.081 4  -7029461.382 1
  20630435.350    -2635529.307 5  -2053656.097 3
  23637638.205      626148.315 2    487906.212 1
  24093842.877     1365255.229 3   1063844.371 1
  23069651.417    -8327689.155 3  -6489099.398 1
 91  7  9  7 22 30.0000000  0  5 11 21 23 12 15
  21435635.617    -9000544.290 4  -7013404.142 2
  20632671.796    -2623764.237 5  -2044488.496 3
  23644756.472      663561.886 2    517059.628 1
  24098720.806     1390878.016 3   1083810.133 1
  23060492.452    -8375808.036 3  -6526594.633 1
 91  7  9  7 22 45.0000000  0  5 11 21 23 12 15
  21439593.178    -8979771.090 4  -6997217.249 2
  20634924.742    -2611931.146 5  -2035267.902 3
  23651880.148      700998.493 3    546231.038 1
  24103627.205     1416649.680 2   1103891.944 1
  23051349.681    -8423878.683 3  -6564052.303 1
 91  7  9  7 23  0.0000000  0  5 11 21 23 12 15
  21443577.717    -8958831.098 4  -6980900.394 2
  20637191.473    -2600029.461 5  -2025993.860 3
  23659010.412      738458.642 3    575420.779 1
  24108559.693     1442570.465 3   1124089.948 1
  23042209.013    -8471900.377 3  -6601471.783 1
 91  7  9  7 23 15.0000000  0  5 11 21 23 12 15
  21447591.346    -8937724.298 4  -6964453.513 2
  20639469.590    -2588058.984 5  -2016666.193 3
  23666142.769      775942.470 3    604628.961 1
  24113517.963     1468640.442 2   1144404.226 1
  23033080.926    -8519872.420 3  -6638852.552 2
 91  7  9  7 23 30.0000000  0  5 11 21 23 12 15
  21451639.142    -8916450.326 4  -6947876.406 2
  20641761.510    -2576019.095 5  -2007284.459 3
  23673277.230      813450.683 3    633856.150 1
  24118503.211     1494859.936 2   1164834.994 1
  23023960.945    -8567794.041 3  -6676194.040 1
 91  7  9  7 23 45.0000000  0  5 11 21 23 12 15
  21455719.614    -8895010.978 3  -6931170.434 2
  20644063.909    -2563911.414 5  -1997849.902 3
  23680422.187      850981.564 3    663101.003 1
  24123519.634     1521227.079 2   1185380.811 1
  23014846.050    -8615666.320 3  -6713497.066 1
 91  7  9  7 24  0.0000000  0  5 11 21 23 12 15
  21459832.167    -8873406.841 3  -6914336.054 2
  20646381.909    -2551736.339 5  -1988362.828 3
  23687565.939      888534.846 3    692363.281 1
  24128568.741     1547741.274 3   1206041.222 1
  23005738.956    -8663489.623 3  -6750761.957 2
 91  7  9  7 24 15.0000000  0  5 11 21 23 12 15
  21463974.701    -8851635.255 4  -6897371.167 2
  20648711.897    -2539490.825 5  -1978820.852 3
  23694720.485      926113.531 3    721645.396 1
  24133640.027     1574405.239 3   1226818.288 1
  22996653.745    -8711260.359 3  -6787985.865 1
 91  7  9  7 24 30.0000000  0  5 11 21 23 12 15
  21468151.410    -8829697.688 3  -6880276.967 1
  20651052.678    -2527176.030 5  -1969224.907 3
  23701874.734      963716.305 3    750946.267 1
  24138751.789     1601217.590 3   1247710.986 1
  22987579.326    -8758979.719 3  -6825169.770 1
 91  7  9  7 24 45.0000000  0  5 11 21 23 12 15
  21472355.395    -8807593.993 4  -6863053.335 2
  20653411.441    -2514791.791 5  -1959574.840 3
  23709032.281     1001343.576 3    780266.214 1
  24143877.939     1628178.399 2   1268719.456 1
  22978506.408    -8806647.128 3  -6862313.165 1
 91  7  9  7 25  0.0000000  0  5 11 21 23 12 15
  21476594.759    -8785326.567 4  -6845702.113 2
  20655779.200    -2502340.263 5  -1949872.340 3
  23716199.417     1038992.933 3    809603.365 1
  24149040.970     1655285.146 3   1289841.575 1
  22969444.589    -8854264.232 3  -6899417.349 2
 91  7  9  7 25 15.0000000  0  5 11 21 23 12 15
  21480864.706    -8762896.011 4  -6828223.765 2
  20658161.949    -2489821.855 5  -1940117.732 3
  23723373.149     1076664.200 3    838957.623 1
  24154224.077     1682537.268 3   1311076.994 1
  22960391.450    -8901831.083 3  -6936482.415 1
 91  7  9  7 25 30.0000000  0  5 11 21 23 12 15
  21485163.130    -8740301.059 4  -6810617.308 2
  20660559.993    -2477234.837 5  -1930309.666 3
  23730540.590     1114358.785 3    868330.010 1
  24159434.773     1709936.157 3   1332426.771 1
  22951351.810    -8949345.777 3  -6973506.838 1
 91  7  9  7 25 45.0000000  0  5 11 21 23 12 15
  21489494.231    -8717542.399 4  -6792883.293 2
  20662962.827    -2464579.829 5  -1920448.628 3
  23737717.621     1152076.278 2    897720.295 1
  24164675.745     1737481.067 2   1353890.333 1
  22942318.164    -8996808.590 3  -7010490.862 1
 91  7  9  7 26  0.0000000  0  5 11 21 23 12 15
  21493856.209    -8694618.868 4  -6775020.830 2
  20665387.246    -2451855.404 5  -1910533.474 3
  23744898.848     1189817.835 3    927129.301 1
  24169934.700     1765173.073 2   1375468.495 1
  22933296.506    -9044217.748 3  -7047432.976 1
 91  7  9  7 26 15.0000000  0  5 11 21 23 12 15
  21498247.574    -8671531.495 4  -6757030.678 2
  20667822.468    -2439062.345 5  -1900564.848 3
  23752088.172     1227582.909 3    956556.653 1
  24175243.431     1793011.128 3   1397160.455 1
  22924284.149    -9091573.457 3  -7084333.514 1
 91  7  9  7 26 30.0000000  0  5 11 21 23 12 15
  21502672.208    -8648280.658 4  -6738913.139 2
  20670267.872    -2426200.595 5  -1890542.704 3
  23759278.098     1265371.315 2    986002.186 1
  24180568.644     1820995.049 2   1418966.105 1
  22915284.679    -9138875.826 3  -7121192.458 1
 91  7  9  7 26 45.0000000  0  5 11 21 23 12 15
  21507130.721    -8624866.609 4  -6720668.440 2
  20672728.570    -2413270.387 5  -1880467.206 3
  23766471.313     1303183.106 3   1015465.932 1
  24185924.736     1849124.661 3   1440885.280 1
  22906292.102    -9186124.558 3  -7158009.645 1
 91  7  9  7 27  0.0000000  0  5 11 21 23 12 15
  21511617.120    -8601290.575 4  -6702297.505 2
  20675202.453    -2400272.585 5  -1870339.033 3
  23773676.525     1341017.184 3   1044947.029 1
  24191306.610     1877398.581 3   1462916.972 1
  22897314.218    -9233320.034 3  -7194785.307 1
 91  7  9  7 27 15.0000000  0  5 11 21 23 12 15
  21516131.988    -8577550.925 4  -6683799.091 2
  20677688.332    -2387205.203 5  -1860156.661 3
  23780876.642     1378875.503 2   1074447.009 1
  24196710.366     1905818.365 2   1485062.187 2
  22888345.626    -9280460.542 3  -7231518.147 1
 91  7  9  7 27 30.0000000  0  5 11 21 23 12 15
  21520681.941    -8553648.598 4  -6665173.917 2
  20680188.905    -2374068.977 5  -1849920.643 3
  23788085.755     1416757.287 2   1103965.259 1
  24202149.800     1934383.271 3   1507320.593 1
  22879385.734    -9327546.304 3  -7268208.357 1
 91  7  9  7 27 45.0000000  0  5 11 21 23 12 15
  21525259.473    -8529584.272 3  -6646422.487 2
  20682699.669    -2360864.305 4  -1839631.275 3
  23795306.550     1454661.945 2   1133501.368 1
  24207609.921     1963092.498 3   1529691.440 1
  22870433.632    -9374577.466 3  -7304856.012 1
 91  7  9  7 28  0.0000000  0  5 11 21 23 12 15
  21529875.378    -8505357.425 4  -6627544.435 2
  20685226.914    -2347590.428 5  -1829288.001 3
  23802511.466     1492590.640 2   1163056.245 1
  24213104.218     1991946.766 2   1552175.336 1
  22861490.221    -9421552.465 3  -7341459.879 1
 91  7  9  7 28 15.0000000  0  5 11 21 23 12 15
  21534511.369    -8480968.793 3  -6608540.313 2
  20687763.460    -2334247.976 5  -1818891.278 3
  23809742.757     1530542.568 2   1192629.206 1
  24218615.005     2020945.122 2   1574771.444 1
  22852565.700    -9468471.528 3  -7378020.174 2
 91  7  9  7 28 30.0000000  0  5 11 21 23 12 15
  21539179.136    -8456418.595 3  -6589410.293 2
  20690316.793    -2320836.942 4  -1808441.124 3
  23816958.161     1568517.802 2   1222220.292 1
  24224163.860     2050087.263 3   1597479.622 1
  22843649.572    -9515334.567 3  -7414536.818 1
 91  7  9  7 28 45.0000000  0  5 11 21 23 12 15
  21543884.378    -8431706.748 4  -6570154.311 2
  20692881.818    -2307356.816 4  -1797937.108 3
  23824198.448     1606516.777 2   1251829.879 1
  24229739.702     2079373.468 3   1620299.981 1
  22834739.439    -9562140.831 3  -7451009.178 1
 91  7  9  7 29  0.0000000  0  5 11 21 23 12 15
  21548620.804    -8406834.136 3  -6550773.056 2
  20695460.332    -2293808.209 5  -1787379.748 3
  23831428.248     1644538.828 2   1281457.425 1
  24235339.224     2108803.022 2   1643232.121 1
  22825848.492    -9608890.409 3  -7487437.413 2
 91  7  9  7 29 15.0000000  0  5 11 21 23 12 15
  21553380.307    -8381800.483 4  -6531266.350 2
  20698055.930    -2280190.478 5  -1776768.526 3
  23838676.327     1682584.407 2   1311103.297 1
  24240957.330     2138375.978 2   1666275.953 1
  22816960.546    -9655582.579 3  -7523820.925 2
 91  7  9  7 29 30.0000000  0  5 11 21 23 12 15
  21558179.387    -8356606.243 4  -6511634.495 2
  20700658.735    -2266503.957 5  -1766103.721 3
  23845919.013     1720653.417 2   1340767.506 1
  24246618.914     2168091.827 2   1689431.097 1
  22808087.294    -9702217.491 3  -7560159.770 2
 91  7  9  7 29 45.0000000  0  5 11 21 23 12 15
  21563002.741    -8331251.611 4  -6491877.650 2
  20703278.318    -2252748.525 5  -1755385.199 3
  23853165.897     1758745.743 2   1370449.855 1
  24252295.182     2197950.728 2   1712697.782 1
  22799227.225    -9748794.546 3  -7596453.549 2
 91  7  9  7 30  0.0000000  0  5 11 21 23 12 15
  21567859.381    -8305736.997 4  -6471996.142 1
  20705904.497    -2238924.358 5  -1744613.119 3
  23860421.174     1796861.522 2   1400150.478 1
  24258010.425     2227952.151 2   1736075.568 1
  22790369.555    -9795313.560 3  -7632702.106 2
 91  7  9  7 30 15.0000000  0  5 11 21 23 12 15
  21572740.599    -8280062.331 4  -6451989.919 2
  20708548.667    -2225031.015 5  -1733787.137 3
  23867672.856     1835000.892 2   1429869.515 1
  24263745.160     2258096.157 2   1759564.442 1
  22781527.478    -9841773.686 3  -7668904.808 2
 91  7  9  7 30 30.0000000  0  5 11 21 23 12 15
  21577658.699    -8254229.294 4  -6431860.269 2
  20711205.131    -2211070.086 5  -1722908.488 3
  23874939.519     1873162.414 2   1459605.775 1
  24269501.175     2288380.939 2   1783162.981 1
  22772696.193    -9888176.200 3  -7705062.571 2
 91  7  9  7 30 45.0000000  0  5 11 21 23 12 15
  21582606.176    -8228235.863 3  -6411605.657 2
  20713875.085    -2197039.154 4  -1711975.299 3
  23882202.597     1911348.535 2   1489361.230 1
  24275296.759     2318808.324 2   1806872.545 1
  22763883.187    -9934518.232 3  -7741173.245 2
 91  7  9  7 31  0.0000000  0  5 11 21 23 12 15
  21587582.132    -8202082.509 4  -6391226.416 2
  20716558.527    -2182938.320 5  -1700987.629 3
  23889477.662     1949558.887 2   1519135.427 1
  24281122.025     2349378.101 2   1830693.125 1
  22755071.691    -9980799.929 3  -7777236.888 1
 91  7  9  7 31 15.0000000  0  5 11 21 23 12 15
  21592590.161    -8175770.479 4  -6370723.556 2
  20719256.357    -2168768.492 5  -1689946.205 3
  23896748.828     1987792.491 2   1548927.880 1
  24286961.985     2380089.180 2   1854623.839 1
  22746276.380   -10027021.803 3  -7813253.876 1
 91  7  9  7 31 30.0000000  0  5 11 21 23 12 15
  21597623.380    -8149299.921 3  -6350097.157 2
  20721964.979    -2154529.660 5  -1678851.014 3
  23904034.983     2026049.695 2   1578738.686 1
  24292826.227     2410941.250 2   1878664.320 1
  22737494.863   -10073183.314 3  -7849223.918 1
 91  7  9  7 31 45.0000000  0  5 11 21 23 12 15
  21602693.470    -8122670.678 4  -6329347.103 2
  20724686.201    -2140221.303 4  -1667701.637 3
  23911313.940     2064330.831 2   1608568.162 1
  24298732.436     2441934.747 2   1902815.084 1
  22728722.630   -10119283.860 3  -7885146.400 1
 91  7  9  7 32  0.0000000  0  5 11 21 23 12 15
  21607792.040    -8095883.140 4  -6308473.707 1
  20727425.405    -2125843.680 5  -1656498.294 3
  23918606.691     2102635.688 2   1638416.099 1
  24304647.345     2473068.908 2   1927075.424 1
  22719958.197   -10165323.323 3  -7921021.283 2
 91  7  9  7 32 15.0000000  0  5 11 21 23 12 15
  21612920.886    -8068939.265 3  -6287478.487 2
  20730171.503    -2111398.404 5  -1645242.241 3
  23925895.848     2140962.570 2   1668281.252 1
  24310604.823     2504342.152 2   1951444.228 1
  22711212.052   -10211303.034 3  -7956849.603 1
 91  7  9  7 32 30.0000000  0  5 11 21 23 12 15
  21618076.719    -8041837.348 4  -6266360.109 2
  20732932.886    -2096883.306 4  -1633931.775 3
  23933194.297     2179313.636 2   1698165.176 1
  24316580.885     2535756.098 2   1975922.666 1
  22702471.003   -10257220.348 3  -7992629.310 1
 91  7  9  7 32 45.0000000  0  5 11 21 23 12 15
  21623262.225    -8014578.893 4  -6245119.777 2
  20735710.463    -2082299.748 4  -1622567.957 3
  23940497.239     2217687.527 2   1728066.910 1
  24322590.226     2567309.119 2   2000509.445 1
  22693744.951   -10303076.174 3  -8028361.130 1
 91  7  9  7 33  0.0000000  0  5 11 21 23 12 15
  21628478.017    -7987165.037 4  -6223758.341 2
  20738499.436    -2067648.495 4  -1611151.395 3
  23947802.581     2256083.424 2   1757985.785 1
  24328608.858     2599000.123 2   2025203.697 1
  22685030.278   -10348871.290 3  -8064045.606 1
 91  7  9  7 33 15.0000000  0  5 11 21 23 12 15
  21633725.585    -7959594.326 4  -6202274.687 2
  20741299.498    -2052927.758 5  -1599680.694 3
  23955107.320     2294503.000 2   1787923.139 1
  24334673.053     2630830.696 2   2050006.685 1
  22676327.906   -10394603.513 3  -8099681.083 2
 91  7  9  7 33 30.0000000  0  5 11 21 23 12 15
  21639002.235    -7931866.198 4  -6180668.344 2
  20744116.643    -2038136.738 5  -1588155.232 3
  23962435.749     2332947.187 2   1817879.642 1
  24340754.942     2662801.384 2   2074918.922 1
  22667637.218   -10440271.463 3  -8135266.471 2
 91  7  9  7 33 45.0000000  0  5 11 21 23 12 15
  21644306.760    -7903983.271 3  -6158941.419 2
  20746938.893    -2023277.678 4  -1576576.747 3
  23969750.688     2371413.655 2   1847853.484 1
  24346862.318     2694909.733 2   2099938.493 1
  22658961.528   -10485877.113 3  -8170803.336 2
 91  7  9  7 34  0.0000000  0  5 11 21 23 12 15
  21649644.564    -7875943.752 4  -6137092.441 2
  20749783.628    -2008348.490 4  -1564943.610 3
  23977078.218     2409904.495 2   1877846.373 1
  24353008.660     2727157.326 2   2125066.458 1
  22650292.731   -10531418.323 3  -8206289.985 2
 91  7  9  7 34 15.0000000  0  5 11 21 23 12 15
  21655011.152    -7847748.795 4  -6115122.346 2
  20752634.950    -1993350.120 4  -1553256.574 3
  23984404.840     2448418.822 2   1907857.554 1
  24359175.096     2759543.030 2   2150301.972 1
  22641639.221   -10576895.429 3  -8241726.664 2
 91  7  9  7 34 30.0000000  0  5 11 21 23 12 15
  21660403.818    -7819399.065 4  -6093031.679 2
  20755502.762    -1978282.942 4  -1541515.920 3
  23991732.666     2486956.209 2   1937886.652 1
  24365357.114     2792066.197 2   2175644.705 1
  22632996.206   -10622308.597 3  -8277113.544 2
 91  7  9  7 34 45.0000000  0  5 11 21 23 12 15
  21665829.161    -7790895.183 3  -6070820.862 1
  20758385.268    -1963147.089 5  -1529721.754 3
  23999071.591     2525516.614 2   1967933.719 1
  24371570.011     2824726.458 2   2201094.205 1
  22624371.174   -10667657.769 3  -8312450.514 2
 91  7  9  7 35  0.0000000  0  5 11 21 23 12 15
  21671281.787    -7762238.200 3  -6048490.744 1
  20761276.167    -1947943.375 4  -1517874.701 3
  24006417.103     2564099.140 2   1997997.991 1
  24377807.792     2857522.592 2   2226649.534 1
  22615749.746   -10712943.220 3  -8347737.865 2
 91  7  9  7 35 15.0000000  0  5 11 21 23 12 15
  21676767.385    -7733427.484 3  -6026040.847 1
  20764182.352    -1932671.047 4  -1505974.184 3
  24013758.724     2602704.428 2   2028080.081 1
  24384080.352     2890455.427 2   2252311.577 1
  22607143.604   -10758163.746 3  -8382974.629 2
 91  7  9  7 35 30.0000000  0  5 11 21 23 12 15
  21682275.476    -7704464.123 3  -6003472.012 2
  20767103.833    -1917330.839 5  -1494020.779 3
  24021113.528     2641331.812 2   2058179.322 1
  24390372.098     2923523.524 2   2278078.951 1
  22598557.242   -10803320.141 3  -8418161.395 2
 91  7  9  7 35 45.0000000  0  5 11 21 23 12 15
  21687814.141    -7675349.674 3  -5980785.446 2
  20770038.200    -1901923.696 5  -1482015.210 3
  24028469.240     2679980.145 3   2088294.928 1
  24396684.531     2956725.533 2   2303950.667 1
  22589972.084   -10848413.043 3  -8453298.711 2
 91  7  9  7 36  0.0000000  0  5 11 21 23 12 15
  21693380.682    -7646082.215 3  -5957979.644 2
  20772980.063    -1886447.637 5  -1469955.947 3
  24035831.539     2718651.457 3   2118428.460 1
  24403027.240     2990063.219 2   2329928.022 1
  22581402.823   -10893439.634 3  -8488384.336 2
 91  7  9  7 36 15.0000000  0  5 11 21 23 12 15
  21698980.805    -7616663.344 3  -5935055.868 1
  20775939.620    -1870903.771 5  -1457843.853 3
  24043186.945     2757344.569 2   2148578.953 1
  24409404.422     3023535.221 2   2356010.088 1
  22572849.145   -10938400.955 3  -8523419.129 2
 91  7  9  7 36 30.0000000  0  5 11 21 23 12 15
  21704606.712    -7587092.572 3  -5912013.716 2
  20778908.460    -1855291.296 5  -1445678.287 3
  24050561.844     2796060.431 3   2178747.137 1
  24415800.790     3057142.072 2   2382197.263 1
  22564301.758   -10983295.963 3  -8558402.225 2
 91  7  9  7 36 45.0000000  0  5 11 21 23 12 15
  21710267.990    -7557369.611 3  -5888852.982 2
  20781895.292    -1839609.662 5  -1433458.822 3
  24057930.442     2834799.533 2   2208933.467 1
  24422217.253     3090884.077 2   2408489.605 1
  22555774.159   -11028123.885 3  -8593333.051 2
 91  7  9  7 37  0.0000000  0  5 11 21 23 12 15
  21715951.456    -7527496.711 3  -5865575.420 1
  20784889.924    -1823860.972 5  -1421187.107 3
  24065304.739     2873559.900 3   2239136.359 1
  24428659.795     3124759.032 2   2434885.752 1
  22547257.057   -11072886.314 3  -8628212.856 2
 91  7  9  7 37 15.0000000  0  5 11 21 23 12 15
  21721664.902    -7497473.845 3  -5842180.989 2
  20787900.732    -1808044.840 5  -1408862.846 3
  24072683.825     2912341.933 2   2269356.082 1
  24435132.307     3158766.850 2   2461385.307 1
  22538750.146   -11117582.363 3  -8663040.940 1
 91  7  9  7 37 30.0000000  0  5 11 21 23 12 15
  21727403.834    -7467300.222 3  -5818669.081 2
  20790922.944    -1792159.873 5  -1396484.951 3
  24080068.914     2951146.812 2   2299593.672 1
  24441635.410     3192908.289 2   2487988.968 1
  22530255.825   -11162210.560 3  -8697816.133 2
 91  7  9  7 37 45.0000000  0  5 11 21 23 12 15
  21733177.238    -7436975.282 3  -5795039.269 2
  20793959.840    -1776205.299 5  -1384052.806 3
  24087454.605     2989975.369 2   2329849.718 1
  24448156.190     3227184.154 2   2514697.415 1
  22521782.191   -11206769.739 3  -8732537.568 2
 91  7  9  7 38  0.0000000  0  5 11 21 23 12 15
  21738975.221    -7406501.348 3  -5771293.383 2
  20797005.732    -1760183.121 5  -1371567.983 3
  24094849.284     3028825.577 2   2360122.606 1
  24454704.864     3261592.171 2   2541508.923 1
  22513311.855   -11251261.460 3  -8767206.441 2
 91  7  9  7 38 15.0000000  0  5 11 21 23 12 15
  21744804.981    -7375877.744 3  -5747430.841 2
  20800067.512    -1744092.251 4  -1359029.643 3
  24102249.362     3067698.311 2   2390413.004 1
  24461282.305     3296132.861 2   2568423.709 1
  22504861.605   -11295684.472 3  -8801821.739 2
 91  7  9  7 38 30.0000000  0  5 11 21 23 12 15
  21750659.931    -7345103.852 3  -5723451.183 2
  20803141.883    -1727931.974 4  -1346437.206 3
  24109646.737     3106594.449 2   2420721.702 1
  24467874.439     3330806.900 2   2595442.450 1
  22496416.755   -11340037.416 3  -8836382.481 2
 91  7  9  7 38 45.0000000  0  5 11 21 23 12 15
  21756541.561    -7314182.238 3  -5699356.428 1
  20806233.643    -1711704.392 5  -1333792.332 3
  24117053.708     3145511.936 2   2451047.020 1
  24474500.156     3365611.711 2   2622562.997 1
  22487992.889   -11384322.401 3  -8870890.242 1
 91  7  9  7 39  0.0000000  0  5 11 21 23 12 15
  21762458.267    -7283111.382 3  -5675145.395 1
  20809332.897    -1695407.556 5  -1321093.500 3
  24124461.579     3184452.812 2   2481390.552 1
  24481147.755     3400549.086 2   2649786.937 1
  22479577.408   -11428537.170 3  -8905343.295 2
 91  7  9  7 39 15.0000000  0  5 11 21 23 12 15
  21768399.552    -7251891.358 3  -5650818.105 2
  20812448.939    -1679041.149 5  -1308340.458 3
  24131877.546     3223417.096 2   2511752.292 1
  24487820.238     3435618.868 2   2677114.036 1
  22471177.528   -11472681.050 3  -8939741.111 2
 91  7  9  7 39 30.0000000  0  5 11 21 23 12 15
  21774364.821    -7220521.522 3  -5626374.072 1
  20815577.876    -1662604.159 5  -1295532.404 3
  24139308.503     3262405.795 2   2542133.135 1
  24494516.698     3470821.689 2   2704544.641 1
  22462792.332   -11516752.827 3  -8974082.744 2
 91  7  9  7 39 45.0000000  0  5 11 21 23 12 15
  21780363.970    -7189004.465 3  -5601815.328 1
  20818715.801    -1646098.985 5  -1282671.215 3
  24146724.174     3301416.539 2   2572531.079 1
  24501244.342     3506154.899 2   2732077.040 1
  22454417.929   -11560754.380 3  -9008369.650 2
 91  7  9  7 40  0.0000000  0  5 11 21 23 12 15
  21786391.599    -7157341.343 3  -5577142.776 2
  20821869.020    -1629526.450 5  -1269757.548 3
  24154153.325     3340448.596 2   2602945.691 1
  24507992.071     3541617.544 2   2759710.215 1
  22446054.920   -11604686.216 3  -9042602.255 2
 91  7  9  7 40 15.0000000  0  5 11 21 23 12 15
  21792443.805    -7125531.345 3  -5552355.770 2
  20825036.924    -1612885.406 5  -1256790.501 3
  24161590.276     3379503.064 2   2633377.757 1
  24514761.385     3577210.425 2   2787444.944 1
  22437711.692   -11648546.602 3  -9076779.150 2
 91  7  9  7 40 30.0000000  0  5 11 21 23 12 15
  21798522.999    -7093575.357 3  -5527455.009 2
  20828215.630    -1596176.368 5  -1243770.470 3
  24169018.834     3418579.311 2   2663826.748 1
  24521561.578     3612932.531 2   2815280.338 1
  22429383.157   -11692335.916 4  -9110900.684 2
 91  7  9  7 40 45.0000000  0  5 11 21 23 12 15
  21804635.164    -7061472.542 3  -5502439.827 2
  20831409.316    -1579398.112 5  -1230696.498 3
  24176458.787     3457678.798 2   2694293.866 1
  24528379.160     3648784.798 2   2843217.080 1
  22421058.225   -11736052.783 4  -9144965.764 2
 91  7  9  7 41  0.0000000  0  5 11 21 23 12 15
  21810768.017    -7029223.321 3  -5477310.588 2
  20834615.593    -1562550.608 5  -1217568.567 3
  24183906.827     3496801.132 2   2724778.855 1
  24535232.114     3684766.952 2   2871255.090 1
  22412752.175   -11779696.932 3  -9178974.184 2
 91  7  9  7 41 15.0000000  0  5 11 21 23 12 15
  21816933.851    -6996827.142 3  -5452066.816 2
  20837834.469    -1545633.103 4  -1204386.086 3
  24191345.881     3535947.368 2   2755282.429 1
  24542106.950     3720879.542 2   2899394.768 1
  22404464.412   -11823267.084 4  -9212924.917 2
 91  7  9  7 41 30.0000000  0  5 11 21 23 12 15
  21823127.265    -6964285.401 3  -5426709.632 1
  20841067.732    -1528646.503 5  -1191149.752 2
  24198805.614     3575116.398 2   2785803.698 1
  24548998.878     3757121.270 2   2927635.048 1
  22396188.341   -11866763.968 4  -9246818.589 2
 91  7  9  7 41 45.0000000  0  5 11 21 23 12 15
  21829349.454    -6931598.184 3  -5401239.111 1
  20844312.984    -1511590.660 5  -1177859.498 3
  24206268.051     3614308.541 2   2816343.031 1
  24555918.989     3793491.939 3   2955975.718 1
  22387920.663   -11910186.796 3  -9280654.546 2
 91  7  9  7 42  0.0000000  0  5 11 21 23 12 15
  21835593.831    -6898766.910 3  -5375656.309 1
  20847574.727    -1494466.581 5  -1164516.065 2
  24213720.891     3653522.641 2   2846899.382 1
  24562863.984     3829990.138 2   2984415.847 1
  22379673.978   -11953536.302 3  -9314433.392 1
 91  7  9  7 42 15.0000000  0  5 11 21 23 12 15
  21841869.688    -6865789.757 3  -5349959.860 1
  20850843.658    -1477272.181 5  -1151117.833 2
  24221201.311     3692760.890 2   2877474.707 1
  24569840.755     3866617.931 3   3012956.922 1
  22371438.679   -11996810.041 3  -9348153.184 2
 91  7  9  7 42 30.0000000  0  5 11 21 23 12 15
  21848170.430    -6832667.625 3  -5324150.433 1
  20854127.885    -1460007.920 5  -1137665.162 2
  24228660.145     3732022.731 2   2908068.350 1
  24576835.213     3903374.253 3   3041598.129 1
  22363219.566   -12040008.359 4  -9381814.183 2
 91  7  9  7 42 45.0000000  0  5 11 21 23 12 15
  21854503.838    -6799400.519 3  -5298228.029 1
  20857425.305    -1442673.410 4  -1124157.734 3
  24236147.160     3771308.494 2   2938680.694 1
  24583848.560     3940259.038 2   3070339.587 1
  22355011.847   -12083130.609 3  -9415415.888 2
 91  7  9  7 43  0.0000000  0  5 11 21 23 12 15
  21860863.640    -6765989.630 3  -5272193.587 2
  20860741.308    -1425269.671 4  -1110596.354 2
  24243628.182     3810617.394 2   2969310.948 1
  24590891.878     3977271.230 3   3099180.254 1
  22346819.118   -12126177.149 3  -9448958.638 1
 91  7  9  7 43 15.0000000  0  5 11 21 23 12 15
  21867246.519    -6732434.276 3  -5246046.563 1
  20864066.308    -1407795.500 5  -1096980.115 2
  24251100.514     3849950.235 2   2999959.833 1
  24597961.284     4014411.548 3   3128120.768 1
  22338643.482   -12169146.699 3  -9482441.389 1
 91  7  9  7 43 30.0000000  0  4 11 21 12 15
  21873661.778    -6698733.500 3  -5219786.153 1
  20867403.601    -1390249.567 4  -1083307.968 2
  24605053.480     4051680.986 3   3157161.874 1
  22330485.828   -12212037.459 4  -9515862.768 2
 91  7  9  7 43 45.0000000  0  4 11 21 12 15
  21880100.725    -6664888.387 3  -5193413.389 1
  20870753.179    -1372632.742 4  -1069580.568 2
  24612179.547     4089078.516 3   3186302.687 1
  22322332.371   -12254849.867 4  -9549222.978 2
 91  7  9  7 44  0.0000000  0  4 11 21 12 15
  21886565.743    -6630900.568 4  -5166929.425 1
  20874122.249    -1354946.196 5  -1055798.841 2
  24619302.316      950707.59812    740818.745 1
  22314206.799   -12297584.854 3  -9582522.935 1
 91  7  9  7 44 15.0000000  0  3 11 21 15
  21893064.343    -6596767.136 3  -5140331.962 1
  20877500.611    -1337186.720 4  -1041960.267 2
  22306082.719   -12340238.969 3  -9615759.934 2
 91  7  9  7 44 30.0000000  0  5 11 21 23 12 15
  21899589.329    -6562490.163 3  -5113622.636 1
  20880893.361    -1319355.848 5  -1028066.072 2
  24288605.447       -5453.23712     -4250.757 1
  24633664.473      965905.957 2    752661.843 1
  22297986.228   -12382813.412 3  -9648934.817 1
 91  7  9  7 44 45.0000000  0  5 11 21 23 12 15
  21906137.095    -6528069.081 3  -5086801.020 1
  20884303.500    -1301452.797 4  -1014115.644 2
  24296110.750       34030.353 2     26515.609 1
  24640877.477     1003814.868 2    782201.250 1
  22289898.427   -12425306.918 3  -9682046.618 1
 91  7  9  7 45  0.0000000  0  5 11 21 23 12 15
  21912709.144    -6493505.928 3  -5059868.713 2
  20887722.329    -1283478.987 4  -1000110.074 3
  24303633.443       73538.068 2     57300.976 1
  24648116.560     1041849.725 2    811838.747 1
  22281824.718   -12467720.734 3  -9715096.321 1
 91  7  9  7 45 15.0000000  0  5 11 21 23 12 15
  21919317.175    -6458801.887 3  -5032826.589 1
  20891156.157    -1265435.367 4   -986050.099 2
  24311158.832      113069.387 2     88104.534
  24655375.737     1080009.512 2    841573.638 1
  22273770.788   -12510055.230 3  -9748084.218 2
 91  7  9  7 45 30.0000000  0  5 11 21 23 12 15
  21925947.682    -6423956.033 3  -5005674.043 1
  20894601.964    -1247320.759 5   -971934.830 2
  24318683.026      152625.268 2    118927.479 1
  24662672.685     1118295.005 2    871406.380 1
  22265731.254   -12552308.981 3  -9781009.217 2
 91  7  9  7 45 45.0000000  0  5 11 21 23 12 15
  21932606.973    -6388968.660 3  -4978411.156 1
  20898061.269    -1229135.086 4   -957764.146 2
  24326213.510      192205.796 2    149769.321 1
  24669976.832     1156706.199 2    901337.124 1
  22257707.007   -12594481.332 4  -9813870.770 2
 91  7  9  7 46  0.0000000  0  5 11 21 23 12 15
  21939292.343    -6353841.192 3  -4951039.114 1
  20901536.768    -1210879.194 5   -943538.783 2
  24333751.795      231809.955 2    180629.622 1
  24677307.956     1195241.682 2    931364.690 1
  22249695.656   -12636573.169 3  -9846669.590 1
 91  7  9  7 46 15.0000000  0  5 11 21 23 12 15
  21946000.198    -6318576.633 3  -4923560.259 1
  20905022.152    -1192555.973 4   -929260.938 2
  24341292.776      271435.069 2    211506.472 1
  24684662.760     1233898.329 2    961486.716 1
  22241700.193   -12678587.105 3  -9879407.702 1
